<?xml version="1.0" encoding="UTF-8" standalone="no" ?>
<gpx xmlns="http://www.topografix.com/GPX/1/1" xmlns:xsi="http://www.w3.org/2001/XMLSchema-instance" xsi:schemaLocation="http://www.topografix.com/GPX/1/1 http://www.topografix.com/GPX/1/1/gpx.xsd" version="1.1" creator="VisuGPX - https://www.visugpx.com">
  <metadata>
    <name>Cantal Tour du Puy Mary en 4 jours</name>
    <desc><![CDATA[Sommet et tour du Puy Mary en 4 jours : 30 mai au 2 juin 2019
J1 Le Lioran - Puy Mary - le Claux
J2 Le Claux - le Falgoux - Roc des Ombres - Le Fau (très long)
J3 Le Fau - Puy Chavaroche - Mandailles
J4 Mandailles - Puy Griou - Le Lioran]]></desc>
  </metadata>
  <wpt lat="45.15866" lon="2.70715">
    <ele>1038.4414063</ele>
    <name><![CDATA[Le Claux]]></name>
    <desc><![CDATA[La Petite Rhue]]></desc>
    <cmt><![CDATA[La Petite Rhue]]></cmt>
  </wpt>
  <wpt lat="45.10155" lon="2.5839">
    <ele>978.6875</ele>
    <name><![CDATA[Le Fau]]></name>
  </wpt>
  <wpt lat="45.08823" lon="2.7393">
    <ele>1200</ele>
    <name><![CDATA[Le Lioran]]></name>
    <desc><![CDATA[1200 m]]></desc>
    <cmt><![CDATA[1200 m]]></cmt>
  </wpt>
  <wpt lat="45.06969" lon="2.6576">
    <ele>934.9140625</ele>
    <name><![CDATA[Mandailles]]></name>
    <desc><![CDATA[ 17]]></desc>
    <cmt><![CDATA[ 17]]></cmt>
  </wpt>
  <trk>
    <name><![CDATA[Tracé actuel: 30 MAI 2019 09:31]]></name>
    <trkseg>
      <trkpt lat="45.08821" lon="2.73882">
        <ele>1195.54</ele>
        <time>2019-05-30T07:41:43Z</time>
      </trkpt>
      <trkpt lat="45.08825" lon="2.73882">
        <ele>1194.58</ele>
        <time>2019-05-30T07:48:34Z</time>
      </trkpt>
      <trkpt lat="45.08825" lon="2.73889">
        <ele>1196.5</ele>
        <time>2019-05-30T07:52:28Z</time>
      </trkpt>
      <trkpt lat="45.08814" lon="2.73929">
        <ele>1195.54</ele>
        <time>2019-05-30T07:53:17Z</time>
      </trkpt>
      <trkpt lat="45.0879" lon="2.73949">
        <ele>1196.98</ele>
        <time>2019-05-30T07:53:44Z</time>
      </trkpt>
      <trkpt lat="45.08771" lon="2.73968">
        <ele>1198.9</ele>
        <time>2019-05-30T07:54:05Z</time>
      </trkpt>
      <trkpt lat="45.08749" lon="2.73965">
        <ele>1200.34</ele>
        <time>2019-05-30T07:54:36Z</time>
      </trkpt>
      <trkpt lat="45.08743" lon="2.73918">
        <ele>1203.71</ele>
        <time>2019-05-30T07:55:31Z</time>
      </trkpt>
      <trkpt lat="45.08726" lon="2.73877">
        <ele>1209</ele>
        <time>2019-05-30T07:56:18Z</time>
      </trkpt>
      <trkpt lat="45.08735" lon="2.73845">
        <ele>1211.88</ele>
        <time>2019-05-30T07:56:53Z</time>
      </trkpt>
      <trkpt lat="45.08739" lon="2.73811">
        <ele>1213.32</ele>
        <time>2019-05-30T07:57:14Z</time>
      </trkpt>
      <trkpt lat="45.08748" lon="2.73773">
        <ele>1217.17</ele>
        <time>2019-05-30T07:57:53Z</time>
      </trkpt>
      <trkpt lat="45.08755" lon="2.73735">
        <ele>1219.57</ele>
        <time>2019-05-30T07:58:22Z</time>
      </trkpt>
      <trkpt lat="45.08763" lon="2.73701">
        <ele>1222.45</ele>
        <time>2019-05-30T07:58:50Z</time>
      </trkpt>
      <trkpt lat="45.08771" lon="2.7367">
        <ele>1224.38</ele>
        <time>2019-05-30T07:59:16Z</time>
      </trkpt>
      <trkpt lat="45.08788" lon="2.73626">
        <ele>1227.74</ele>
        <time>2019-05-30T07:59:54Z</time>
      </trkpt>
      <trkpt lat="45.08804" lon="2.7359">
        <ele>1230.62</ele>
        <time>2019-05-30T08:00:29Z</time>
      </trkpt>
      <trkpt lat="45.0881" lon="2.73558">
        <ele>1232.07</ele>
        <time>2019-05-30T08:00:51Z</time>
      </trkpt>
      <trkpt lat="45.08826" lon="2.73528">
        <ele>1234.95</ele>
        <time>2019-05-30T08:01:16Z</time>
      </trkpt>
      <trkpt lat="45.08836" lon="2.73496">
        <ele>1237.83</ele>
        <time>2019-05-30T08:01:42Z</time>
      </trkpt>
      <trkpt lat="45.08853" lon="2.7345">
        <ele>1240.72</ele>
        <time>2019-05-30T08:02:24Z</time>
      </trkpt>
      <trkpt lat="45.08852" lon="2.73417">
        <ele>1243.12</ele>
        <time>2019-05-30T08:02:46Z</time>
      </trkpt>
      <trkpt lat="45.08848" lon="2.73385">
        <ele>1246.01</ele>
        <time>2019-05-30T08:03:06Z</time>
      </trkpt>
      <trkpt lat="45.08853" lon="2.73353">
        <ele>1248.41</ele>
        <time>2019-05-30T08:03:33Z</time>
      </trkpt>
      <trkpt lat="45.08857" lon="2.73311">
        <ele>1251.29</ele>
        <time>2019-05-30T08:04:00Z</time>
      </trkpt>
      <trkpt lat="45.08858" lon="2.73275">
        <ele>1252.74</ele>
        <time>2019-05-30T08:04:22Z</time>
      </trkpt>
      <trkpt lat="45.08873" lon="2.73238">
        <ele>1255.14</ele>
        <time>2019-05-30T08:04:48Z</time>
      </trkpt>
      <trkpt lat="45.08878" lon="2.732">
        <ele>1257.06</ele>
        <time>2019-05-30T08:05:13Z</time>
      </trkpt>
      <trkpt lat="45.08885" lon="2.73169">
        <ele>1259.46</ele>
        <time>2019-05-30T08:05:38Z</time>
      </trkpt>
      <trkpt lat="45.08886" lon="2.73137">
        <ele>1259.94</ele>
        <time>2019-05-30T08:06:00Z</time>
      </trkpt>
      <trkpt lat="45.08883" lon="2.73099">
        <ele>1261.39</ele>
        <time>2019-05-30T08:06:27Z</time>
      </trkpt>
      <trkpt lat="45.0888" lon="2.73058">
        <ele>1263.31</ele>
        <time>2019-05-30T08:06:57Z</time>
      </trkpt>
      <trkpt lat="45.08895" lon="2.73021">
        <ele>1263.79</ele>
        <time>2019-05-30T08:07:21Z</time>
      </trkpt>
      <trkpt lat="45.08915" lon="2.72993">
        <ele>1264.75</ele>
        <time>2019-05-30T08:07:45Z</time>
      </trkpt>
      <trkpt lat="45.08924" lon="2.72953">
        <ele>1265.71</ele>
        <time>2019-05-30T08:08:19Z</time>
      </trkpt>
      <trkpt lat="45.08932" lon="2.72914">
        <ele>1268.12</ele>
        <time>2019-05-30T08:08:47Z</time>
      </trkpt>
      <trkpt lat="45.08943" lon="2.72881">
        <ele>1269.08</ele>
        <time>2019-05-30T08:09:15Z</time>
      </trkpt>
      <trkpt lat="45.08958" lon="2.72852">
        <ele>1269.56</ele>
        <time>2019-05-30T08:09:35Z</time>
      </trkpt>
      <trkpt lat="45.08983" lon="2.72819">
        <ele>1271.48</ele>
        <time>2019-05-30T08:10:03Z</time>
      </trkpt>
      <trkpt lat="45.08992" lon="2.72781">
        <ele>1272.92</ele>
        <time>2019-05-30T08:10:27Z</time>
      </trkpt>
      <trkpt lat="45.09016" lon="2.7276">
        <ele>1274.85</ele>
        <time>2019-05-30T08:10:52Z</time>
      </trkpt>
      <trkpt lat="45.09034" lon="2.72741">
        <ele>1271.96</ele>
        <time>2019-05-30T08:11:17Z</time>
      </trkpt>
      <trkpt lat="45.09054" lon="2.72723">
        <ele>1270.52</ele>
        <time>2019-05-30T08:11:50Z</time>
      </trkpt>
      <trkpt lat="45.09079" lon="2.72706">
        <ele>1269.56</ele>
        <time>2019-05-30T08:12:14Z</time>
      </trkpt>
      <trkpt lat="45.09112" lon="2.72684">
        <ele>1269.56</ele>
        <time>2019-05-30T08:12:48Z</time>
      </trkpt>
      <trkpt lat="45.09141" lon="2.72671">
        <ele>1269.56</ele>
        <time>2019-05-30T08:13:12Z</time>
      </trkpt>
      <trkpt lat="45.09178" lon="2.72666">
        <ele>1273.4</ele>
        <time>2019-05-30T08:13:51Z</time>
      </trkpt>
      <trkpt lat="45.09201" lon="2.72657">
        <ele>1276.77</ele>
        <time>2019-05-30T08:14:19Z</time>
      </trkpt>
      <trkpt lat="45.0923" lon="2.72643">
        <ele>1282.06</ele>
        <time>2019-05-30T08:15:04Z</time>
      </trkpt>
      <trkpt lat="45.09257" lon="2.72653">
        <ele>1286.86</ele>
        <time>2019-05-30T08:15:39Z</time>
      </trkpt>
      <trkpt lat="45.09283" lon="2.72658">
        <ele>1289.27</ele>
        <time>2019-05-30T08:16:11Z</time>
      </trkpt>
      <trkpt lat="45.09309" lon="2.72661">
        <ele>1292.63</ele>
        <time>2019-05-30T08:16:42Z</time>
      </trkpt>
      <trkpt lat="45.0932" lon="2.72705">
        <ele>1296.96</ele>
        <time>2019-05-30T08:17:19Z</time>
      </trkpt>
      <trkpt lat="45.09339" lon="2.72752">
        <ele>1301.76</ele>
        <time>2019-05-30T08:18:01Z</time>
      </trkpt>
      <trkpt lat="45.09358" lon="2.7276">
        <ele>1307.53</ele>
        <time>2019-05-30T08:18:45Z</time>
      </trkpt>
      <trkpt lat="45.09379" lon="2.72739">
        <ele>1304.17</ele>
        <time>2019-05-30T08:19:36Z</time>
      </trkpt>
      <trkpt lat="45.09402" lon="2.72718">
        <ele>1320.03</ele>
        <time>2019-05-30T08:20:47Z</time>
      </trkpt>
      <trkpt lat="45.09417" lon="2.72683">
        <ele>1325.8</ele>
        <time>2019-05-30T08:21:24Z</time>
      </trkpt>
      <trkpt lat="45.09431" lon="2.72652">
        <ele>1332.52</ele>
        <time>2019-05-30T08:22:01Z</time>
      </trkpt>
      <trkpt lat="45.09451" lon="2.72636">
        <ele>1337.81</ele>
        <time>2019-05-30T08:22:38Z</time>
      </trkpt>
      <trkpt lat="45.09474" lon="2.72635">
        <ele>1343.58</ele>
        <time>2019-05-30T08:23:25Z</time>
      </trkpt>
      <trkpt lat="45.0949" lon="2.72667">
        <ele>1349.83</ele>
        <time>2019-05-30T08:24:16Z</time>
      </trkpt>
      <trkpt lat="45.095" lon="2.72698">
        <ele>1356.56</ele>
        <time>2019-05-30T08:25:09Z</time>
      </trkpt>
      <trkpt lat="45.09515" lon="2.72721">
        <ele>1362.33</ele>
        <time>2019-05-30T08:25:59Z</time>
      </trkpt>
      <trkpt lat="45.09527" lon="2.72726">
        <ele>1367.61</ele>
        <time>2019-05-30T08:26:48Z</time>
      </trkpt>
      <trkpt lat="45.09537" lon="2.72689">
        <ele>1376.26</ele>
        <time>2019-05-30T08:27:59Z</time>
      </trkpt>
      <trkpt lat="45.09548" lon="2.72662">
        <ele>1382.03</ele>
        <time>2019-05-30T08:28:46Z</time>
      </trkpt>
      <trkpt lat="45.09566" lon="2.72634">
        <ele>1388.76</ele>
        <time>2019-05-30T08:29:46Z</time>
      </trkpt>
      <trkpt lat="45.09585" lon="2.72613">
        <ele>1394.53</ele>
        <time>2019-05-30T08:30:35Z</time>
      </trkpt>
      <trkpt lat="45.09605" lon="2.72599">
        <ele>1398.37</ele>
        <time>2019-05-30T08:31:16Z</time>
      </trkpt>
      <trkpt lat="45.09623" lon="2.72589">
        <ele>1402.7</ele>
        <time>2019-05-30T08:31:58Z</time>
      </trkpt>
      <trkpt lat="45.09628" lon="2.72558">
        <ele>1405.58</ele>
        <time>2019-05-30T08:32:36Z</time>
      </trkpt>
      <trkpt lat="45.09633" lon="2.72522">
        <ele>1408.47</ele>
        <time>2019-05-30T08:33:12Z</time>
      </trkpt>
      <trkpt lat="45.09635" lon="2.72505">
        <ele>1407.99</ele>
        <time>2019-05-30T08:33:49Z</time>
      </trkpt>
      <trkpt lat="45.09607" lon="2.72493">
        <ele>1414.72</ele>
        <time>2019-05-30T08:34:41Z</time>
      </trkpt>
      <trkpt lat="45.096" lon="2.72459">
        <ele>1420</ele>
        <time>2019-05-30T08:35:27Z</time>
      </trkpt>
      <trkpt lat="45.09606" lon="2.72424">
        <ele>1426.73</ele>
        <time>2019-05-30T08:36:21Z</time>
      </trkpt>
      <trkpt lat="45.09615" lon="2.72388">
        <ele>1432.02</ele>
        <time>2019-05-30T08:37:15Z</time>
      </trkpt>
      <trkpt lat="45.09625" lon="2.72355">
        <ele>1438.27</ele>
        <time>2019-05-30T08:38:11Z</time>
      </trkpt>
      <trkpt lat="45.09642" lon="2.72327">
        <ele>1444.52</ele>
        <time>2019-05-30T08:39:06Z</time>
      </trkpt>
      <trkpt lat="45.09653" lon="2.72358">
        <ele>1450.77</ele>
        <time>2019-05-30T08:39:57Z</time>
      </trkpt>
      <trkpt lat="45.09673" lon="2.72369">
        <ele>1458.46</ele>
        <time>2019-05-30T08:40:55Z</time>
      </trkpt>
      <trkpt lat="45.09694" lon="2.72375">
        <ele>1462.3</ele>
        <time>2019-05-30T08:41:43Z</time>
      </trkpt>
      <trkpt lat="45.0972" lon="2.72374">
        <ele>1467.59</ele>
        <time>2019-05-30T08:42:32Z</time>
      </trkpt>
      <trkpt lat="45.09737" lon="2.72351">
        <ele>1474.8</ele>
        <time>2019-05-30T08:43:28Z</time>
      </trkpt>
      <trkpt lat="45.09724" lon="2.72321">
        <ele>1481.05</ele>
        <time>2019-05-30T08:44:41Z</time>
      </trkpt>
      <trkpt lat="45.09725" lon="2.72283">
        <ele>1482.49</ele>
        <time>2019-05-30T08:45:22Z</time>
      </trkpt>
      <trkpt lat="45.09733" lon="2.72251">
        <ele>1485.37</ele>
        <time>2019-05-30T08:46:01Z</time>
      </trkpt>
      <trkpt lat="45.09741" lon="2.72216">
        <ele>1487.78</ele>
        <time>2019-05-30T08:46:39Z</time>
      </trkpt>
      <trkpt lat="45.09755" lon="2.72186">
        <ele>1490.18</ele>
        <time>2019-05-30T08:47:17Z</time>
      </trkpt>
      <trkpt lat="45.09764" lon="2.72161">
        <ele>1493.55</ele>
        <time>2019-05-30T08:48:01Z</time>
      </trkpt>
      <trkpt lat="45.09762" lon="2.72126">
        <ele>1499.79</ele>
        <time>2019-05-30T08:48:53Z</time>
      </trkpt>
      <trkpt lat="45.09765" lon="2.7209">
        <ele>1507.97</ele>
        <time>2019-05-30T08:49:55Z</time>
      </trkpt>
      <trkpt lat="45.09772" lon="2.72055">
        <ele>1512.77</ele>
        <time>2019-05-30T08:50:40Z</time>
      </trkpt>
      <trkpt lat="45.09785" lon="2.72026">
        <ele>1519.02</ele>
        <time>2019-05-30T08:51:36Z</time>
      </trkpt>
      <trkpt lat="45.09772" lon="2.72002">
        <ele>1523.35</ele>
        <time>2019-05-30T08:52:19Z</time>
      </trkpt>
      <trkpt lat="45.09756" lon="2.71979">
        <ele>1529.11</ele>
        <time>2019-05-30T08:53:06Z</time>
      </trkpt>
      <trkpt lat="45.09742" lon="2.7196">
        <ele>1532.96</ele>
        <time>2019-05-30T08:54:55Z</time>
      </trkpt>
      <trkpt lat="45.09718" lon="2.7194">
        <ele>1533.92</ele>
        <time>2019-05-30T08:55:31Z</time>
      </trkpt>
      <trkpt lat="45.09699" lon="2.71915">
        <ele>1538.25</ele>
        <time>2019-05-30T08:56:04Z</time>
      </trkpt>
      <trkpt lat="45.09678" lon="2.71893">
        <ele>1541.13</ele>
        <time>2019-05-30T08:56:39Z</time>
      </trkpt>
      <trkpt lat="45.09648" lon="2.71875">
        <ele>1545.94</ele>
        <time>2019-05-30T08:57:33Z</time>
      </trkpt>
      <trkpt lat="45.09626" lon="2.71862">
        <ele>1548.34</ele>
        <time>2019-05-30T08:58:13Z</time>
      </trkpt>
      <trkpt lat="45.09603" lon="2.7184">
        <ele>1551.71</ele>
        <time>2019-05-30T08:58:51Z</time>
      </trkpt>
      <trkpt lat="45.09592" lon="2.71811">
        <ele>1555.07</ele>
        <time>2019-05-30T08:59:30Z</time>
      </trkpt>
      <trkpt lat="45.09592" lon="2.71809">
        <ele>1559.4</ele>
        <time>2019-05-30T09:02:52Z</time>
      </trkpt>
      <trkpt lat="45.09616" lon="2.71787">
        <ele>1553.15</ele>
        <time>2019-05-30T09:03:57Z</time>
      </trkpt>
      <trkpt lat="45.09631" lon="2.71765">
        <ele>1546.42</ele>
        <time>2019-05-30T09:04:36Z</time>
      </trkpt>
      <trkpt lat="45.09656" lon="2.71753">
        <ele>1546.9</ele>
        <time>2019-05-30T09:05:05Z</time>
      </trkpt>
      <trkpt lat="45.09674" lon="2.71749">
        <ele>1548.34</ele>
        <time>2019-05-30T09:06:11Z</time>
      </trkpt>
      <trkpt lat="45.09696" lon="2.71736">
        <ele>1548.82</ele>
        <time>2019-05-30T09:06:33Z</time>
      </trkpt>
      <trkpt lat="45.09718" lon="2.71723">
        <ele>1549.3</ele>
        <time>2019-05-30T09:06:55Z</time>
      </trkpt>
      <trkpt lat="45.09742" lon="2.71712">
        <ele>1546.9</ele>
        <time>2019-05-30T09:07:19Z</time>
      </trkpt>
      <trkpt lat="45.09773" lon="2.71702">
        <ele>1547.86</ele>
        <time>2019-05-30T09:07:50Z</time>
      </trkpt>
      <trkpt lat="45.09796" lon="2.71695">
        <ele>1544.98</ele>
        <time>2019-05-30T09:08:12Z</time>
      </trkpt>
      <trkpt lat="45.0982" lon="2.7169">
        <ele>1544.01</ele>
        <time>2019-05-30T09:08:34Z</time>
      </trkpt>
      <trkpt lat="45.09855" lon="2.71674">
        <ele>1543.05</ele>
        <time>2019-05-30T09:09:08Z</time>
      </trkpt>
      <trkpt lat="45.09889" lon="2.71667">
        <ele>1543.05</ele>
        <time>2019-05-30T09:09:39Z</time>
      </trkpt>
      <trkpt lat="45.09921" lon="2.71658">
        <ele>1543.05</ele>
        <time>2019-05-30T09:10:24Z</time>
      </trkpt>
      <trkpt lat="45.09954" lon="2.71655">
        <ele>1540.17</ele>
        <time>2019-05-30T09:10:54Z</time>
      </trkpt>
      <trkpt lat="45.09987" lon="2.71651">
        <ele>1537.29</ele>
        <time>2019-05-30T09:11:25Z</time>
      </trkpt>
      <trkpt lat="45.1001" lon="2.71658">
        <ele>1535.84</ele>
        <time>2019-05-30T09:11:50Z</time>
      </trkpt>
      <trkpt lat="45.10036" lon="2.71663">
        <ele>1534.88</ele>
        <time>2019-05-30T09:12:20Z</time>
      </trkpt>
      <trkpt lat="45.1006" lon="2.71666">
        <ele>1533.44</ele>
        <time>2019-05-30T09:12:45Z</time>
      </trkpt>
      <trkpt lat="45.10085" lon="2.7167">
        <ele>1532.96</ele>
        <time>2019-05-30T09:13:14Z</time>
      </trkpt>
      <trkpt lat="45.1011" lon="2.71661">
        <ele>1532.48</ele>
        <time>2019-05-30T09:13:45Z</time>
      </trkpt>
      <trkpt lat="45.1014" lon="2.71647">
        <ele>1531.04</ele>
        <time>2019-05-30T09:14:16Z</time>
      </trkpt>
      <trkpt lat="45.10166" lon="2.71636">
        <ele>1530.56</ele>
        <time>2019-05-30T09:14:44Z</time>
      </trkpt>
      <trkpt lat="45.1019" lon="2.71631">
        <ele>1530.56</ele>
        <time>2019-05-30T09:15:14Z</time>
      </trkpt>
      <trkpt lat="45.10226" lon="2.71636">
        <ele>1530.56</ele>
        <time>2019-05-30T09:15:51Z</time>
      </trkpt>
      <trkpt lat="45.10255" lon="2.71643">
        <ele>1532</ele>
        <time>2019-05-30T09:16:23Z</time>
      </trkpt>
      <trkpt lat="45.10284" lon="2.71649">
        <ele>1532.96</ele>
        <time>2019-05-30T09:16:53Z</time>
      </trkpt>
      <trkpt lat="45.10307" lon="2.71653">
        <ele>1531.04</ele>
        <time>2019-05-30T09:17:23Z</time>
      </trkpt>
      <trkpt lat="45.10324" lon="2.71631">
        <ele>1533.44</ele>
        <time>2019-05-30T09:18:09Z</time>
      </trkpt>
      <trkpt lat="45.10349" lon="2.71627">
        <ele>1537.77</ele>
        <time>2019-05-30T09:18:45Z</time>
      </trkpt>
      <trkpt lat="45.10366" lon="2.71619">
        <ele>1538.25</ele>
        <time>2019-05-30T09:19:29Z</time>
      </trkpt>
      <trkpt lat="45.10389" lon="2.71605">
        <ele>1537.29</ele>
        <time>2019-05-30T09:19:59Z</time>
      </trkpt>
      <trkpt lat="45.10406" lon="2.71577">
        <ele>1532.96</ele>
        <time>2019-05-30T09:20:23Z</time>
      </trkpt>
      <trkpt lat="45.10421" lon="2.7154">
        <ele>1537.77</ele>
        <time>2019-05-30T09:20:51Z</time>
      </trkpt>
      <trkpt lat="45.10434" lon="2.71497">
        <ele>1538.73</ele>
        <time>2019-05-30T09:21:24Z</time>
      </trkpt>
      <trkpt lat="45.10442" lon="2.71458">
        <ele>1541.13</ele>
        <time>2019-05-30T09:21:59Z</time>
      </trkpt>
      <trkpt lat="45.10437" lon="2.71429">
        <ele>1545.94</ele>
        <time>2019-05-30T09:22:41Z</time>
      </trkpt>
      <trkpt lat="45.10436" lon="2.71386">
        <ele>1546.9</ele>
        <time>2019-05-30T09:23:18Z</time>
      </trkpt>
      <trkpt lat="45.10442" lon="2.71334">
        <ele>1548.82</ele>
        <time>2019-05-30T09:24:00Z</time>
      </trkpt>
      <trkpt lat="45.10471" lon="2.71326">
        <ele>1552.19</ele>
        <time>2019-05-30T09:24:36Z</time>
      </trkpt>
      <trkpt lat="45.10502" lon="2.71309">
        <ele>1555.55</ele>
        <time>2019-05-30T09:25:13Z</time>
      </trkpt>
      <trkpt lat="45.10518" lon="2.71284">
        <ele>1561.32</ele>
        <time>2019-05-30T09:25:49Z</time>
      </trkpt>
      <trkpt lat="45.10534" lon="2.71254">
        <ele>1564.68</ele>
        <time>2019-05-30T09:26:26Z</time>
      </trkpt>
      <trkpt lat="45.10547" lon="2.71218">
        <ele>1567.57</ele>
        <time>2019-05-30T09:27:03Z</time>
      </trkpt>
      <trkpt lat="45.10569" lon="2.712">
        <ele>1571.41</ele>
        <time>2019-05-30T09:27:39Z</time>
      </trkpt>
      <trkpt lat="45.10583" lon="2.71176">
        <ele>1575.74</ele>
        <time>2019-05-30T09:28:16Z</time>
      </trkpt>
      <trkpt lat="45.1059" lon="2.71144">
        <ele>1579.58</ele>
        <time>2019-05-30T09:28:49Z</time>
      </trkpt>
      <trkpt lat="45.10611" lon="2.71121">
        <ele>1579.58</ele>
        <time>2019-05-30T09:29:20Z</time>
      </trkpt>
      <trkpt lat="45.10641" lon="2.71101">
        <ele>1581.03</ele>
        <time>2019-05-30T09:29:56Z</time>
      </trkpt>
      <trkpt lat="45.10663" lon="2.71074">
        <ele>1581.99</ele>
        <time>2019-05-30T09:30:34Z</time>
      </trkpt>
      <trkpt lat="45.10681" lon="2.71049">
        <ele>1583.91</ele>
        <time>2019-05-30T09:31:14Z</time>
      </trkpt>
      <trkpt lat="45.1069" lon="2.71018">
        <ele>1585.83</ele>
        <time>2019-05-30T09:31:55Z</time>
      </trkpt>
      <trkpt lat="45.10687" lon="2.70974">
        <ele>1588.72</ele>
        <time>2019-05-30T09:32:52Z</time>
      </trkpt>
      <trkpt lat="45.10669" lon="2.70942">
        <ele>1586.31</ele>
        <time>2019-05-30T09:33:40Z</time>
      </trkpt>
      <trkpt lat="45.10684" lon="2.70903">
        <ele>1591.12</ele>
        <time>2019-05-30T09:34:21Z</time>
      </trkpt>
      <trkpt lat="45.10697" lon="2.70867">
        <ele>1591.12</ele>
        <time>2019-05-30T09:34:51Z</time>
      </trkpt>
      <trkpt lat="45.10693" lon="2.70837">
        <ele>1593.04</ele>
        <time>2019-05-30T09:35:20Z</time>
      </trkpt>
      <trkpt lat="45.10692" lon="2.70805">
        <ele>1592.56</ele>
        <time>2019-05-30T09:35:44Z</time>
      </trkpt>
      <trkpt lat="45.10691" lon="2.7077">
        <ele>1593.52</ele>
        <time>2019-05-30T09:36:12Z</time>
      </trkpt>
      <trkpt lat="45.10685" lon="2.70732">
        <ele>1591.6</ele>
        <time>2019-05-30T09:36:42Z</time>
      </trkpt>
      <trkpt lat="45.10672" lon="2.70694">
        <ele>1594</ele>
        <time>2019-05-30T09:37:14Z</time>
      </trkpt>
      <trkpt lat="45.10651" lon="2.70665">
        <ele>1595.93</ele>
        <time>2019-05-30T09:37:45Z</time>
      </trkpt>
      <trkpt lat="45.10627" lon="2.70645">
        <ele>1596.89</ele>
        <time>2019-05-30T09:38:14Z</time>
      </trkpt>
      <trkpt lat="45.1061" lon="2.70618">
        <ele>1599.29</ele>
        <time>2019-05-30T09:38:54Z</time>
      </trkpt>
      <trkpt lat="45.10593" lon="2.70595">
        <ele>1600.25</ele>
        <time>2019-05-30T09:39:25Z</time>
      </trkpt>
      <trkpt lat="45.10585" lon="2.70558">
        <ele>1603.14</ele>
        <time>2019-05-30T09:40:06Z</time>
      </trkpt>
      <trkpt lat="45.10587" lon="2.70526">
        <ele>1606.5</ele>
        <time>2019-05-30T09:40:35Z</time>
      </trkpt>
      <trkpt lat="45.10588" lon="2.70489">
        <ele>1610.83</ele>
        <time>2019-05-30T09:41:18Z</time>
      </trkpt>
      <trkpt lat="45.10586" lon="2.70455">
        <ele>1612.75</ele>
        <time>2019-05-30T09:41:49Z</time>
      </trkpt>
      <trkpt lat="45.10579" lon="2.70419">
        <ele>1616.11</ele>
        <time>2019-05-30T09:42:21Z</time>
      </trkpt>
      <trkpt lat="45.10569" lon="2.70386">
        <ele>1616.59</ele>
        <time>2019-05-30T09:42:50Z</time>
      </trkpt>
      <trkpt lat="45.1055" lon="2.70357">
        <ele>1619</ele>
        <time>2019-05-30T09:43:24Z</time>
      </trkpt>
      <trkpt lat="45.10539" lon="2.70328">
        <ele>1623.8</ele>
        <time>2019-05-30T09:44:06Z</time>
      </trkpt>
      <trkpt lat="45.10544" lon="2.70277">
        <ele>1621.4</ele>
        <time>2019-05-30T09:45:05Z</time>
      </trkpt>
      <trkpt lat="45.10546" lon="2.70239">
        <ele>1621.4</ele>
        <time>2019-05-30T09:45:35Z</time>
      </trkpt>
      <trkpt lat="45.10553" lon="2.70207">
        <ele>1620.44</ele>
        <time>2019-05-30T09:45:57Z</time>
      </trkpt>
      <trkpt lat="45.10554" lon="2.70165">
        <ele>1622.84</ele>
        <time>2019-05-30T09:46:28Z</time>
      </trkpt>
      <trkpt lat="45.10552" lon="2.70127">
        <ele>1624.77</ele>
        <time>2019-05-30T09:46:58Z</time>
      </trkpt>
      <trkpt lat="45.10546" lon="2.7009">
        <ele>1629.09</ele>
        <time>2019-05-30T09:47:39Z</time>
      </trkpt>
      <trkpt lat="45.10537" lon="2.70058">
        <ele>1632.46</ele>
        <time>2019-05-30T09:48:22Z</time>
      </trkpt>
      <trkpt lat="45.10533" lon="2.7003">
        <ele>1635.82</ele>
        <time>2019-05-30T09:49:23Z</time>
      </trkpt>
      <trkpt lat="45.10522" lon="2.70027">
        <ele>1632.94</ele>
        <time>2019-05-30T09:56:41Z</time>
      </trkpt>
      <trkpt lat="45.10522" lon="2.70024">
        <ele>1632.46</ele>
        <time>2019-05-30T10:17:28Z</time>
      </trkpt>
      <trkpt lat="45.10525" lon="2.70023">
        <ele>1636.3</ele>
        <time>2019-05-30T10:26:49Z</time>
      </trkpt>
      <trkpt lat="45.10513" lon="2.70004">
        <ele>1637.26</ele>
        <time>2019-05-30T10:27:49Z</time>
      </trkpt>
      <trkpt lat="45.10494" lon="2.69978">
        <ele>1641.11</ele>
        <time>2019-05-30T10:28:21Z</time>
      </trkpt>
      <trkpt lat="45.10474" lon="2.6996">
        <ele>1643.99</ele>
        <time>2019-05-30T10:28:45Z</time>
      </trkpt>
      <trkpt lat="45.10458" lon="2.69937">
        <ele>1646.88</ele>
        <time>2019-05-30T10:29:10Z</time>
      </trkpt>
      <trkpt lat="45.10439" lon="2.69921">
        <ele>1646.88</ele>
        <time>2019-05-30T10:29:40Z</time>
      </trkpt>
      <trkpt lat="45.10422" lon="2.69882">
        <ele>1644.95</ele>
        <time>2019-05-30T10:30:13Z</time>
      </trkpt>
      <trkpt lat="45.1041" lon="2.69833">
        <ele>1640.63</ele>
        <time>2019-05-30T10:30:48Z</time>
      </trkpt>
      <trkpt lat="45.10396" lon="2.69792">
        <ele>1637.26</ele>
        <time>2019-05-30T10:31:17Z</time>
      </trkpt>
      <trkpt lat="45.10384" lon="2.69756">
        <ele>1636.78</ele>
        <time>2019-05-30T10:31:41Z</time>
      </trkpt>
      <trkpt lat="45.10376" lon="2.69712">
        <ele>1641.59</ele>
        <time>2019-05-30T10:32:20Z</time>
      </trkpt>
      <trkpt lat="45.10368" lon="2.69682">
        <ele>1641.59</ele>
        <time>2019-05-30T10:32:41Z</time>
      </trkpt>
      <trkpt lat="45.10355" lon="2.69634">
        <ele>1638.22</ele>
        <time>2019-05-30T10:33:18Z</time>
      </trkpt>
      <trkpt lat="45.10347" lon="2.69598">
        <ele>1635.82</ele>
        <time>2019-05-30T10:33:43Z</time>
      </trkpt>
      <trkpt lat="45.10341" lon="2.69557">
        <ele>1631.98</ele>
        <time>2019-05-30T10:34:17Z</time>
      </trkpt>
      <trkpt lat="45.1033" lon="2.69527">
        <ele>1634.86</ele>
        <time>2019-05-30T10:35:02Z</time>
      </trkpt>
      <trkpt lat="45.1031" lon="2.69505">
        <ele>1643.03</ele>
        <time>2019-05-30T10:35:43Z</time>
      </trkpt>
      <trkpt lat="45.10289" lon="2.69482">
        <ele>1652.16</ele>
        <time>2019-05-30T10:36:34Z</time>
      </trkpt>
      <trkpt lat="45.10271" lon="2.6946">
        <ele>1656.01</ele>
        <time>2019-05-30T10:37:09Z</time>
      </trkpt>
      <trkpt lat="45.10253" lon="2.6943">
        <ele>1666.1</ele>
        <time>2019-05-30T10:37:54Z</time>
      </trkpt>
      <trkpt lat="45.10236" lon="2.69409">
        <ele>1670.91</ele>
        <time>2019-05-30T10:38:24Z</time>
      </trkpt>
      <trkpt lat="45.10227" lon="2.69397">
        <ele>1671.39</ele>
        <time>2019-05-30T10:40:09Z</time>
      </trkpt>
      <trkpt lat="45.10236" lon="2.69374">
        <ele>1668.02</ele>
        <time>2019-05-30T10:41:58Z</time>
      </trkpt>
      <trkpt lat="45.10239" lon="2.69336">
        <ele>1667.06</ele>
        <time>2019-05-30T10:42:26Z</time>
      </trkpt>
      <trkpt lat="45.10241" lon="2.693">
        <ele>1666.58</ele>
        <time>2019-05-30T10:42:53Z</time>
      </trkpt>
      <trkpt lat="45.10243" lon="2.69276">
        <ele>1663.7</ele>
        <time>2019-05-30T10:45:28Z</time>
      </trkpt>
      <trkpt lat="45.10251" lon="2.69238">
        <ele>1667.06</ele>
        <time>2019-05-30T10:47:38Z</time>
      </trkpt>
      <trkpt lat="45.10267" lon="2.69198">
        <ele>1666.58</ele>
        <time>2019-05-30T10:48:19Z</time>
      </trkpt>
      <trkpt lat="45.10274" lon="2.69179">
        <ele>1666.58</ele>
        <time>2019-05-30T10:51:27Z</time>
      </trkpt>
      <trkpt lat="45.10283" lon="2.69144">
        <ele>1665.14</ele>
        <time>2019-05-30T10:51:54Z</time>
      </trkpt>
      <trkpt lat="45.10297" lon="2.69099">
        <ele>1662.26</ele>
        <time>2019-05-30T10:52:29Z</time>
      </trkpt>
      <trkpt lat="45.1031" lon="2.69066">
        <ele>1658.41</ele>
        <time>2019-05-30T10:52:56Z</time>
      </trkpt>
      <trkpt lat="45.10322" lon="2.69034">
        <ele>1655.05</ele>
        <time>2019-05-30T10:53:35Z</time>
      </trkpt>
      <trkpt lat="45.1032" lon="2.68991">
        <ele>1654.57</ele>
        <time>2019-05-30T10:54:10Z</time>
      </trkpt>
      <trkpt lat="45.10325" lon="2.68953">
        <ele>1659.37</ele>
        <time>2019-05-30T10:54:45Z</time>
      </trkpt>
      <trkpt lat="45.10342" lon="2.68921">
        <ele>1663.22</ele>
        <time>2019-05-30T10:55:22Z</time>
      </trkpt>
      <trkpt lat="45.10357" lon="2.68895">
        <ele>1664.66</ele>
        <time>2019-05-30T10:55:53Z</time>
      </trkpt>
      <trkpt lat="45.10369" lon="2.68853">
        <ele>1664.18</ele>
        <time>2019-05-30T10:56:27Z</time>
      </trkpt>
      <trkpt lat="45.10365" lon="2.68813">
        <ele>1660.33</ele>
        <time>2019-05-30T10:56:58Z</time>
      </trkpt>
      <trkpt lat="45.10361" lon="2.68779">
        <ele>1657.93</ele>
        <time>2019-05-30T10:57:35Z</time>
      </trkpt>
      <trkpt lat="45.10363" lon="2.68735">
        <ele>1653.12</ele>
        <time>2019-05-30T10:58:19Z</time>
      </trkpt>
      <trkpt lat="45.10366" lon="2.68705">
        <ele>1650.72</ele>
        <time>2019-05-30T10:58:53Z</time>
      </trkpt>
      <trkpt lat="45.10375" lon="2.68672">
        <ele>1645.43</ele>
        <time>2019-05-30T10:59:32Z</time>
      </trkpt>
      <trkpt lat="45.10372" lon="2.68638">
        <ele>1639.19</ele>
        <time>2019-05-30T11:00:22Z</time>
      </trkpt>
      <trkpt lat="45.10374" lon="2.68608">
        <ele>1629.57</ele>
        <time>2019-05-30T11:01:45Z</time>
      </trkpt>
      <trkpt lat="45.10375" lon="2.68593">
        <ele>1620.92</ele>
        <time>2019-05-30T11:03:31Z</time>
      </trkpt>
      <trkpt lat="45.10373" lon="2.6858">
        <ele>1619.48</ele>
        <time>2019-05-30T11:08:17Z</time>
      </trkpt>
      <trkpt lat="45.10378" lon="2.68567">
        <ele>1627.65</ele>
        <time>2019-05-30T11:11:02Z</time>
      </trkpt>
      <trkpt lat="45.10369" lon="2.68558">
        <ele>1632.94</ele>
        <time>2019-05-30T11:13:11Z</time>
      </trkpt>
      <trkpt lat="45.10385" lon="2.68532">
        <ele>1639.19</ele>
        <time>2019-05-30T11:14:12Z</time>
      </trkpt>
      <trkpt lat="45.10403" lon="2.68494">
        <ele>1639.67</ele>
        <time>2019-05-30T11:14:56Z</time>
      </trkpt>
      <trkpt lat="45.10411" lon="2.68452">
        <ele>1634.86</ele>
        <time>2019-05-30T11:15:37Z</time>
      </trkpt>
      <trkpt lat="45.10412" lon="2.68437">
        <ele>1632.94</ele>
        <time>2019-05-30T11:17:06Z</time>
      </trkpt>
      <trkpt lat="45.10434" lon="2.68405">
        <ele>1633.9</ele>
        <time>2019-05-30T11:17:38Z</time>
      </trkpt>
      <trkpt lat="45.1045" lon="2.6838">
        <ele>1630.53</ele>
        <time>2019-05-30T11:18:02Z</time>
      </trkpt>
      <trkpt lat="45.10467" lon="2.68356">
        <ele>1624.77</ele>
        <time>2019-05-30T11:18:39Z</time>
      </trkpt>
      <trkpt lat="45.10483" lon="2.68328">
        <ele>1618.52</ele>
        <time>2019-05-30T11:19:22Z</time>
      </trkpt>
      <trkpt lat="45.10508" lon="2.68286">
        <ele>1614.19</ele>
        <time>2019-05-30T11:20:11Z</time>
      </trkpt>
      <trkpt lat="45.10529" lon="2.68267">
        <ele>1617.07</ele>
        <time>2019-05-30T11:20:39Z</time>
      </trkpt>
      <trkpt lat="45.10548" lon="2.68249">
        <ele>1616.11</ele>
        <time>2019-05-30T11:21:08Z</time>
      </trkpt>
      <trkpt lat="45.10562" lon="2.68223">
        <ele>1610.35</ele>
        <time>2019-05-30T11:21:54Z</time>
      </trkpt>
      <trkpt lat="45.10584" lon="2.68202">
        <ele>1605.06</ele>
        <time>2019-05-30T11:22:45Z</time>
      </trkpt>
      <trkpt lat="45.10606" lon="2.68176">
        <ele>1604.58</ele>
        <time>2019-05-30T11:23:19Z</time>
      </trkpt>
      <trkpt lat="45.10628" lon="2.68155">
        <ele>1606.02</ele>
        <time>2019-05-30T11:23:53Z</time>
      </trkpt>
      <trkpt lat="45.10644" lon="2.68128">
        <ele>1604.58</ele>
        <time>2019-05-30T11:24:23Z</time>
      </trkpt>
      <trkpt lat="45.10657" lon="2.681">
        <ele>1602.66</ele>
        <time>2019-05-30T11:24:53Z</time>
      </trkpt>
      <trkpt lat="45.10662" lon="2.68087">
        <ele>1602.17</ele>
        <time>2019-05-30T11:31:56Z</time>
      </trkpt>
      <trkpt lat="45.10668" lon="2.68063">
        <ele>1607.46</ele>
        <time>2019-05-30T11:33:31Z</time>
      </trkpt>
      <trkpt lat="45.1068" lon="2.68028">
        <ele>1616.11</ele>
        <time>2019-05-30T11:34:01Z</time>
      </trkpt>
      <trkpt lat="45.10697" lon="2.68006">
        <ele>1624.28</ele>
        <time>2019-05-30T11:34:35Z</time>
      </trkpt>
      <trkpt lat="45.10716" lon="2.67977">
        <ele>1632.46</ele>
        <time>2019-05-30T11:35:11Z</time>
      </trkpt>
      <trkpt lat="45.10731" lon="2.6795">
        <ele>1638.22</ele>
        <time>2019-05-30T11:35:42Z</time>
      </trkpt>
      <trkpt lat="45.10744" lon="2.6793">
        <ele>1644.95</ele>
        <time>2019-05-30T11:36:21Z</time>
      </trkpt>
      <trkpt lat="45.10757" lon="2.67906">
        <ele>1655.05</ele>
        <time>2019-05-30T11:37:17Z</time>
      </trkpt>
      <trkpt lat="45.10778" lon="2.6789">
        <ele>1664.18</ele>
        <time>2019-05-30T11:37:55Z</time>
      </trkpt>
      <trkpt lat="45.1079" lon="2.67866">
        <ele>1672.83</ele>
        <time>2019-05-30T11:38:37Z</time>
      </trkpt>
      <trkpt lat="45.10806" lon="2.67844">
        <ele>1679.56</ele>
        <time>2019-05-30T11:39:14Z</time>
      </trkpt>
      <trkpt lat="45.10824" lon="2.67827">
        <ele>1689.65</ele>
        <time>2019-05-30T11:39:55Z</time>
      </trkpt>
      <trkpt lat="45.10835" lon="2.67813">
        <ele>1698.79</ele>
        <time>2019-05-30T11:40:43Z</time>
      </trkpt>
      <trkpt lat="45.10856" lon="2.67804">
        <ele>1706</ele>
        <time>2019-05-30T11:41:31Z</time>
      </trkpt>
      <trkpt lat="45.10874" lon="2.67781">
        <ele>1717.53</ele>
        <time>2019-05-30T11:42:20Z</time>
      </trkpt>
      <trkpt lat="45.10892" lon="2.67764">
        <ele>1731.95</ele>
        <time>2019-05-30T11:43:26Z</time>
      </trkpt>
      <trkpt lat="45.10906" lon="2.67742">
        <ele>1745.89</ele>
        <time>2019-05-30T11:44:40Z</time>
      </trkpt>
      <trkpt lat="45.10916" lon="2.67721">
        <ele>1755.5</ele>
        <time>2019-05-30T11:45:34Z</time>
      </trkpt>
      <trkpt lat="45.10922" lon="2.67679">
        <ele>1761.27</ele>
        <time>2019-05-30T11:46:25Z</time>
      </trkpt>
      <trkpt lat="45.1093" lon="2.67644">
        <ele>1769.44</ele>
        <time>2019-05-30T11:47:01Z</time>
      </trkpt>
      <trkpt lat="45.1093" lon="2.67611">
        <ele>1776.65</ele>
        <time>2019-05-30T11:47:51Z</time>
      </trkpt>
      <trkpt lat="45.10934" lon="2.67613">
        <ele>1775.69</ele>
        <time>2019-05-30T11:50:24Z</time>
      </trkpt>
      <trkpt lat="45.10938" lon="2.67584">
        <ele>1773.29</ele>
        <time>2019-05-30T11:52:18Z</time>
      </trkpt>
      <trkpt lat="45.1094" lon="2.67586">
        <ele>1773.29</ele>
        <time>2019-05-30T12:10:55Z</time>
      </trkpt>
      <trkpt lat="45.10946" lon="2.67568">
        <ele>1771.85</ele>
        <time>2019-05-30T12:12:11Z</time>
      </trkpt>
      <trkpt lat="45.10953" lon="2.67534">
        <ele>1762.71</ele>
        <time>2019-05-30T12:13:06Z</time>
      </trkpt>
      <trkpt lat="45.10937" lon="2.67514">
        <ele>1751.18</ele>
        <time>2019-05-30T12:13:50Z</time>
      </trkpt>
      <trkpt lat="45.10964" lon="2.67501">
        <ele>1742.53</ele>
        <time>2019-05-30T12:14:39Z</time>
      </trkpt>
      <trkpt lat="45.10988" lon="2.67491">
        <ele>1736.28</ele>
        <time>2019-05-30T12:15:15Z</time>
      </trkpt>
      <trkpt lat="45.11009" lon="2.67473">
        <ele>1719.46</ele>
        <time>2019-05-30T12:16:08Z</time>
      </trkpt>
      <trkpt lat="45.11032" lon="2.67456">
        <ele>1706.48</ele>
        <time>2019-05-30T12:16:58Z</time>
      </trkpt>
      <trkpt lat="45.11055" lon="2.67455">
        <ele>1699.27</ele>
        <time>2019-05-30T12:17:31Z</time>
      </trkpt>
      <trkpt lat="45.11067" lon="2.67431">
        <ele>1690.14</ele>
        <time>2019-05-30T12:18:10Z</time>
      </trkpt>
      <trkpt lat="45.11088" lon="2.67411">
        <ele>1679.08</ele>
        <time>2019-05-30T12:18:49Z</time>
      </trkpt>
      <trkpt lat="45.11107" lon="2.67388">
        <ele>1668.99</ele>
        <time>2019-05-30T12:19:35Z</time>
      </trkpt>
      <trkpt lat="45.11127" lon="2.67376">
        <ele>1660.81</ele>
        <time>2019-05-30T12:20:05Z</time>
      </trkpt>
      <trkpt lat="45.11156" lon="2.67356">
        <ele>1653.6</ele>
        <time>2019-05-30T12:20:40Z</time>
      </trkpt>
      <trkpt lat="45.11158" lon="2.67349">
        <ele>1653.12</ele>
        <time>2019-05-30T12:21:23Z</time>
      </trkpt>
      <trkpt lat="45.11171" lon="2.67327">
        <ele>1644.95</ele>
        <time>2019-05-30T12:22:04Z</time>
      </trkpt>
      <trkpt lat="45.11202" lon="2.67327">
        <ele>1635.82</ele>
        <time>2019-05-30T12:22:43Z</time>
      </trkpt>
      <trkpt lat="45.11227" lon="2.67309">
        <ele>1626.21</ele>
        <time>2019-05-30T12:23:25Z</time>
      </trkpt>
      <trkpt lat="45.11254" lon="2.67308">
        <ele>1623.8</ele>
        <time>2019-05-30T12:23:53Z</time>
      </trkpt>
      <trkpt lat="45.11269" lon="2.67275">
        <ele>1616.59</ele>
        <time>2019-05-30T12:24:27Z</time>
      </trkpt>
      <trkpt lat="45.1129" lon="2.67252">
        <ele>1608.42</ele>
        <time>2019-05-30T12:25:08Z</time>
      </trkpt>
      <trkpt lat="45.11317" lon="2.67241">
        <ele>1601.69</ele>
        <time>2019-05-30T12:25:38Z</time>
      </trkpt>
      <trkpt lat="45.11339" lon="2.67223">
        <ele>1595.93</ele>
        <time>2019-05-30T12:26:05Z</time>
      </trkpt>
      <trkpt lat="45.11363" lon="2.6721">
        <ele>1593.52</ele>
        <time>2019-05-30T12:26:29Z</time>
      </trkpt>
      <trkpt lat="45.11384" lon="2.67195">
        <ele>1586.79</ele>
        <time>2019-05-30T12:27:10Z</time>
      </trkpt>
      <trkpt lat="45.11402" lon="2.672">
        <ele>1583.43</ele>
        <time>2019-05-30T12:27:54Z</time>
      </trkpt>
      <trkpt lat="45.11407" lon="2.67209">
        <ele>1585.83</ele>
        <time>2019-05-30T12:31:32Z</time>
      </trkpt>
      <trkpt lat="45.11402" lon="2.67209">
        <ele>1583.91</ele>
        <time>2019-05-30T12:38:52Z</time>
      </trkpt>
      <trkpt lat="45.1138" lon="2.67235">
        <ele>1584.87</ele>
        <time>2019-05-30T12:40:57Z</time>
      </trkpt>
      <trkpt lat="45.11351" lon="2.67267">
        <ele>1581.51</ele>
        <time>2019-05-30T12:41:51Z</time>
      </trkpt>
      <trkpt lat="45.11329" lon="2.67308">
        <ele>1578.14</ele>
        <time>2019-05-30T12:42:28Z</time>
      </trkpt>
      <trkpt lat="45.11315" lon="2.67352">
        <ele>1574.78</ele>
        <time>2019-05-30T12:43:04Z</time>
      </trkpt>
      <trkpt lat="45.11297" lon="2.67395">
        <ele>1570.93</ele>
        <time>2019-05-30T12:43:42Z</time>
      </trkpt>
      <trkpt lat="45.11285" lon="2.67424">
        <ele>1569.01</ele>
        <time>2019-05-30T12:44:05Z</time>
      </trkpt>
      <trkpt lat="45.11266" lon="2.67477">
        <ele>1564.68</ele>
        <time>2019-05-30T12:44:45Z</time>
      </trkpt>
      <trkpt lat="45.11258" lon="2.67508">
        <ele>1561.8</ele>
        <time>2019-05-30T12:45:22Z</time>
      </trkpt>
      <trkpt lat="45.11251" lon="2.6754">
        <ele>1559.88</ele>
        <time>2019-05-30T12:45:45Z</time>
      </trkpt>
      <trkpt lat="45.11233" lon="2.67583">
        <ele>1556.51</ele>
        <time>2019-05-30T12:46:18Z</time>
      </trkpt>
      <trkpt lat="45.1122" lon="2.67609">
        <ele>1554.59</ele>
        <time>2019-05-30T12:46:41Z</time>
      </trkpt>
      <trkpt lat="45.11206" lon="2.67641">
        <ele>1552.19</ele>
        <time>2019-05-30T12:47:07Z</time>
      </trkpt>
      <trkpt lat="45.11199" lon="2.67663">
        <ele>1550.26</ele>
        <time>2019-05-30T12:48:19Z</time>
      </trkpt>
      <trkpt lat="45.11197" lon="2.67667">
        <ele>1547.86</ele>
        <time>2019-05-30T12:56:29Z</time>
      </trkpt>
      <trkpt lat="45.11188" lon="2.67705">
        <ele>1546.42</ele>
        <time>2019-05-30T13:00:01Z</time>
      </trkpt>
      <trkpt lat="45.11185" lon="2.67745">
        <ele>1543.05</ele>
        <time>2019-05-30T13:00:33Z</time>
      </trkpt>
      <trkpt lat="45.11184" lon="2.67777">
        <ele>1541.13</ele>
        <time>2019-05-30T13:00:55Z</time>
      </trkpt>
      <trkpt lat="45.11181" lon="2.67809">
        <ele>1538.73</ele>
        <time>2019-05-30T13:01:16Z</time>
      </trkpt>
      <trkpt lat="45.11179" lon="2.67856">
        <ele>1534.4</ele>
        <time>2019-05-30T13:01:48Z</time>
      </trkpt>
      <trkpt lat="45.11181" lon="2.67888">
        <ele>1532</ele>
        <time>2019-05-30T13:02:08Z</time>
      </trkpt>
      <trkpt lat="45.11193" lon="2.67923">
        <ele>1528.63</ele>
        <time>2019-05-30T13:02:35Z</time>
      </trkpt>
      <trkpt lat="45.11215" lon="2.67957">
        <ele>1525.27</ele>
        <time>2019-05-30T13:03:07Z</time>
      </trkpt>
      <trkpt lat="45.11219" lon="2.67994">
        <ele>1521.9</ele>
        <time>2019-05-30T13:03:37Z</time>
      </trkpt>
      <trkpt lat="45.11221" lon="2.68035">
        <ele>1519.02</ele>
        <time>2019-05-30T13:04:05Z</time>
      </trkpt>
      <trkpt lat="45.11201" lon="2.68083">
        <ele>1515.18</ele>
        <time>2019-05-30T13:04:42Z</time>
      </trkpt>
      <trkpt lat="45.11194" lon="2.68116">
        <ele>1512.77</ele>
        <time>2019-05-30T13:05:05Z</time>
      </trkpt>
      <trkpt lat="45.11198" lon="2.68165">
        <ele>1508.93</ele>
        <time>2019-05-30T13:05:37Z</time>
      </trkpt>
      <trkpt lat="45.11191" lon="2.68197">
        <ele>1506.52</ele>
        <time>2019-05-30T13:05:59Z</time>
      </trkpt>
      <trkpt lat="45.11162" lon="2.68207">
        <ele>1503.16</ele>
        <time>2019-05-30T13:06:26Z</time>
      </trkpt>
      <trkpt lat="45.11148" lon="2.68232">
        <ele>1500.76</ele>
        <time>2019-05-30T13:06:49Z</time>
      </trkpt>
      <trkpt lat="45.11154" lon="2.6827">
        <ele>1497.87</ele>
        <time>2019-05-30T13:07:19Z</time>
      </trkpt>
      <trkpt lat="45.11151" lon="2.68309">
        <ele>1494.99</ele>
        <time>2019-05-30T13:07:44Z</time>
      </trkpt>
      <trkpt lat="45.11138" lon="2.68352">
        <ele>1492.1</ele>
        <time>2019-05-30T13:08:14Z</time>
      </trkpt>
      <trkpt lat="45.11107" lon="2.68384">
        <ele>1487.78</ele>
        <time>2019-05-30T13:08:49Z</time>
      </trkpt>
      <trkpt lat="45.11084" lon="2.68391">
        <ele>1485.85</ele>
        <time>2019-05-30T13:09:11Z</time>
      </trkpt>
      <trkpt lat="45.11046" lon="2.68375">
        <ele>1481.05</ele>
        <time>2019-05-30T13:09:49Z</time>
      </trkpt>
      <trkpt lat="45.11011" lon="2.68344">
        <ele>1475.28</ele>
        <time>2019-05-30T13:10:40Z</time>
      </trkpt>
      <trkpt lat="45.11008" lon="2.68353">
        <ele>1466.15</ele>
        <time>2019-05-30T13:11:34Z</time>
      </trkpt>
      <trkpt lat="45.11024" lon="2.68387">
        <ele>1456.05</ele>
        <time>2019-05-30T13:12:22Z</time>
      </trkpt>
      <trkpt lat="45.11035" lon="2.68422">
        <ele>1448.36</ele>
        <time>2019-05-30T13:13:05Z</time>
      </trkpt>
      <trkpt lat="45.11061" lon="2.68448">
        <ele>1445</ele>
        <time>2019-05-30T13:13:42Z</time>
      </trkpt>
      <trkpt lat="45.1108" lon="2.68472">
        <ele>1442.11</ele>
        <time>2019-05-30T13:14:13Z</time>
      </trkpt>
      <trkpt lat="45.11085" lon="2.68515">
        <ele>1438.75</ele>
        <time>2019-05-30T13:14:46Z</time>
      </trkpt>
      <trkpt lat="45.11099" lon="2.6854">
        <ele>1435.39</ele>
        <time>2019-05-30T13:15:25Z</time>
      </trkpt>
      <trkpt lat="45.11123" lon="2.68563">
        <ele>1432.02</ele>
        <time>2019-05-30T13:15:52Z</time>
      </trkpt>
      <trkpt lat="45.1116" lon="2.68588">
        <ele>1427.7</ele>
        <time>2019-05-30T13:16:29Z</time>
      </trkpt>
      <trkpt lat="45.11199" lon="2.68611">
        <ele>1421.93</ele>
        <time>2019-05-30T13:17:06Z</time>
      </trkpt>
      <trkpt lat="45.11223" lon="2.68629">
        <ele>1419.52</ele>
        <time>2019-05-30T13:17:31Z</time>
      </trkpt>
      <trkpt lat="45.11245" lon="2.68638">
        <ele>1418.08</ele>
        <time>2019-05-30T13:17:53Z</time>
      </trkpt>
      <trkpt lat="45.11267" lon="2.68633">
        <ele>1416.16</ele>
        <time>2019-05-30T13:18:14Z</time>
      </trkpt>
      <trkpt lat="45.11291" lon="2.68632">
        <ele>1413.76</ele>
        <time>2019-05-30T13:18:35Z</time>
      </trkpt>
      <trkpt lat="45.11305" lon="2.68618">
        <ele>1413.76</ele>
        <time>2019-05-30T13:19:27Z</time>
      </trkpt>
      <trkpt lat="45.11333" lon="2.68603">
        <ele>1411.35</ele>
        <time>2019-05-30T13:19:58Z</time>
      </trkpt>
      <trkpt lat="45.11359" lon="2.68617">
        <ele>1406.07</ele>
        <time>2019-05-30T13:20:29Z</time>
      </trkpt>
      <trkpt lat="45.11384" lon="2.68624">
        <ele>1404.14</ele>
        <time>2019-05-30T13:20:54Z</time>
      </trkpt>
      <trkpt lat="45.11392" lon="2.68641">
        <ele>1403.18</ele>
        <time>2019-05-30T13:22:51Z</time>
      </trkpt>
      <trkpt lat="45.11398" lon="2.68666">
        <ele>1399.34</ele>
        <time>2019-05-30T13:25:47Z</time>
      </trkpt>
      <trkpt lat="45.11394" lon="2.68706">
        <ele>1396.93</ele>
        <time>2019-05-30T13:26:25Z</time>
      </trkpt>
      <trkpt lat="45.11409" lon="2.68732">
        <ele>1395.49</ele>
        <time>2019-05-30T13:26:49Z</time>
      </trkpt>
      <trkpt lat="45.11398" lon="2.68768">
        <ele>1392.61</ele>
        <time>2019-05-30T13:27:13Z</time>
      </trkpt>
      <trkpt lat="45.11411" lon="2.68829">
        <ele>1388.28</ele>
        <time>2019-05-30T13:27:49Z</time>
      </trkpt>
      <trkpt lat="45.11415" lon="2.68884">
        <ele>1382.99</ele>
        <time>2019-05-30T13:28:20Z</time>
      </trkpt>
      <trkpt lat="45.11445" lon="2.68913">
        <ele>1379.63</ele>
        <time>2019-05-30T13:28:55Z</time>
      </trkpt>
      <trkpt lat="45.1147" lon="2.68937">
        <ele>1379.15</ele>
        <time>2019-05-30T13:29:26Z</time>
      </trkpt>
      <trkpt lat="45.11499" lon="2.68969">
        <ele>1377.23</ele>
        <time>2019-05-30T13:30:02Z</time>
      </trkpt>
      <trkpt lat="45.11519" lon="2.68983">
        <ele>1376.75</ele>
        <time>2019-05-30T13:30:29Z</time>
      </trkpt>
      <trkpt lat="45.11557" lon="2.69001">
        <ele>1376.26</ele>
        <time>2019-05-30T13:31:10Z</time>
      </trkpt>
      <trkpt lat="45.1158" lon="2.69009">
        <ele>1374.82</ele>
        <time>2019-05-30T13:31:36Z</time>
      </trkpt>
      <trkpt lat="45.116" lon="2.69035">
        <ele>1373.38</ele>
        <time>2019-05-30T13:32:04Z</time>
      </trkpt>
      <trkpt lat="45.11629" lon="2.69077">
        <ele>1374.82</ele>
        <time>2019-05-30T13:32:39Z</time>
      </trkpt>
      <trkpt lat="45.11657" lon="2.69094">
        <ele>1375.3</ele>
        <time>2019-05-30T13:33:14Z</time>
      </trkpt>
      <trkpt lat="45.11685" lon="2.69104">
        <ele>1375.78</ele>
        <time>2019-05-30T13:33:42Z</time>
      </trkpt>
      <trkpt lat="45.11713" lon="2.69128">
        <ele>1375.78</ele>
        <time>2019-05-30T13:34:15Z</time>
      </trkpt>
      <trkpt lat="45.11736" lon="2.69147">
        <ele>1376.75</ele>
        <time>2019-05-30T13:34:41Z</time>
      </trkpt>
      <trkpt lat="45.11772" lon="2.69171">
        <ele>1377.23</ele>
        <time>2019-05-30T13:35:17Z</time>
      </trkpt>
      <trkpt lat="45.11804" lon="2.69202">
        <ele>1374.82</ele>
        <time>2019-05-30T13:35:50Z</time>
      </trkpt>
      <trkpt lat="45.11841" lon="2.69224">
        <ele>1373.38</ele>
        <time>2019-05-30T13:36:27Z</time>
      </trkpt>
      <trkpt lat="45.11873" lon="2.69239">
        <ele>1373.38</ele>
        <time>2019-05-30T13:36:58Z</time>
      </trkpt>
      <trkpt lat="45.11912" lon="2.69283">
        <ele>1370.98</ele>
        <time>2019-05-30T13:37:42Z</time>
      </trkpt>
      <trkpt lat="45.1195" lon="2.69306">
        <ele>1370.02</ele>
        <time>2019-05-30T13:38:19Z</time>
      </trkpt>
      <trkpt lat="45.11973" lon="2.69313">
        <ele>1371.46</ele>
        <time>2019-05-30T13:38:42Z</time>
      </trkpt>
      <trkpt lat="45.11996" lon="2.69321">
        <ele>1373.38</ele>
        <time>2019-05-30T13:39:05Z</time>
      </trkpt>
      <trkpt lat="45.12027" lon="2.69327">
        <ele>1375.3</ele>
        <time>2019-05-30T13:39:36Z</time>
      </trkpt>
      <trkpt lat="45.12062" lon="2.69327">
        <ele>1376.26</ele>
        <time>2019-05-30T13:40:09Z</time>
      </trkpt>
      <trkpt lat="45.12092" lon="2.69328">
        <ele>1378.19</ele>
        <time>2019-05-30T13:40:41Z</time>
      </trkpt>
      <trkpt lat="45.12123" lon="2.69334">
        <ele>1379.15</ele>
        <time>2019-05-30T13:41:12Z</time>
      </trkpt>
      <trkpt lat="45.1215" lon="2.6935">
        <ele>1379.15</ele>
        <time>2019-05-30T13:41:41Z</time>
      </trkpt>
      <trkpt lat="45.12169" lon="2.69369">
        <ele>1380.59</ele>
        <time>2019-05-30T13:42:05Z</time>
      </trkpt>
      <trkpt lat="45.12183" lon="2.69395">
        <ele>1381.07</ele>
        <time>2019-05-30T13:42:28Z</time>
      </trkpt>
      <trkpt lat="45.12208" lon="2.69416">
        <ele>1382.99</ele>
        <time>2019-05-30T13:42:55Z</time>
      </trkpt>
      <trkpt lat="45.12235" lon="2.69431">
        <ele>1381.55</ele>
        <time>2019-05-30T13:43:25Z</time>
      </trkpt>
      <trkpt lat="45.12275" lon="2.69435">
        <ele>1382.99</ele>
        <time>2019-05-30T13:44:01Z</time>
      </trkpt>
      <trkpt lat="45.12311" lon="2.6944">
        <ele>1383.47</ele>
        <time>2019-05-30T13:44:34Z</time>
      </trkpt>
      <trkpt lat="45.12339" lon="2.69451">
        <ele>1383.96</ele>
        <time>2019-05-30T13:45:01Z</time>
      </trkpt>
      <trkpt lat="45.12365" lon="2.69459">
        <ele>1382.03</ele>
        <time>2019-05-30T13:45:26Z</time>
      </trkpt>
      <trkpt lat="45.12399" lon="2.69471">
        <ele>1381.55</ele>
        <time>2019-05-30T13:45:56Z</time>
      </trkpt>
      <trkpt lat="45.12432" lon="2.69496">
        <ele>1382.51</ele>
        <time>2019-05-30T13:46:31Z</time>
      </trkpt>
      <trkpt lat="45.12458" lon="2.69523">
        <ele>1383.96</ele>
        <time>2019-05-30T13:47:00Z</time>
      </trkpt>
      <trkpt lat="45.12478" lon="2.69563">
        <ele>1380.59</ele>
        <time>2019-05-30T13:47:30Z</time>
      </trkpt>
      <trkpt lat="45.12496" lon="2.69599">
        <ele>1377.71</ele>
        <time>2019-05-30T13:47:59Z</time>
      </trkpt>
      <trkpt lat="45.12526" lon="2.69645">
        <ele>1375.78</ele>
        <time>2019-05-30T13:48:35Z</time>
      </trkpt>
      <trkpt lat="45.12544" lon="2.69674">
        <ele>1372.42</ele>
        <time>2019-05-30T13:49:00Z</time>
      </trkpt>
      <trkpt lat="45.1257" lon="2.6971">
        <ele>1365.69</ele>
        <time>2019-05-30T13:49:34Z</time>
      </trkpt>
      <trkpt lat="45.12596" lon="2.69757">
        <ele>1361.36</ele>
        <time>2019-05-30T13:50:15Z</time>
      </trkpt>
      <trkpt lat="45.1262" lon="2.69785">
        <ele>1357.52</ele>
        <time>2019-05-30T13:50:44Z</time>
      </trkpt>
      <trkpt lat="45.12638" lon="2.69805">
        <ele>1356.08</ele>
        <time>2019-05-30T13:51:04Z</time>
      </trkpt>
      <trkpt lat="45.12671" lon="2.69841">
        <ele>1354.15</ele>
        <time>2019-05-30T13:51:39Z</time>
      </trkpt>
      <trkpt lat="45.12707" lon="2.6987">
        <ele>1356.08</ele>
        <time>2019-05-30T13:52:15Z</time>
      </trkpt>
      <trkpt lat="45.12734" lon="2.69892">
        <ele>1358</ele>
        <time>2019-05-30T13:52:42Z</time>
      </trkpt>
      <trkpt lat="45.12766" lon="2.69923">
        <ele>1358.96</ele>
        <time>2019-05-30T13:53:15Z</time>
      </trkpt>
      <trkpt lat="45.12791" lon="2.6996">
        <ele>1356.08</ele>
        <time>2019-05-30T13:53:44Z</time>
      </trkpt>
      <trkpt lat="45.12811" lon="2.69984">
        <ele>1354.63</ele>
        <time>2019-05-30T13:54:04Z</time>
      </trkpt>
      <trkpt lat="45.12847" lon="2.70013">
        <ele>1351.75</ele>
        <time>2019-05-30T13:54:39Z</time>
      </trkpt>
      <trkpt lat="45.12883" lon="2.70032">
        <ele>1349.35</ele>
        <time>2019-05-30T13:55:13Z</time>
      </trkpt>
      <trkpt lat="45.1292" lon="2.70048">
        <ele>1346.94</ele>
        <time>2019-05-30T13:55:47Z</time>
      </trkpt>
      <trkpt lat="45.12954" lon="2.70077">
        <ele>1345.5</ele>
        <time>2019-05-30T13:56:20Z</time>
      </trkpt>
      <trkpt lat="45.12972" lon="2.70095">
        <ele>1345.02</ele>
        <time>2019-05-30T13:56:40Z</time>
      </trkpt>
      <trkpt lat="45.12986" lon="2.7012">
        <ele>1342.14</ele>
        <time>2019-05-30T13:57:02Z</time>
      </trkpt>
      <trkpt lat="45.13012" lon="2.70136">
        <ele>1339.25</ele>
        <time>2019-05-30T13:57:45Z</time>
      </trkpt>
      <trkpt lat="45.13043" lon="2.70146">
        <ele>1335.41</ele>
        <time>2019-05-30T13:58:17Z</time>
      </trkpt>
      <trkpt lat="45.13056" lon="2.70187">
        <ele>1333.97</ele>
        <time>2019-05-30T13:58:56Z</time>
      </trkpt>
      <trkpt lat="45.13053" lon="2.70237">
        <ele>1333.49</ele>
        <time>2019-05-30T13:59:31Z</time>
      </trkpt>
      <trkpt lat="45.13047" lon="2.70266">
        <ele>1333.01</ele>
        <time>2019-05-30T14:00:01Z</time>
      </trkpt>
      <trkpt lat="45.13063" lon="2.70307">
        <ele>1332.52</ele>
        <time>2019-05-30T14:00:37Z</time>
      </trkpt>
      <trkpt lat="45.13084" lon="2.70338">
        <ele>1334.45</ele>
        <time>2019-05-30T14:01:05Z</time>
      </trkpt>
      <trkpt lat="45.13108" lon="2.70362">
        <ele>1335.89</ele>
        <time>2019-05-30T14:01:35Z</time>
      </trkpt>
      <trkpt lat="45.13132" lon="2.7039">
        <ele>1333.49</ele>
        <time>2019-05-30T14:02:06Z</time>
      </trkpt>
      <trkpt lat="45.13151" lon="2.70413">
        <ele>1334.45</ele>
        <time>2019-05-30T14:02:48Z</time>
      </trkpt>
      <trkpt lat="45.13161" lon="2.7045">
        <ele>1335.89</ele>
        <time>2019-05-30T14:03:19Z</time>
      </trkpt>
      <trkpt lat="45.13179" lon="2.70484">
        <ele>1340.7</ele>
        <time>2019-05-30T14:03:58Z</time>
      </trkpt>
      <trkpt lat="45.13202" lon="2.70521">
        <ele>1342.14</ele>
        <time>2019-05-30T14:04:35Z</time>
      </trkpt>
      <trkpt lat="45.13221" lon="2.70557">
        <ele>1344.54</ele>
        <time>2019-05-30T14:05:10Z</time>
      </trkpt>
      <trkpt lat="45.13238" lon="2.7058">
        <ele>1347.43</ele>
        <time>2019-05-30T14:05:37Z</time>
      </trkpt>
      <trkpt lat="45.13261" lon="2.7062">
        <ele>1351.75</ele>
        <time>2019-05-30T14:06:35Z</time>
      </trkpt>
      <trkpt lat="45.13282" lon="2.70639">
        <ele>1355.6</ele>
        <time>2019-05-30T14:07:04Z</time>
      </trkpt>
      <trkpt lat="45.13306" lon="2.70661">
        <ele>1359.44</ele>
        <time>2019-05-30T14:07:37Z</time>
      </trkpt>
      <trkpt lat="45.13329" lon="2.70677">
        <ele>1362.81</ele>
        <time>2019-05-30T14:08:34Z</time>
      </trkpt>
      <trkpt lat="45.13354" lon="2.70693">
        <ele>1364.25</ele>
        <time>2019-05-30T14:09:10Z</time>
      </trkpt>
      <trkpt lat="45.13376" lon="2.70701">
        <ele>1364.73</ele>
        <time>2019-05-30T14:09:40Z</time>
      </trkpt>
      <trkpt lat="45.13406" lon="2.70703">
        <ele>1361.84</ele>
        <time>2019-05-30T14:10:11Z</time>
      </trkpt>
      <trkpt lat="45.13431" lon="2.70727">
        <ele>1359.44</ele>
        <time>2019-05-30T14:10:41Z</time>
      </trkpt>
      <trkpt lat="45.13448" lon="2.70751">
        <ele>1356.56</ele>
        <time>2019-05-30T14:11:07Z</time>
      </trkpt>
      <trkpt lat="45.13483" lon="2.70753">
        <ele>1357.04</ele>
        <time>2019-05-30T14:11:48Z</time>
      </trkpt>
      <trkpt lat="45.13503" lon="2.70772">
        <ele>1356.56</ele>
        <time>2019-05-30T14:12:11Z</time>
      </trkpt>
      <trkpt lat="45.13527" lon="2.70781">
        <ele>1353.67</ele>
        <time>2019-05-30T14:12:40Z</time>
      </trkpt>
      <trkpt lat="45.13559" lon="2.708">
        <ele>1351.27</ele>
        <time>2019-05-30T14:13:15Z</time>
      </trkpt>
      <trkpt lat="45.13586" lon="2.70812">
        <ele>1349.83</ele>
        <time>2019-05-30T14:13:50Z</time>
      </trkpt>
      <trkpt lat="45.13613" lon="2.70819">
        <ele>1348.87</ele>
        <time>2019-05-30T14:14:15Z</time>
      </trkpt>
      <trkpt lat="45.13638" lon="2.70848">
        <ele>1346.46</ele>
        <time>2019-05-30T14:14:45Z</time>
      </trkpt>
      <trkpt lat="45.13666" lon="2.70852">
        <ele>1342.14</ele>
        <time>2019-05-30T14:15:30Z</time>
      </trkpt>
      <trkpt lat="45.13693" lon="2.7085">
        <ele>1341.18</ele>
        <time>2019-05-30T14:15:51Z</time>
      </trkpt>
      <trkpt lat="45.13725" lon="2.70848">
        <ele>1338.77</ele>
        <time>2019-05-30T14:16:18Z</time>
      </trkpt>
      <trkpt lat="45.13743" lon="2.70864">
        <ele>1335.89</ele>
        <time>2019-05-30T14:16:42Z</time>
      </trkpt>
      <trkpt lat="45.13754" lon="2.70906">
        <ele>1332.04</ele>
        <time>2019-05-30T14:17:18Z</time>
      </trkpt>
      <trkpt lat="45.13765" lon="2.7095">
        <ele>1329.64</ele>
        <time>2019-05-30T14:17:54Z</time>
      </trkpt>
      <trkpt lat="45.13772" lon="2.70983">
        <ele>1329.64</ele>
        <time>2019-05-30T14:18:20Z</time>
      </trkpt>
      <trkpt lat="45.13789" lon="2.71009">
        <ele>1329.64</ele>
        <time>2019-05-30T14:18:49Z</time>
      </trkpt>
      <trkpt lat="45.138" lon="2.71044">
        <ele>1330.6</ele>
        <time>2019-05-30T14:19:18Z</time>
      </trkpt>
      <trkpt lat="45.13809" lon="2.71084">
        <ele>1332.04</ele>
        <time>2019-05-30T14:19:46Z</time>
      </trkpt>
      <trkpt lat="45.13829" lon="2.71117">
        <ele>1335.41</ele>
        <time>2019-05-30T14:20:26Z</time>
      </trkpt>
      <trkpt lat="45.13842" lon="2.71155">
        <ele>1339.25</ele>
        <time>2019-05-30T14:21:07Z</time>
      </trkpt>
      <trkpt lat="45.1386" lon="2.71185">
        <ele>1343.1</ele>
        <time>2019-05-30T14:21:48Z</time>
      </trkpt>
      <trkpt lat="45.13879" lon="2.71219">
        <ele>1347.43</ele>
        <time>2019-05-30T14:22:29Z</time>
      </trkpt>
      <trkpt lat="45.13884" lon="2.71257">
        <ele>1350.79</ele>
        <time>2019-05-30T14:23:03Z</time>
      </trkpt>
      <trkpt lat="45.13891" lon="2.71285">
        <ele>1354.63</ele>
        <time>2019-05-30T14:23:40Z</time>
      </trkpt>
      <trkpt lat="45.13919" lon="2.71306">
        <ele>1358.48</ele>
        <time>2019-05-30T14:24:21Z</time>
      </trkpt>
      <trkpt lat="45.13942" lon="2.71316">
        <ele>1361.84</ele>
        <time>2019-05-30T14:24:53Z</time>
      </trkpt>
      <trkpt lat="45.13964" lon="2.71316">
        <ele>1364.73</ele>
        <time>2019-05-30T14:25:21Z</time>
      </trkpt>
      <trkpt lat="45.13988" lon="2.71304">
        <ele>1366.65</ele>
        <time>2019-05-30T14:25:48Z</time>
      </trkpt>
      <trkpt lat="45.14011" lon="2.71294">
        <ele>1367.61</ele>
        <time>2019-05-30T14:26:12Z</time>
      </trkpt>
      <trkpt lat="45.14039" lon="2.71263">
        <ele>1368.09</ele>
        <time>2019-05-30T14:26:43Z</time>
      </trkpt>
      <trkpt lat="45.14066" lon="2.71257">
        <ele>1368.57</ele>
        <time>2019-05-30T14:27:13Z</time>
      </trkpt>
      <trkpt lat="45.14101" lon="2.7126">
        <ele>1365.69</ele>
        <time>2019-05-30T14:27:48Z</time>
      </trkpt>
      <trkpt lat="45.14125" lon="2.71251">
        <ele>1363.77</ele>
        <time>2019-05-30T14:28:15Z</time>
      </trkpt>
      <trkpt lat="45.14149" lon="2.7124">
        <ele>1362.33</ele>
        <time>2019-05-30T14:28:33Z</time>
      </trkpt>
      <trkpt lat="45.14171" lon="2.71263">
        <ele>1360.88</ele>
        <time>2019-05-30T14:29:03Z</time>
      </trkpt>
      <trkpt lat="45.14187" lon="2.71302">
        <ele>1362.81</ele>
        <time>2019-05-30T14:29:38Z</time>
      </trkpt>
      <trkpt lat="45.14201" lon="2.71329">
        <ele>1365.21</ele>
        <time>2019-05-30T14:30:07Z</time>
      </trkpt>
      <trkpt lat="45.14203" lon="2.71375">
        <ele>1368.09</ele>
        <time>2019-05-30T14:30:45Z</time>
      </trkpt>
      <trkpt lat="45.14185" lon="2.71412">
        <ele>1370.5</ele>
        <time>2019-05-30T14:31:23Z</time>
      </trkpt>
      <trkpt lat="45.14171" lon="2.71438">
        <ele>1372.9</ele>
        <time>2019-05-30T14:31:50Z</time>
      </trkpt>
      <trkpt lat="45.1416" lon="2.71467">
        <ele>1375.3</ele>
        <time>2019-05-30T14:32:17Z</time>
      </trkpt>
      <trkpt lat="45.14159" lon="2.715">
        <ele>1377.23</ele>
        <time>2019-05-30T14:32:45Z</time>
      </trkpt>
      <trkpt lat="45.14155" lon="2.71547">
        <ele>1380.59</ele>
        <time>2019-05-30T14:33:25Z</time>
      </trkpt>
      <trkpt lat="45.14153" lon="2.71584">
        <ele>1381.55</ele>
        <time>2019-05-30T14:33:52Z</time>
      </trkpt>
      <trkpt lat="45.14179" lon="2.71611">
        <ele>1379.63</ele>
        <time>2019-05-30T14:34:35Z</time>
      </trkpt>
      <trkpt lat="45.14204" lon="2.71628">
        <ele>1376.75</ele>
        <time>2019-05-30T14:35:02Z</time>
      </trkpt>
      <trkpt lat="45.14223" lon="2.71653">
        <ele>1372.42</ele>
        <time>2019-05-30T14:35:27Z</time>
      </trkpt>
      <trkpt lat="45.14236" lon="2.71691">
        <ele>1369.54</ele>
        <time>2019-05-30T14:35:55Z</time>
      </trkpt>
      <trkpt lat="45.14241" lon="2.71727">
        <ele>1367.13</ele>
        <time>2019-05-30T14:36:19Z</time>
      </trkpt>
      <trkpt lat="45.14244" lon="2.71766">
        <ele>1363.77</ele>
        <time>2019-05-30T14:36:45Z</time>
      </trkpt>
      <trkpt lat="45.14245" lon="2.71811">
        <ele>1360.4</ele>
        <time>2019-05-30T14:37:16Z</time>
      </trkpt>
      <trkpt lat="45.14241" lon="2.71825">
        <ele>1359.44</ele>
        <time>2019-05-30T14:39:45Z</time>
      </trkpt>
      <trkpt lat="45.14255" lon="2.71786">
        <ele>1356.56</ele>
        <time>2019-05-30T14:40:42Z</time>
      </trkpt>
      <trkpt lat="45.14264" lon="2.71753">
        <ele>1353.67</ele>
        <time>2019-05-30T14:41:11Z</time>
      </trkpt>
      <trkpt lat="45.14276" lon="2.71723">
        <ele>1350.31</ele>
        <time>2019-05-30T14:41:38Z</time>
      </trkpt>
      <trkpt lat="45.14285" lon="2.71694">
        <ele>1347.91</ele>
        <time>2019-05-30T14:42:03Z</time>
      </trkpt>
      <trkpt lat="45.14294" lon="2.71659">
        <ele>1344.06</ele>
        <time>2019-05-30T14:42:29Z</time>
      </trkpt>
      <trkpt lat="45.14291" lon="2.71626">
        <ele>1341.18</ele>
        <time>2019-05-30T14:42:59Z</time>
      </trkpt>
      <trkpt lat="45.14277" lon="2.71578">
        <ele>1336.85</ele>
        <time>2019-05-30T14:43:41Z</time>
      </trkpt>
      <trkpt lat="45.14265" lon="2.71542">
        <ele>1335.41</ele>
        <time>2019-05-30T14:44:05Z</time>
      </trkpt>
      <trkpt lat="45.14252" lon="2.71503">
        <ele>1332.04</ele>
        <time>2019-05-30T14:44:40Z</time>
      </trkpt>
      <trkpt lat="45.14261" lon="2.71461">
        <ele>1329.64</ele>
        <time>2019-05-30T14:45:06Z</time>
      </trkpt>
      <trkpt lat="45.14271" lon="2.71425">
        <ele>1328.68</ele>
        <time>2019-05-30T14:45:33Z</time>
      </trkpt>
      <trkpt lat="45.14287" lon="2.71383">
        <ele>1328.68</ele>
        <time>2019-05-30T14:46:02Z</time>
      </trkpt>
      <trkpt lat="45.143" lon="2.71358">
        <ele>1328.68</ele>
        <time>2019-05-30T14:46:24Z</time>
      </trkpt>
      <trkpt lat="45.14314" lon="2.7133">
        <ele>1325.8</ele>
        <time>2019-05-30T14:46:50Z</time>
      </trkpt>
      <trkpt lat="45.14316" lon="2.71288">
        <ele>1321.47</ele>
        <time>2019-05-30T14:47:24Z</time>
      </trkpt>
      <trkpt lat="45.14302" lon="2.71258">
        <ele>1317.14</ele>
        <time>2019-05-30T14:47:53Z</time>
      </trkpt>
      <trkpt lat="45.14287" lon="2.71229">
        <ele>1314.74</ele>
        <time>2019-05-30T14:48:19Z</time>
      </trkpt>
      <trkpt lat="45.14271" lon="2.71199">
        <ele>1311.86</ele>
        <time>2019-05-30T14:48:46Z</time>
      </trkpt>
      <trkpt lat="45.14274" lon="2.71166">
        <ele>1308.49</ele>
        <time>2019-05-30T14:49:12Z</time>
      </trkpt>
      <trkpt lat="45.14289" lon="2.71127">
        <ele>1306.57</ele>
        <time>2019-05-30T14:49:42Z</time>
      </trkpt>
      <trkpt lat="45.14307" lon="2.71098">
        <ele>1302.24</ele>
        <time>2019-05-30T14:50:10Z</time>
      </trkpt>
      <trkpt lat="45.14328" lon="2.71071">
        <ele>1298.88</ele>
        <time>2019-05-30T14:50:37Z</time>
      </trkpt>
      <trkpt lat="45.14339" lon="2.71077">
        <ele>1297.44</ele>
        <time>2019-05-30T14:51:18Z</time>
      </trkpt>
      <trkpt lat="45.14329" lon="2.71124">
        <ele>1293.11</ele>
        <time>2019-05-30T14:52:13Z</time>
      </trkpt>
      <trkpt lat="45.14336" lon="2.71154">
        <ele>1291.67</ele>
        <time>2019-05-30T14:52:42Z</time>
      </trkpt>
      <trkpt lat="45.1436" lon="2.71178">
        <ele>1285.9</ele>
        <time>2019-05-30T14:53:17Z</time>
      </trkpt>
      <trkpt lat="45.14386" lon="2.71204">
        <ele>1282.54</ele>
        <time>2019-05-30T14:53:49Z</time>
      </trkpt>
      <trkpt lat="45.14417" lon="2.71236">
        <ele>1276.77</ele>
        <time>2019-05-30T14:54:23Z</time>
      </trkpt>
      <trkpt lat="45.14432" lon="2.71279">
        <ele>1272.92</ele>
        <time>2019-05-30T14:54:51Z</time>
      </trkpt>
      <trkpt lat="45.14434" lon="2.71318">
        <ele>1269.56</ele>
        <time>2019-05-30T14:55:16Z</time>
      </trkpt>
      <trkpt lat="45.14427" lon="2.71359">
        <ele>1265.23</ele>
        <time>2019-05-30T14:55:47Z</time>
      </trkpt>
      <trkpt lat="45.14443" lon="2.7139">
        <ele>1259.94</ele>
        <time>2019-05-30T14:56:29Z</time>
      </trkpt>
      <trkpt lat="45.14467" lon="2.71395">
        <ele>1257.06</ele>
        <time>2019-05-30T14:56:58Z</time>
      </trkpt>
      <trkpt lat="45.14492" lon="2.71427">
        <ele>1250.33</ele>
        <time>2019-05-30T14:57:32Z</time>
      </trkpt>
      <trkpt lat="45.14503" lon="2.71459">
        <ele>1247.45</ele>
        <time>2019-05-30T14:57:57Z</time>
      </trkpt>
      <trkpt lat="45.14518" lon="2.71497">
        <ele>1246.01</ele>
        <time>2019-05-30T14:58:28Z</time>
      </trkpt>
      <trkpt lat="45.14539" lon="2.71481">
        <ele>1244.56</ele>
        <time>2019-05-30T14:59:01Z</time>
      </trkpt>
      <trkpt lat="45.1455" lon="2.71454">
        <ele>1245.04</ele>
        <time>2019-05-30T14:59:21Z</time>
      </trkpt>
      <trkpt lat="45.14576" lon="2.71434">
        <ele>1244.08</ele>
        <time>2019-05-30T14:59:48Z</time>
      </trkpt>
      <trkpt lat="45.14607" lon="2.71402">
        <ele>1242.16</ele>
        <time>2019-05-30T15:00:13Z</time>
      </trkpt>
      <trkpt lat="45.14636" lon="2.7141">
        <ele>1240.72</ele>
        <time>2019-05-30T15:00:42Z</time>
      </trkpt>
      <trkpt lat="45.14671" lon="2.71381">
        <ele>1238.32</ele>
        <time>2019-05-30T15:01:21Z</time>
      </trkpt>
      <trkpt lat="45.14688" lon="2.7135">
        <ele>1235.91</ele>
        <time>2019-05-30T15:01:43Z</time>
      </trkpt>
      <trkpt lat="45.14706" lon="2.71309">
        <ele>1232.07</ele>
        <time>2019-05-30T15:02:12Z</time>
      </trkpt>
      <trkpt lat="45.14723" lon="2.71265">
        <ele>1227.26</ele>
        <time>2019-05-30T15:02:50Z</time>
      </trkpt>
      <trkpt lat="45.14748" lon="2.71222">
        <ele>1224.38</ele>
        <time>2019-05-30T15:03:18Z</time>
      </trkpt>
      <trkpt lat="45.14779" lon="2.71215">
        <ele>1221.49</ele>
        <time>2019-05-30T15:03:46Z</time>
      </trkpt>
      <trkpt lat="45.14817" lon="2.71217">
        <ele>1216.69</ele>
        <time>2019-05-30T15:04:22Z</time>
      </trkpt>
      <trkpt lat="45.14839" lon="2.71218">
        <ele>1213.8</ele>
        <time>2019-05-30T15:04:43Z</time>
      </trkpt>
      <trkpt lat="45.14866" lon="2.7122">
        <ele>1210.44</ele>
        <time>2019-05-30T15:05:08Z</time>
      </trkpt>
      <trkpt lat="45.14888" lon="2.71226">
        <ele>1207.07</ele>
        <time>2019-05-30T15:05:29Z</time>
      </trkpt>
      <trkpt lat="45.14913" lon="2.71224">
        <ele>1203.23</ele>
        <time>2019-05-30T15:05:52Z</time>
      </trkpt>
      <trkpt lat="45.14941" lon="2.71218">
        <ele>1197.94</ele>
        <time>2019-05-30T15:06:20Z</time>
      </trkpt>
      <trkpt lat="45.14975" lon="2.71217">
        <ele>1191.69</ele>
        <time>2019-05-30T15:06:52Z</time>
      </trkpt>
      <trkpt lat="45.15006" lon="2.71219">
        <ele>1188.33</ele>
        <time>2019-05-30T15:07:22Z</time>
      </trkpt>
      <trkpt lat="45.15032" lon="2.71223">
        <ele>1184.48</ele>
        <time>2019-05-30T15:07:45Z</time>
      </trkpt>
      <trkpt lat="45.15066" lon="2.71225">
        <ele>1180.64</ele>
        <time>2019-05-30T15:08:16Z</time>
      </trkpt>
      <trkpt lat="45.15104" lon="2.71234">
        <ele>1177.27</ele>
        <time>2019-05-30T15:08:51Z</time>
      </trkpt>
      <trkpt lat="45.15135" lon="2.71236">
        <ele>1173.43</ele>
        <time>2019-05-30T15:09:20Z</time>
      </trkpt>
      <trkpt lat="45.1516" lon="2.71242">
        <ele>1170.54</ele>
        <time>2019-05-30T15:09:44Z</time>
      </trkpt>
      <trkpt lat="45.15184" lon="2.71249">
        <ele>1166.7</ele>
        <time>2019-05-30T15:10:11Z</time>
      </trkpt>
      <trkpt lat="45.15202" lon="2.71271">
        <ele>1164.77</ele>
        <time>2019-05-30T15:10:39Z</time>
      </trkpt>
      <trkpt lat="45.15193" lon="2.7124">
        <ele>1159.97</ele>
        <time>2019-05-30T15:12:03Z</time>
      </trkpt>
      <trkpt lat="45.15167" lon="2.71204">
        <ele>1156.12</ele>
        <time>2019-05-30T15:12:39Z</time>
      </trkpt>
      <trkpt lat="45.15139" lon="2.71168">
        <ele>1150.35</ele>
        <time>2019-05-30T15:13:16Z</time>
      </trkpt>
      <trkpt lat="45.15107" lon="2.71134">
        <ele>1144.11</ele>
        <time>2019-05-30T15:13:54Z</time>
      </trkpt>
      <trkpt lat="45.15071" lon="2.71112">
        <ele>1136.9</ele>
        <time>2019-05-30T15:14:32Z</time>
      </trkpt>
      <trkpt lat="45.15074" lon="2.71082">
        <ele>1129.21</ele>
        <time>2019-05-30T15:15:12Z</time>
      </trkpt>
      <trkpt lat="45.15106" lon="2.71073">
        <ele>1125.84</ele>
        <time>2019-05-30T15:15:42Z</time>
      </trkpt>
      <trkpt lat="45.15086" lon="2.71067">
        <ele>1123.92</ele>
        <time>2019-05-30T15:16:17Z</time>
      </trkpt>
      <trkpt lat="45.15065" lon="2.71057">
        <ele>1125.36</ele>
        <time>2019-05-30T15:17:33Z</time>
      </trkpt>
      <trkpt lat="45.1507" lon="2.71049">
        <ele>1123.44</ele>
        <time>2019-05-30T15:19:52Z</time>
      </trkpt>
      <trkpt lat="45.151" lon="2.71059">
        <ele>1122</ele>
        <time>2019-05-30T15:20:18Z</time>
      </trkpt>
      <trkpt lat="45.15132" lon="2.71062">
        <ele>1121.52</ele>
        <time>2019-05-30T15:20:50Z</time>
      </trkpt>
      <trkpt lat="45.15172" lon="2.71062">
        <ele>1117.67</ele>
        <time>2019-05-30T15:21:28Z</time>
      </trkpt>
      <trkpt lat="45.15212" lon="2.71059">
        <ele>1113.34</ele>
        <time>2019-05-30T15:22:04Z</time>
      </trkpt>
      <trkpt lat="45.15236" lon="2.71066">
        <ele>1111.9</ele>
        <time>2019-05-30T15:22:25Z</time>
      </trkpt>
      <trkpt lat="45.1526" lon="2.71074">
        <ele>1110.46</ele>
        <time>2019-05-30T15:22:46Z</time>
      </trkpt>
      <trkpt lat="45.15304" lon="2.71089">
        <ele>1110.46</ele>
        <time>2019-05-30T15:23:25Z</time>
      </trkpt>
      <trkpt lat="45.15333" lon="2.711">
        <ele>1109.98</ele>
        <time>2019-05-30T15:23:51Z</time>
      </trkpt>
      <trkpt lat="45.15356" lon="2.71107">
        <ele>1110.94</ele>
        <time>2019-05-30T15:24:14Z</time>
      </trkpt>
      <trkpt lat="45.15384" lon="2.71105">
        <ele>1111.9</ele>
        <time>2019-05-30T15:24:45Z</time>
      </trkpt>
      <trkpt lat="45.1543" lon="2.71091">
        <ele>1111.9</ele>
        <time>2019-05-30T15:25:24Z</time>
      </trkpt>
      <trkpt lat="45.15454" lon="2.71124">
        <ele>1108.06</ele>
        <time>2019-05-30T15:25:58Z</time>
      </trkpt>
      <trkpt lat="45.15465" lon="2.71177">
        <ele>1103.73</ele>
        <time>2019-05-30T15:26:34Z</time>
      </trkpt>
      <trkpt lat="45.15479" lon="2.71199">
        <ele>1099.4</ele>
        <time>2019-05-30T15:26:58Z</time>
      </trkpt>
      <trkpt lat="45.15517" lon="2.71159">
        <ele>1093.64</ele>
        <time>2019-05-30T15:27:41Z</time>
      </trkpt>
      <trkpt lat="45.1554" lon="2.7113">
        <ele>1088.35</ele>
        <time>2019-05-30T15:28:14Z</time>
      </trkpt>
      <trkpt lat="45.1556" lon="2.71105">
        <ele>1084.5</ele>
        <time>2019-05-30T15:28:39Z</time>
      </trkpt>
      <trkpt lat="45.15572" lon="2.7106">
        <ele>1079.22</ele>
        <time>2019-05-30T15:29:15Z</time>
      </trkpt>
      <trkpt lat="45.15588" lon="2.71014">
        <ele>1074.89</ele>
        <time>2019-05-30T15:30:09Z</time>
      </trkpt>
      <trkpt lat="45.15588" lon="2.70976">
        <ele>1070.57</ele>
        <time>2019-05-30T15:30:36Z</time>
      </trkpt>
      <trkpt lat="45.15618" lon="2.70955">
        <ele>1067.68</ele>
        <time>2019-05-30T15:31:06Z</time>
      </trkpt>
      <trkpt lat="45.15644" lon="2.70931">
        <ele>1063.36</ele>
        <time>2019-05-30T15:31:38Z</time>
      </trkpt>
      <trkpt lat="45.15666" lon="2.70911">
        <ele>1060.95</ele>
        <time>2019-05-30T15:32:02Z</time>
      </trkpt>
      <trkpt lat="45.15693" lon="2.70891">
        <ele>1057.59</ele>
        <time>2019-05-30T15:32:37Z</time>
      </trkpt>
      <trkpt lat="45.15717" lon="2.70878">
        <ele>1054.22</ele>
        <time>2019-05-30T15:33:14Z</time>
      </trkpt>
      <trkpt lat="45.15747" lon="2.70853">
        <ele>1051.34</ele>
        <time>2019-05-30T15:33:46Z</time>
      </trkpt>
      <trkpt lat="45.15775" lon="2.70849">
        <ele>1050.86</ele>
        <time>2019-05-30T15:34:17Z</time>
      </trkpt>
      <trkpt lat="45.158" lon="2.70859">
        <ele>1048.94</ele>
        <time>2019-05-30T15:34:49Z</time>
      </trkpt>
      <trkpt lat="45.15823" lon="2.70859">
        <ele>1047.49</ele>
        <time>2019-05-30T15:35:19Z</time>
      </trkpt>
      <trkpt lat="45.15846" lon="2.70847">
        <ele>1045.09</ele>
        <time>2019-05-30T15:35:45Z</time>
      </trkpt>
      <trkpt lat="45.15876" lon="2.70829">
        <ele>1042.69</ele>
        <time>2019-05-30T15:36:19Z</time>
      </trkpt>
      <trkpt lat="45.15889" lon="2.70803">
        <ele>1041.25</ele>
        <time>2019-05-30T15:36:48Z</time>
      </trkpt>
      <trkpt lat="45.15889" lon="2.70766">
        <ele>1039.32</ele>
        <time>2019-05-30T15:37:32Z</time>
      </trkpt>
      <trkpt lat="45.15876" lon="2.7075">
        <ele>1036.92</ele>
        <time>2019-05-30T15:39:19Z</time>
      </trkpt>
      <trkpt lat="45.15877" lon="2.70772">
        <ele>1031.63</ele>
        <time>2019-05-31T06:04:32Z</time>
      </trkpt>
      <trkpt lat="45.1588" lon="2.70775">
        <ele>1031.15</ele>
        <time>2019-05-31T06:08:23Z</time>
      </trkpt>
      <trkpt lat="45.15881" lon="2.70774">
        <ele>1033.55</ele>
        <time>2019-05-31T06:13:24Z</time>
      </trkpt>
      <trkpt lat="45.15898" lon="2.70777">
        <ele>1032.59</ele>
        <time>2019-05-31T06:15:05Z</time>
      </trkpt>
      <trkpt lat="45.15901" lon="2.70756">
        <ele>1032.59</ele>
        <time>2019-05-31T06:15:57Z</time>
      </trkpt>
      <trkpt lat="45.15917" lon="2.70706">
        <ele>1030.19</ele>
        <time>2019-05-31T06:16:41Z</time>
      </trkpt>
      <trkpt lat="45.15934" lon="2.70678">
        <ele>1028.75</ele>
        <time>2019-05-31T06:17:08Z</time>
      </trkpt>
      <trkpt lat="45.15952" lon="2.70654">
        <ele>1031.63</ele>
        <time>2019-05-31T06:17:49Z</time>
      </trkpt>
      <trkpt lat="45.15957" lon="2.7062">
        <ele>1038.36</ele>
        <time>2019-05-31T06:18:33Z</time>
      </trkpt>
      <trkpt lat="45.15936" lon="2.70605">
        <ele>1038.84</ele>
        <time>2019-05-31T06:19:04Z</time>
      </trkpt>
      <trkpt lat="45.15909" lon="2.7059">
        <ele>1039.32</ele>
        <time>2019-05-31T06:19:51Z</time>
      </trkpt>
      <trkpt lat="45.15886" lon="2.7057">
        <ele>1039.32</ele>
        <time>2019-05-31T06:20:18Z</time>
      </trkpt>
      <trkpt lat="45.15886" lon="2.70525">
        <ele>1040.76</ele>
        <time>2019-05-31T06:20:51Z</time>
      </trkpt>
      <trkpt lat="45.15868" lon="2.7051">
        <ele>1041.73</ele>
        <time>2019-05-31T06:21:47Z</time>
      </trkpt>
      <trkpt lat="45.15833" lon="2.7048">
        <ele>1040.28</ele>
        <time>2019-05-31T06:22:25Z</time>
      </trkpt>
      <trkpt lat="45.15818" lon="2.7044">
        <ele>1040.28</ele>
        <time>2019-05-31T06:22:54Z</time>
      </trkpt>
      <trkpt lat="45.15807" lon="2.70412">
        <ele>1042.21</ele>
        <time>2019-05-31T06:23:19Z</time>
      </trkpt>
      <trkpt lat="45.15786" lon="2.70383">
        <ele>1043.65</ele>
        <time>2019-05-31T06:23:48Z</time>
      </trkpt>
      <trkpt lat="45.15771" lon="2.70357">
        <ele>1043.65</ele>
        <time>2019-05-31T06:24:12Z</time>
      </trkpt>
      <trkpt lat="45.15756" lon="2.70332">
        <ele>1042.21</ele>
        <time>2019-05-31T06:24:42Z</time>
      </trkpt>
      <trkpt lat="45.1574" lon="2.703">
        <ele>1041.25</ele>
        <time>2019-05-31T06:25:12Z</time>
      </trkpt>
      <trkpt lat="45.15731" lon="2.70264">
        <ele>1043.17</ele>
        <time>2019-05-31T06:25:40Z</time>
      </trkpt>
      <trkpt lat="45.15731" lon="2.70223">
        <ele>1046.05</ele>
        <time>2019-05-31T06:26:12Z</time>
      </trkpt>
      <trkpt lat="45.15733" lon="2.7019">
        <ele>1049.42</ele>
        <time>2019-05-31T06:26:42Z</time>
      </trkpt>
      <trkpt lat="45.15728" lon="2.70157">
        <ele>1054.7</ele>
        <time>2019-05-31T06:27:28Z</time>
      </trkpt>
      <trkpt lat="45.15717" lon="2.70127">
        <ele>1060.95</ele>
        <time>2019-05-31T06:28:11Z</time>
      </trkpt>
      <trkpt lat="45.15707" lon="2.70109">
        <ele>1065.28</ele>
        <time>2019-05-31T06:29:46Z</time>
      </trkpt>
      <trkpt lat="45.15688" lon="2.70105">
        <ele>1063.84</ele>
        <time>2019-05-31T06:31:03Z</time>
      </trkpt>
      <trkpt lat="45.15664" lon="2.70098">
        <ele>1067.68</ele>
        <time>2019-05-31T06:31:35Z</time>
      </trkpt>
      <trkpt lat="45.15633" lon="2.70088">
        <ele>1071.53</ele>
        <time>2019-05-31T06:32:13Z</time>
      </trkpt>
      <trkpt lat="45.15607" lon="2.70083">
        <ele>1073.45</ele>
        <time>2019-05-31T06:32:46Z</time>
      </trkpt>
      <trkpt lat="45.15629" lon="2.70059">
        <ele>1078.26</ele>
        <time>2019-05-31T06:33:34Z</time>
      </trkpt>
      <trkpt lat="45.15651" lon="2.70034">
        <ele>1082.1</ele>
        <time>2019-05-31T06:34:23Z</time>
      </trkpt>
      <trkpt lat="45.15672" lon="2.70014">
        <ele>1084.99</ele>
        <time>2019-05-31T06:35:37Z</time>
      </trkpt>
      <trkpt lat="45.15693" lon="2.70004">
        <ele>1086.43</ele>
        <time>2019-05-31T06:36:01Z</time>
      </trkpt>
      <trkpt lat="45.15715" lon="2.70014">
        <ele>1087.39</ele>
        <time>2019-05-31T06:36:27Z</time>
      </trkpt>
      <trkpt lat="45.15744" lon="2.70016">
        <ele>1087.87</ele>
        <time>2019-05-31T06:36:58Z</time>
      </trkpt>
      <trkpt lat="45.15771" lon="2.7003">
        <ele>1089.79</ele>
        <time>2019-05-31T06:37:33Z</time>
      </trkpt>
      <trkpt lat="45.15777" lon="2.7">
        <ele>1094.6</ele>
        <time>2019-05-31T06:38:25Z</time>
      </trkpt>
      <trkpt lat="45.15763" lon="2.69973">
        <ele>1097.96</ele>
        <time>2019-05-31T06:38:54Z</time>
      </trkpt>
      <trkpt lat="45.1574" lon="2.69954">
        <ele>1101.81</ele>
        <time>2019-05-31T06:39:39Z</time>
      </trkpt>
      <trkpt lat="45.15708" lon="2.69952">
        <ele>1104.21</ele>
        <time>2019-05-31T06:40:11Z</time>
      </trkpt>
      <trkpt lat="45.15681" lon="2.69955">
        <ele>1106.61</ele>
        <time>2019-05-31T06:40:38Z</time>
      </trkpt>
      <trkpt lat="45.15652" lon="2.69953">
        <ele>1111.9</ele>
        <time>2019-05-31T06:41:13Z</time>
      </trkpt>
      <trkpt lat="45.15622" lon="2.69946">
        <ele>1116.71</ele>
        <time>2019-05-31T06:41:54Z</time>
      </trkpt>
      <trkpt lat="45.15587" lon="2.69938">
        <ele>1122.48</ele>
        <time>2019-05-31T06:42:37Z</time>
      </trkpt>
      <trkpt lat="45.15559" lon="2.69924">
        <ele>1128.24</ele>
        <time>2019-05-31T06:43:17Z</time>
      </trkpt>
      <trkpt lat="45.15528" lon="2.69919">
        <ele>1134.01</ele>
        <time>2019-05-31T06:44:00Z</time>
      </trkpt>
      <trkpt lat="45.15497" lon="2.69919">
        <ele>1139.3</ele>
        <time>2019-05-31T06:44:41Z</time>
      </trkpt>
      <trkpt lat="45.15474" lon="2.69913">
        <ele>1142.66</ele>
        <time>2019-05-31T06:45:12Z</time>
      </trkpt>
      <trkpt lat="45.15448" lon="2.69912">
        <ele>1146.99</ele>
        <time>2019-05-31T06:45:44Z</time>
      </trkpt>
      <trkpt lat="45.15426" lon="2.69897">
        <ele>1151.32</ele>
        <time>2019-05-31T06:46:14Z</time>
      </trkpt>
      <trkpt lat="45.15403" lon="2.69871">
        <ele>1153.72</ele>
        <time>2019-05-31T06:47:17Z</time>
      </trkpt>
      <trkpt lat="45.15386" lon="2.6984">
        <ele>1156.6</ele>
        <time>2019-05-31T06:47:51Z</time>
      </trkpt>
      <trkpt lat="45.15371" lon="2.69818">
        <ele>1159.01</ele>
        <time>2019-05-31T06:49:07Z</time>
      </trkpt>
      <trkpt lat="45.15349" lon="2.69786">
        <ele>1159.01</ele>
        <time>2019-05-31T06:49:48Z</time>
      </trkpt>
      <trkpt lat="45.1533" lon="2.69754">
        <ele>1159.01</ele>
        <time>2019-05-31T06:50:23Z</time>
      </trkpt>
      <trkpt lat="45.15315" lon="2.69728">
        <ele>1161.41</ele>
        <time>2019-05-31T06:50:50Z</time>
      </trkpt>
      <trkpt lat="45.15304" lon="2.69702">
        <ele>1164.29</ele>
        <time>2019-05-31T06:51:19Z</time>
      </trkpt>
      <trkpt lat="45.15322" lon="2.69692">
        <ele>1166.22</ele>
        <time>2019-05-31T06:52:38Z</time>
      </trkpt>
      <trkpt lat="45.15337" lon="2.69671">
        <ele>1167.66</ele>
        <time>2019-05-31T06:53:56Z</time>
      </trkpt>
      <trkpt lat="45.15348" lon="2.69643">
        <ele>1165.74</ele>
        <time>2019-05-31T06:54:28Z</time>
      </trkpt>
      <trkpt lat="45.15369" lon="2.69609">
        <ele>1162.37</ele>
        <time>2019-05-31T06:55:04Z</time>
      </trkpt>
      <trkpt lat="45.1539" lon="2.69574">
        <ele>1162.37</ele>
        <time>2019-05-31T06:55:37Z</time>
      </trkpt>
      <trkpt lat="45.15396" lon="2.69539">
        <ele>1164.29</ele>
        <time>2019-05-31T06:56:08Z</time>
      </trkpt>
      <trkpt lat="45.15402" lon="2.69519">
        <ele>1165.74</ele>
        <time>2019-05-31T06:57:28Z</time>
      </trkpt>
      <trkpt lat="45.15383" lon="2.69487">
        <ele>1168.14</ele>
        <time>2019-05-31T06:57:57Z</time>
      </trkpt>
      <trkpt lat="45.15367" lon="2.69457">
        <ele>1169.58</ele>
        <time>2019-05-31T06:58:23Z</time>
      </trkpt>
      <trkpt lat="45.15353" lon="2.69446">
        <ele>1170.06</ele>
        <time>2019-05-31T06:59:35Z</time>
      </trkpt>
      <trkpt lat="45.15317" lon="2.69443">
        <ele>1170.54</ele>
        <time>2019-05-31T07:00:08Z</time>
      </trkpt>
      <trkpt lat="45.15282" lon="2.69431">
        <ele>1170.54</ele>
        <time>2019-05-31T07:00:39Z</time>
      </trkpt>
      <trkpt lat="45.15242" lon="2.69411">
        <ele>1171.98</ele>
        <time>2019-05-31T07:01:15Z</time>
      </trkpt>
      <trkpt lat="45.15205" lon="2.6939">
        <ele>1173.91</ele>
        <time>2019-05-31T07:01:52Z</time>
      </trkpt>
      <trkpt lat="45.15183" lon="2.69377">
        <ele>1175.35</ele>
        <time>2019-05-31T07:02:17Z</time>
      </trkpt>
      <trkpt lat="45.15157" lon="2.69359">
        <ele>1177.75</ele>
        <time>2019-05-31T07:02:48Z</time>
      </trkpt>
      <trkpt lat="45.15132" lon="2.69338">
        <ele>1179.67</ele>
        <time>2019-05-31T07:03:17Z</time>
      </trkpt>
      <trkpt lat="45.1511" lon="2.69316">
        <ele>1181.6</ele>
        <time>2019-05-31T07:03:46Z</time>
      </trkpt>
      <trkpt lat="45.15085" lon="2.69293">
        <ele>1184</ele>
        <time>2019-05-31T07:04:16Z</time>
      </trkpt>
      <trkpt lat="45.15056" lon="2.69268">
        <ele>1185.92</ele>
        <time>2019-05-31T07:04:49Z</time>
      </trkpt>
      <trkpt lat="45.15036" lon="2.6925">
        <ele>1187.37</ele>
        <time>2019-05-31T07:05:12Z</time>
      </trkpt>
      <trkpt lat="45.14999" lon="2.69214">
        <ele>1188.33</ele>
        <time>2019-05-31T07:05:52Z</time>
      </trkpt>
      <trkpt lat="45.14966" lon="2.69179">
        <ele>1188.33</ele>
        <time>2019-05-31T07:06:28Z</time>
      </trkpt>
      <trkpt lat="45.14947" lon="2.69158">
        <ele>1188.33</ele>
        <time>2019-05-31T07:06:49Z</time>
      </trkpt>
      <trkpt lat="45.1493" lon="2.69137">
        <ele>1186.88</ele>
        <time>2019-05-31T07:07:09Z</time>
      </trkpt>
      <trkpt lat="45.14908" lon="2.69111">
        <ele>1186.4</ele>
        <time>2019-05-31T07:07:33Z</time>
      </trkpt>
      <trkpt lat="45.14889" lon="2.69088">
        <ele>1186.4</ele>
        <time>2019-05-31T07:07:55Z</time>
      </trkpt>
      <trkpt lat="45.14871" lon="2.69064">
        <ele>1187.85</ele>
        <time>2019-05-31T07:08:19Z</time>
      </trkpt>
      <trkpt lat="45.14846" lon="2.69034">
        <ele>1190.25</ele>
        <time>2019-05-31T07:08:51Z</time>
      </trkpt>
      <trkpt lat="45.14825" lon="2.69008">
        <ele>1192.65</ele>
        <time>2019-05-31T07:09:25Z</time>
      </trkpt>
      <trkpt lat="45.14807" lon="2.68988">
        <ele>1194.58</ele>
        <time>2019-05-31T07:09:47Z</time>
      </trkpt>
      <trkpt lat="45.14787" lon="2.68965">
        <ele>1195.54</ele>
        <time>2019-05-31T07:10:12Z</time>
      </trkpt>
      <trkpt lat="45.14758" lon="2.6893">
        <ele>1196.5</ele>
        <time>2019-05-31T07:10:47Z</time>
      </trkpt>
      <trkpt lat="45.1473" lon="2.68899">
        <ele>1197.94</ele>
        <time>2019-05-31T07:11:20Z</time>
      </trkpt>
      <trkpt lat="45.147" lon="2.68873">
        <ele>1197.94</ele>
        <time>2019-05-31T07:11:53Z</time>
      </trkpt>
      <trkpt lat="45.14668" lon="2.6885">
        <ele>1199.38</ele>
        <time>2019-05-31T07:12:26Z</time>
      </trkpt>
      <trkpt lat="45.14642" lon="2.68835">
        <ele>1199.86</ele>
        <time>2019-05-31T07:12:51Z</time>
      </trkpt>
      <trkpt lat="45.14607" lon="2.6882">
        <ele>1200.34</ele>
        <time>2019-05-31T07:13:25Z</time>
      </trkpt>
      <trkpt lat="45.14572" lon="2.68803">
        <ele>1201.79</ele>
        <time>2019-05-31T07:13:59Z</time>
      </trkpt>
      <trkpt lat="45.14547" lon="2.68786">
        <ele>1202.27</ele>
        <time>2019-05-31T07:14:27Z</time>
      </trkpt>
      <trkpt lat="45.14529" lon="2.68761">
        <ele>1202.75</ele>
        <time>2019-05-31T07:14:56Z</time>
      </trkpt>
      <trkpt lat="45.14499" lon="2.68753">
        <ele>1205.15</ele>
        <time>2019-05-31T07:17:02Z</time>
      </trkpt>
      <trkpt lat="45.14474" lon="2.68752">
        <ele>1207.55</ele>
        <time>2019-05-31T07:17:31Z</time>
      </trkpt>
      <trkpt lat="45.14447" lon="2.68745">
        <ele>1209.96</ele>
        <time>2019-05-31T07:18:07Z</time>
      </trkpt>
      <trkpt lat="45.14421" lon="2.68729">
        <ele>1211.88</ele>
        <time>2019-05-31T07:18:37Z</time>
      </trkpt>
      <trkpt lat="45.14401" lon="2.68693">
        <ele>1215.72</ele>
        <time>2019-05-31T07:19:14Z</time>
      </trkpt>
      <trkpt lat="45.14385" lon="2.68664">
        <ele>1217.65</ele>
        <time>2019-05-31T07:19:42Z</time>
      </trkpt>
      <trkpt lat="45.14365" lon="2.68648">
        <ele>1219.09</ele>
        <time>2019-05-31T07:20:03Z</time>
      </trkpt>
      <trkpt lat="45.14348" lon="2.68621">
        <ele>1220.05</ele>
        <time>2019-05-31T07:20:29Z</time>
      </trkpt>
      <trkpt lat="45.14327" lon="2.68591">
        <ele>1220.53</ele>
        <time>2019-05-31T07:20:57Z</time>
      </trkpt>
      <trkpt lat="45.14298" lon="2.68575">
        <ele>1221.01</ele>
        <time>2019-05-31T07:21:27Z</time>
      </trkpt>
      <trkpt lat="45.14271" lon="2.68559">
        <ele>1221.01</ele>
        <time>2019-05-31T07:21:57Z</time>
      </trkpt>
      <trkpt lat="45.14251" lon="2.68533">
        <ele>1221.49</ele>
        <time>2019-05-31T07:22:26Z</time>
      </trkpt>
      <trkpt lat="45.14227" lon="2.68494">
        <ele>1221.97</ele>
        <time>2019-05-31T07:22:59Z</time>
      </trkpt>
      <trkpt lat="45.14231" lon="2.68456">
        <ele>1223.42</ele>
        <time>2019-05-31T07:23:26Z</time>
      </trkpt>
      <trkpt lat="45.14228" lon="2.68399">
        <ele>1223.42</ele>
        <time>2019-05-31T07:24:03Z</time>
      </trkpt>
      <trkpt lat="45.14228" lon="2.68387">
        <ele>1221.49</ele>
        <time>2019-05-31T07:24:37Z</time>
      </trkpt>
      <trkpt lat="45.14224" lon="2.68364">
        <ele>1221.97</ele>
        <time>2019-05-31T07:28:36Z</time>
      </trkpt>
      <trkpt lat="45.1422" lon="2.68331">
        <ele>1220.53</ele>
        <time>2019-05-31T07:29:17Z</time>
      </trkpt>
      <trkpt lat="45.14203" lon="2.68308">
        <ele>1221.97</ele>
        <time>2019-05-31T07:30:38Z</time>
      </trkpt>
      <trkpt lat="45.14182" lon="2.68271">
        <ele>1225.34</ele>
        <time>2019-05-31T07:31:19Z</time>
      </trkpt>
      <trkpt lat="45.14177" lon="2.68221">
        <ele>1224.38</ele>
        <time>2019-05-31T07:31:55Z</time>
      </trkpt>
      <trkpt lat="45.14164" lon="2.68178">
        <ele>1225.34</ele>
        <time>2019-05-31T07:32:28Z</time>
      </trkpt>
      <trkpt lat="45.1415" lon="2.68144">
        <ele>1226.78</ele>
        <time>2019-05-31T07:32:57Z</time>
      </trkpt>
      <trkpt lat="45.1414" lon="2.68109">
        <ele>1227.74</ele>
        <time>2019-05-31T07:33:31Z</time>
      </trkpt>
      <trkpt lat="45.14137" lon="2.68056">
        <ele>1225.34</ele>
        <time>2019-05-31T07:34:05Z</time>
      </trkpt>
      <trkpt lat="45.14136" lon="2.68014">
        <ele>1224.86</ele>
        <time>2019-05-31T07:34:35Z</time>
      </trkpt>
      <trkpt lat="45.14141" lon="2.67975">
        <ele>1226.78</ele>
        <time>2019-05-31T07:35:04Z</time>
      </trkpt>
      <trkpt lat="45.14142" lon="2.6794">
        <ele>1228.22</ele>
        <time>2019-05-31T07:35:47Z</time>
      </trkpt>
      <trkpt lat="45.14153" lon="2.67911">
        <ele>1228.22</ele>
        <time>2019-05-31T07:36:24Z</time>
      </trkpt>
      <trkpt lat="45.14169" lon="2.6788">
        <ele>1230.62</ele>
        <time>2019-05-31T07:36:53Z</time>
      </trkpt>
      <trkpt lat="45.1419" lon="2.67853">
        <ele>1235.91</ele>
        <time>2019-05-31T07:37:34Z</time>
      </trkpt>
      <trkpt lat="45.14208" lon="2.67824">
        <ele>1242.64</ele>
        <time>2019-05-31T07:38:27Z</time>
      </trkpt>
      <trkpt lat="45.14223" lon="2.67796">
        <ele>1249.85</ele>
        <time>2019-05-31T07:39:19Z</time>
      </trkpt>
      <trkpt lat="45.1424" lon="2.67774">
        <ele>1255.14</ele>
        <time>2019-05-31T07:39:57Z</time>
      </trkpt>
      <trkpt lat="45.14258" lon="2.67749">
        <ele>1260.91</ele>
        <time>2019-05-31T07:40:39Z</time>
      </trkpt>
      <trkpt lat="45.14283" lon="2.67731">
        <ele>1261.39</ele>
        <time>2019-05-31T07:41:28Z</time>
      </trkpt>
      <trkpt lat="45.14309" lon="2.67703">
        <ele>1265.23</ele>
        <time>2019-05-31T07:42:09Z</time>
      </trkpt>
      <trkpt lat="45.14328" lon="2.67683">
        <ele>1268.12</ele>
        <time>2019-05-31T07:42:35Z</time>
      </trkpt>
      <trkpt lat="45.14331" lon="2.67652">
        <ele>1273.4</ele>
        <time>2019-05-31T07:43:20Z</time>
      </trkpt>
      <trkpt lat="45.14316" lon="2.67624">
        <ele>1282.06</ele>
        <time>2019-05-31T07:44:23Z</time>
      </trkpt>
      <trkpt lat="45.14303" lon="2.67595">
        <ele>1290.23</ele>
        <time>2019-05-31T07:45:17Z</time>
      </trkpt>
      <trkpt lat="45.14285" lon="2.67578">
        <ele>1294.55</ele>
        <time>2019-05-31T07:46:13Z</time>
      </trkpt>
      <trkpt lat="45.14262" lon="2.67589">
        <ele>1295.03</ele>
        <time>2019-05-31T07:46:40Z</time>
      </trkpt>
      <trkpt lat="45.14237" lon="2.67601">
        <ele>1295.99</ele>
        <time>2019-05-31T07:47:09Z</time>
      </trkpt>
      <trkpt lat="45.14235" lon="2.67572">
        <ele>1301.28</ele>
        <time>2019-05-31T07:48:00Z</time>
      </trkpt>
      <trkpt lat="45.14237" lon="2.67533">
        <ele>1306.57</ele>
        <time>2019-05-31T07:48:42Z</time>
      </trkpt>
      <trkpt lat="45.14243" lon="2.67493">
        <ele>1311.38</ele>
        <time>2019-05-31T07:49:24Z</time>
      </trkpt>
      <trkpt lat="45.14243" lon="2.67453">
        <ele>1314.74</ele>
        <time>2019-05-31T07:50:04Z</time>
      </trkpt>
      <trkpt lat="45.14243" lon="2.67413">
        <ele>1319.07</ele>
        <time>2019-05-31T07:50:45Z</time>
      </trkpt>
      <trkpt lat="45.1426" lon="2.67394">
        <ele>1321.95</ele>
        <time>2019-05-31T07:52:00Z</time>
      </trkpt>
      <trkpt lat="45.14283" lon="2.67382">
        <ele>1326.76</ele>
        <time>2019-05-31T07:52:38Z</time>
      </trkpt>
      <trkpt lat="45.14299" lon="2.67351">
        <ele>1332.52</ele>
        <time>2019-05-31T07:53:17Z</time>
      </trkpt>
      <trkpt lat="45.14319" lon="2.6732">
        <ele>1338.77</ele>
        <time>2019-05-31T07:53:59Z</time>
      </trkpt>
      <trkpt lat="45.14341" lon="2.67292">
        <ele>1344.06</ele>
        <time>2019-05-31T07:54:37Z</time>
      </trkpt>
      <trkpt lat="45.14365" lon="2.67268">
        <ele>1349.83</ele>
        <time>2019-05-31T07:55:17Z</time>
      </trkpt>
      <trkpt lat="45.14387" lon="2.67238">
        <ele>1356.56</ele>
        <time>2019-05-31T07:55:59Z</time>
      </trkpt>
      <trkpt lat="45.14413" lon="2.67223">
        <ele>1361.84</ele>
        <time>2019-05-31T07:56:39Z</time>
      </trkpt>
      <trkpt lat="45.14434" lon="2.67201">
        <ele>1367.61</ele>
        <time>2019-05-31T07:57:16Z</time>
      </trkpt>
      <trkpt lat="45.14458" lon="2.67184">
        <ele>1372.42</ele>
        <time>2019-05-31T07:57:52Z</time>
      </trkpt>
      <trkpt lat="45.14477" lon="2.67165">
        <ele>1376.26</ele>
        <time>2019-05-31T07:58:19Z</time>
      </trkpt>
      <trkpt lat="45.14472" lon="2.67135">
        <ele>1382.99</ele>
        <time>2019-05-31T07:59:03Z</time>
      </trkpt>
      <trkpt lat="45.14472" lon="2.67103">
        <ele>1391.17</ele>
        <time>2019-05-31T07:59:53Z</time>
      </trkpt>
      <trkpt lat="45.14471" lon="2.6708">
        <ele>1395.97</ele>
        <time>2019-05-31T08:01:26Z</time>
      </trkpt>
      <trkpt lat="45.14472" lon="2.67046">
        <ele>1403.66</ele>
        <time>2019-05-31T08:02:12Z</time>
      </trkpt>
      <trkpt lat="45.14465" lon="2.67016">
        <ele>1412.31</ele>
        <time>2019-05-31T08:03:02Z</time>
      </trkpt>
      <trkpt lat="45.14444" lon="2.66997">
        <ele>1418.08</ele>
        <time>2019-05-31T08:04:33Z</time>
      </trkpt>
      <trkpt lat="45.14421" lon="2.66978">
        <ele>1424.81</ele>
        <time>2019-05-31T08:05:11Z</time>
      </trkpt>
      <trkpt lat="45.1442" lon="2.66954">
        <ele>1428.66</ele>
        <time>2019-05-31T08:05:43Z</time>
      </trkpt>
      <trkpt lat="45.1445" lon="2.66931">
        <ele>1432.5</ele>
        <time>2019-05-31T08:06:21Z</time>
      </trkpt>
      <trkpt lat="45.1448" lon="2.66909">
        <ele>1437.31</ele>
        <time>2019-05-31T08:07:03Z</time>
      </trkpt>
      <trkpt lat="45.14503" lon="2.66899">
        <ele>1441.63</ele>
        <time>2019-05-31T08:07:39Z</time>
      </trkpt>
      <trkpt lat="45.14533" lon="2.66891">
        <ele>1446.92</ele>
        <time>2019-05-31T08:08:20Z</time>
      </trkpt>
      <trkpt lat="45.14558" lon="2.66886">
        <ele>1452.69</ele>
        <time>2019-05-31T08:09:03Z</time>
      </trkpt>
      <trkpt lat="45.14584" lon="2.66885">
        <ele>1458.46</ele>
        <time>2019-05-31T08:09:40Z</time>
      </trkpt>
      <trkpt lat="45.1461" lon="2.6688">
        <ele>1463.74</ele>
        <time>2019-05-31T08:10:16Z</time>
      </trkpt>
      <trkpt lat="45.14634" lon="2.66881">
        <ele>1469.03</ele>
        <time>2019-05-31T08:10:52Z</time>
      </trkpt>
      <trkpt lat="45.14664" lon="2.66906">
        <ele>1469.51</ele>
        <time>2019-05-31T08:11:41Z</time>
      </trkpt>
      <trkpt lat="45.14685" lon="2.66925">
        <ele>1471.92</ele>
        <time>2019-05-31T08:12:11Z</time>
      </trkpt>
      <trkpt lat="45.14714" lon="2.66928">
        <ele>1477.2</ele>
        <time>2019-05-31T08:12:48Z</time>
      </trkpt>
      <trkpt lat="45.14736" lon="2.66931">
        <ele>1480.57</ele>
        <time>2019-05-31T08:13:16Z</time>
      </trkpt>
      <trkpt lat="45.14746" lon="2.66923">
        <ele>1485.37</ele>
        <time>2019-05-31T08:14:05Z</time>
      </trkpt>
      <trkpt lat="45.14719" lon="2.66909">
        <ele>1488.74</ele>
        <time>2019-05-31T08:14:41Z</time>
      </trkpt>
      <trkpt lat="45.14713" lon="2.66898">
        <ele>1490.66</ele>
        <time>2019-05-31T08:16:06Z</time>
      </trkpt>
      <trkpt lat="45.14708" lon="2.66898">
        <ele>1493.06</ele>
        <time>2019-05-31T08:23:17Z</time>
      </trkpt>
      <trkpt lat="45.14705" lon="2.66897">
        <ele>1492.1</ele>
        <time>2019-05-31T08:28:48Z</time>
      </trkpt>
      <trkpt lat="45.14686" lon="2.66873">
        <ele>1493.55</ele>
        <time>2019-05-31T08:29:26Z</time>
      </trkpt>
      <trkpt lat="45.14664" lon="2.66853">
        <ele>1495.47</ele>
        <time>2019-05-31T08:29:55Z</time>
      </trkpt>
      <trkpt lat="45.14643" lon="2.66831">
        <ele>1499.79</ele>
        <time>2019-05-31T08:30:27Z</time>
      </trkpt>
      <trkpt lat="45.14623" lon="2.66815">
        <ele>1502.2</ele>
        <time>2019-05-31T08:30:57Z</time>
      </trkpt>
      <trkpt lat="45.14595" lon="2.66791">
        <ele>1503.64</ele>
        <time>2019-05-31T08:31:30Z</time>
      </trkpt>
      <trkpt lat="45.14588" lon="2.66768">
        <ele>1505.56</ele>
        <time>2019-05-31T08:32:46Z</time>
      </trkpt>
      <trkpt lat="45.14604" lon="2.66747">
        <ele>1505.56</ele>
        <time>2019-05-31T08:35:02Z</time>
      </trkpt>
      <trkpt lat="45.14629" lon="2.66738">
        <ele>1507.97</ele>
        <time>2019-05-31T08:35:23Z</time>
      </trkpt>
      <trkpt lat="45.14665" lon="2.66716">
        <ele>1509.41</ele>
        <time>2019-05-31T08:35:56Z</time>
      </trkpt>
      <trkpt lat="45.14686" lon="2.66706">
        <ele>1506.52</ele>
        <time>2019-05-31T08:36:27Z</time>
      </trkpt>
      <trkpt lat="45.14713" lon="2.66695">
        <ele>1504.6</ele>
        <time>2019-05-31T08:37:01Z</time>
      </trkpt>
      <trkpt lat="45.14736" lon="2.66679">
        <ele>1503.64</ele>
        <time>2019-05-31T08:37:32Z</time>
      </trkpt>
      <trkpt lat="45.14756" lon="2.66666">
        <ele>1502.2</ele>
        <time>2019-05-31T08:37:57Z</time>
      </trkpt>
      <trkpt lat="45.14779" lon="2.66648">
        <ele>1504.12</ele>
        <time>2019-05-31T08:38:30Z</time>
      </trkpt>
      <trkpt lat="45.14798" lon="2.66621">
        <ele>1500.76</ele>
        <time>2019-05-31T08:39:09Z</time>
      </trkpt>
      <trkpt lat="45.14819" lon="2.66604">
        <ele>1498.83</ele>
        <time>2019-05-31T08:39:38Z</time>
      </trkpt>
      <trkpt lat="45.14843" lon="2.66584">
        <ele>1498.83</ele>
        <time>2019-05-31T08:40:11Z</time>
      </trkpt>
      <trkpt lat="45.14871" lon="2.66566">
        <ele>1500.76</ele>
        <time>2019-05-31T08:40:42Z</time>
      </trkpt>
      <trkpt lat="45.14902" lon="2.66548">
        <ele>1501.24</ele>
        <time>2019-05-31T08:41:16Z</time>
      </trkpt>
      <trkpt lat="45.14928" lon="2.66537">
        <ele>1499.31</ele>
        <time>2019-05-31T08:41:46Z</time>
      </trkpt>
      <trkpt lat="45.14953" lon="2.66523">
        <ele>1499.31</ele>
        <time>2019-05-31T08:42:17Z</time>
      </trkpt>
      <trkpt lat="45.14981" lon="2.66507">
        <ele>1499.31</ele>
        <time>2019-05-31T08:42:50Z</time>
      </trkpt>
      <trkpt lat="45.15011" lon="2.66497">
        <ele>1500.76</ele>
        <time>2019-05-31T08:43:27Z</time>
      </trkpt>
      <trkpt lat="45.15039" lon="2.6648">
        <ele>1501.72</ele>
        <time>2019-05-31T08:44:06Z</time>
      </trkpt>
      <trkpt lat="45.15067" lon="2.66466">
        <ele>1503.64</ele>
        <time>2019-05-31T08:44:43Z</time>
      </trkpt>
      <trkpt lat="45.1509" lon="2.66446">
        <ele>1506.04</ele>
        <time>2019-05-31T08:45:14Z</time>
      </trkpt>
      <trkpt lat="45.15115" lon="2.66432">
        <ele>1507.48</ele>
        <time>2019-05-31T08:45:47Z</time>
      </trkpt>
      <trkpt lat="45.15138" lon="2.66421">
        <ele>1510.85</ele>
        <time>2019-05-31T08:46:16Z</time>
      </trkpt>
      <trkpt lat="45.1516" lon="2.66411">
        <ele>1514.69</ele>
        <time>2019-05-31T08:46:46Z</time>
      </trkpt>
      <trkpt lat="45.1518" lon="2.66394">
        <ele>1519.5</ele>
        <time>2019-05-31T08:47:23Z</time>
      </trkpt>
      <trkpt lat="45.15197" lon="2.66374">
        <ele>1524.79</ele>
        <time>2019-05-31T08:48:00Z</time>
      </trkpt>
      <trkpt lat="45.15208" lon="2.66344">
        <ele>1526.23</ele>
        <time>2019-05-31T08:48:29Z</time>
      </trkpt>
      <trkpt lat="45.15214" lon="2.66303">
        <ele>1526.23</ele>
        <time>2019-05-31T08:48:58Z</time>
      </trkpt>
      <trkpt lat="45.15219" lon="2.6627">
        <ele>1530.08</ele>
        <time>2019-05-31T08:49:26Z</time>
      </trkpt>
      <trkpt lat="45.15218" lon="2.6624">
        <ele>1536.32</ele>
        <time>2019-05-31T08:50:12Z</time>
      </trkpt>
      <trkpt lat="45.15237" lon="2.66226">
        <ele>1541.13</ele>
        <time>2019-05-31T08:51:14Z</time>
      </trkpt>
      <trkpt lat="45.15261" lon="2.662">
        <ele>1542.57</ele>
        <time>2019-05-31T08:52:05Z</time>
      </trkpt>
      <trkpt lat="45.1528" lon="2.66189">
        <ele>1538.73</ele>
        <time>2019-05-31T08:52:34Z</time>
      </trkpt>
      <trkpt lat="45.15309" lon="2.6618">
        <ele>1533.92</ele>
        <time>2019-05-31T08:53:14Z</time>
      </trkpt>
      <trkpt lat="45.1534" lon="2.66161">
        <ele>1530.56</ele>
        <time>2019-05-31T08:53:48Z</time>
      </trkpt>
      <trkpt lat="45.15368" lon="2.66132">
        <ele>1528.63</ele>
        <time>2019-05-31T08:54:23Z</time>
      </trkpt>
      <trkpt lat="45.15392" lon="2.66107">
        <ele>1527.19</ele>
        <time>2019-05-31T08:54:54Z</time>
      </trkpt>
      <trkpt lat="45.15424" lon="2.66084">
        <ele>1525.75</ele>
        <time>2019-05-31T08:55:28Z</time>
      </trkpt>
      <trkpt lat="45.15442" lon="2.66066">
        <ele>1524.31</ele>
        <time>2019-05-31T08:55:59Z</time>
      </trkpt>
      <trkpt lat="45.15478" lon="2.66053">
        <ele>1521.9</ele>
        <time>2019-05-31T08:56:32Z</time>
      </trkpt>
      <trkpt lat="45.15508" lon="2.66049">
        <ele>1521.42</ele>
        <time>2019-05-31T08:56:59Z</time>
      </trkpt>
      <trkpt lat="45.15537" lon="2.66035">
        <ele>1523.35</ele>
        <time>2019-05-31T08:57:27Z</time>
      </trkpt>
      <trkpt lat="45.15567" lon="2.66026">
        <ele>1524.79</ele>
        <time>2019-05-31T08:57:57Z</time>
      </trkpt>
      <trkpt lat="45.15603" lon="2.6602">
        <ele>1525.27</ele>
        <time>2019-05-31T08:58:30Z</time>
      </trkpt>
      <trkpt lat="45.15636" lon="2.6602">
        <ele>1526.23</ele>
        <time>2019-05-31T08:59:01Z</time>
      </trkpt>
      <trkpt lat="45.15667" lon="2.6602">
        <ele>1527.67</ele>
        <time>2019-05-31T08:59:30Z</time>
      </trkpt>
      <trkpt lat="45.15695" lon="2.66023">
        <ele>1529.59</ele>
        <time>2019-05-31T08:59:57Z</time>
      </trkpt>
      <trkpt lat="45.15728" lon="2.6603">
        <ele>1530.08</ele>
        <time>2019-05-31T09:00:30Z</time>
      </trkpt>
      <trkpt lat="45.15763" lon="2.66033">
        <ele>1530.56</ele>
        <time>2019-05-31T09:01:04Z</time>
      </trkpt>
      <trkpt lat="45.15786" lon="2.6603">
        <ele>1531.52</ele>
        <time>2019-05-31T09:01:27Z</time>
      </trkpt>
      <trkpt lat="45.15812" lon="2.66024">
        <ele>1533.44</ele>
        <time>2019-05-31T09:01:56Z</time>
      </trkpt>
      <trkpt lat="45.15846" lon="2.66012">
        <ele>1536.32</ele>
        <time>2019-05-31T09:02:33Z</time>
      </trkpt>
      <trkpt lat="45.15883" lon="2.65999">
        <ele>1537.29</ele>
        <time>2019-05-31T09:03:11Z</time>
      </trkpt>
      <trkpt lat="45.15918" lon="2.65994">
        <ele>1536.8</ele>
        <time>2019-05-31T09:03:48Z</time>
      </trkpt>
      <trkpt lat="45.15942" lon="2.65985">
        <ele>1538.73</ele>
        <time>2019-05-31T09:04:13Z</time>
      </trkpt>
      <trkpt lat="45.15969" lon="2.65977">
        <ele>1538.73</ele>
        <time>2019-05-31T09:04:41Z</time>
      </trkpt>
      <trkpt lat="45.15996" lon="2.65974">
        <ele>1539.69</ele>
        <time>2019-05-31T09:05:09Z</time>
      </trkpt>
      <trkpt lat="45.16019" lon="2.65962">
        <ele>1540.65</ele>
        <time>2019-05-31T09:05:35Z</time>
      </trkpt>
      <trkpt lat="45.16041" lon="2.65956">
        <ele>1541.61</ele>
        <time>2019-05-31T09:05:59Z</time>
      </trkpt>
      <trkpt lat="45.16065" lon="2.65952">
        <ele>1541.61</ele>
        <time>2019-05-31T09:06:23Z</time>
      </trkpt>
      <trkpt lat="45.16089" lon="2.65936">
        <ele>1542.57</ele>
        <time>2019-05-31T09:06:52Z</time>
      </trkpt>
      <trkpt lat="45.16115" lon="2.65921">
        <ele>1544.01</ele>
        <time>2019-05-31T09:07:21Z</time>
      </trkpt>
      <trkpt lat="45.16138" lon="2.65912">
        <ele>1544.5</ele>
        <time>2019-05-31T09:07:55Z</time>
      </trkpt>
      <trkpt lat="45.16157" lon="2.65899">
        <ele>1546.42</ele>
        <time>2019-05-31T09:08:41Z</time>
      </trkpt>
      <trkpt lat="45.16178" lon="2.65884">
        <ele>1546.9</ele>
        <time>2019-05-31T09:09:12Z</time>
      </trkpt>
      <trkpt lat="45.16205" lon="2.65866">
        <ele>1547.38</ele>
        <time>2019-05-31T09:09:43Z</time>
      </trkpt>
      <trkpt lat="45.16229" lon="2.65844">
        <ele>1546.42</ele>
        <time>2019-05-31T09:10:25Z</time>
      </trkpt>
      <trkpt lat="45.16249" lon="2.65826">
        <ele>1546.42</ele>
        <time>2019-05-31T09:10:52Z</time>
      </trkpt>
      <trkpt lat="45.16277" lon="2.65794">
        <ele>1546.42</ele>
        <time>2019-05-31T09:11:28Z</time>
      </trkpt>
      <trkpt lat="45.16295" lon="2.65768">
        <ele>1545.94</ele>
        <time>2019-05-31T09:11:55Z</time>
      </trkpt>
      <trkpt lat="45.16315" lon="2.65726">
        <ele>1544.01</ele>
        <time>2019-05-31T09:12:29Z</time>
      </trkpt>
      <trkpt lat="45.16333" lon="2.65685">
        <ele>1542.57</ele>
        <time>2019-05-31T09:13:01Z</time>
      </trkpt>
      <trkpt lat="45.1635" lon="2.65636">
        <ele>1541.13</ele>
        <time>2019-05-31T09:13:37Z</time>
      </trkpt>
      <trkpt lat="45.16357" lon="2.65605">
        <ele>1540.17</ele>
        <time>2019-05-31T09:14:00Z</time>
      </trkpt>
      <trkpt lat="45.16363" lon="2.65549">
        <ele>1539.21</ele>
        <time>2019-05-31T09:14:36Z</time>
      </trkpt>
      <trkpt lat="45.16364" lon="2.65516">
        <ele>1537.77</ele>
        <time>2019-05-31T09:14:59Z</time>
      </trkpt>
      <trkpt lat="45.16368" lon="2.65484">
        <ele>1536.8</ele>
        <time>2019-05-31T09:15:20Z</time>
      </trkpt>
      <trkpt lat="45.16377" lon="2.65444">
        <ele>1535.84</ele>
        <time>2019-05-31T09:15:47Z</time>
      </trkpt>
      <trkpt lat="45.16387" lon="2.65392">
        <ele>1534.4</ele>
        <time>2019-05-31T09:16:24Z</time>
      </trkpt>
      <trkpt lat="45.16396" lon="2.65366">
        <ele>1533.92</ele>
        <time>2019-05-31T09:18:04Z</time>
      </trkpt>
      <trkpt lat="45.16402" lon="2.65325">
        <ele>1531.52</ele>
        <time>2019-05-31T09:19:51Z</time>
      </trkpt>
      <trkpt lat="45.16421" lon="2.65289">
        <ele>1526.71</ele>
        <time>2019-05-31T09:20:24Z</time>
      </trkpt>
      <trkpt lat="45.16449" lon="2.65244">
        <ele>1522.39</ele>
        <time>2019-05-31T09:21:01Z</time>
      </trkpt>
      <trkpt lat="45.16469" lon="2.65215">
        <ele>1518.54</ele>
        <time>2019-05-31T09:21:27Z</time>
      </trkpt>
      <trkpt lat="45.16487" lon="2.65192">
        <ele>1515.18</ele>
        <time>2019-05-31T09:21:49Z</time>
      </trkpt>
      <trkpt lat="45.16506" lon="2.65154">
        <ele>1507.97</ele>
        <time>2019-05-31T09:22:22Z</time>
      </trkpt>
      <trkpt lat="45.16518" lon="2.6512">
        <ele>1502.2</ele>
        <time>2019-05-31T09:22:51Z</time>
      </trkpt>
      <trkpt lat="45.16537" lon="2.65088">
        <ele>1496.43</ele>
        <time>2019-05-31T09:23:21Z</time>
      </trkpt>
      <trkpt lat="45.16554" lon="2.65057">
        <ele>1489.22</ele>
        <time>2019-05-31T09:23:57Z</time>
      </trkpt>
      <trkpt lat="45.16556" lon="2.65027">
        <ele>1482.01</ele>
        <time>2019-05-31T09:24:32Z</time>
      </trkpt>
      <trkpt lat="45.1654" lon="2.64998">
        <ele>1477.68</ele>
        <time>2019-05-31T09:25:01Z</time>
      </trkpt>
      <trkpt lat="45.16524" lon="2.64972">
        <ele>1473.36</ele>
        <time>2019-05-31T09:25:28Z</time>
      </trkpt>
      <trkpt lat="45.16506" lon="2.64948">
        <ele>1471.92</ele>
        <time>2019-05-31T09:25:52Z</time>
      </trkpt>
      <trkpt lat="45.16495" lon="2.64907">
        <ele>1469.99</ele>
        <time>2019-05-31T09:26:26Z</time>
      </trkpt>
      <trkpt lat="45.16485" lon="2.64864">
        <ele>1466.15</ele>
        <time>2019-05-31T09:27:08Z</time>
      </trkpt>
      <trkpt lat="45.16484" lon="2.64819">
        <ele>1460.38</ele>
        <time>2019-05-31T09:27:43Z</time>
      </trkpt>
      <trkpt lat="45.16478" lon="2.64782">
        <ele>1456.53</ele>
        <time>2019-05-31T09:28:13Z</time>
      </trkpt>
      <trkpt lat="45.16471" lon="2.6474">
        <ele>1451.73</ele>
        <time>2019-05-31T09:29:00Z</time>
      </trkpt>
      <trkpt lat="45.16473" lon="2.64703">
        <ele>1448.84</ele>
        <time>2019-05-31T09:29:37Z</time>
      </trkpt>
      <trkpt lat="45.16469" lon="2.6465">
        <ele>1447.4</ele>
        <time>2019-05-31T09:30:25Z</time>
      </trkpt>
      <trkpt lat="45.16464" lon="2.64615">
        <ele>1446.44</ele>
        <time>2019-05-31T09:30:49Z</time>
      </trkpt>
      <trkpt lat="45.16465" lon="2.64582">
        <ele>1447.88</ele>
        <time>2019-05-31T09:31:12Z</time>
      </trkpt>
      <trkpt lat="45.16451" lon="2.64543">
        <ele>1446.44</ele>
        <time>2019-05-31T09:31:43Z</time>
      </trkpt>
      <trkpt lat="45.1644" lon="2.64513">
        <ele>1446.44</ele>
        <time>2019-05-31T09:32:05Z</time>
      </trkpt>
      <trkpt lat="45.16445" lon="2.64465">
        <ele>1446.44</ele>
        <time>2019-05-31T09:32:37Z</time>
      </trkpt>
      <trkpt lat="45.16453" lon="2.64433">
        <ele>1445</ele>
        <time>2019-05-31T09:32:59Z</time>
      </trkpt>
      <trkpt lat="45.16452" lon="2.64401">
        <ele>1450.29</ele>
        <time>2019-05-31T09:33:32Z</time>
      </trkpt>
      <trkpt lat="45.16426" lon="2.64395">
        <ele>1452.69</ele>
        <time>2019-05-31T09:34:01Z</time>
      </trkpt>
      <trkpt lat="45.16394" lon="2.64392">
        <ele>1451.25</ele>
        <time>2019-05-31T09:34:34Z</time>
      </trkpt>
      <trkpt lat="45.16367" lon="2.64375">
        <ele>1447.4</ele>
        <time>2019-05-31T09:35:04Z</time>
      </trkpt>
      <trkpt lat="45.1635" lon="2.64385">
        <ele>1445.96</ele>
        <time>2019-05-31T09:35:42Z</time>
      </trkpt>
      <trkpt lat="45.16325" lon="2.6442">
        <ele>1442.6</ele>
        <time>2019-05-31T09:36:15Z</time>
      </trkpt>
      <trkpt lat="45.16296" lon="2.6446">
        <ele>1436.35</ele>
        <time>2019-05-31T09:36:48Z</time>
      </trkpt>
      <trkpt lat="45.16273" lon="2.64482">
        <ele>1432.02</ele>
        <time>2019-05-31T09:37:10Z</time>
      </trkpt>
      <trkpt lat="45.16248" lon="2.64487">
        <ele>1428.66</ele>
        <time>2019-05-31T09:37:39Z</time>
      </trkpt>
      <trkpt lat="45.16275" lon="2.64433">
        <ele>1424.33</ele>
        <time>2019-05-31T09:38:14Z</time>
      </trkpt>
      <trkpt lat="45.16251" lon="2.64436">
        <ele>1419.52</ele>
        <time>2019-05-31T09:38:41Z</time>
      </trkpt>
      <trkpt lat="45.16219" lon="2.64455">
        <ele>1413.28</ele>
        <time>2019-05-31T09:39:08Z</time>
      </trkpt>
      <trkpt lat="45.16189" lon="2.64472">
        <ele>1407.03</ele>
        <time>2019-05-31T09:39:35Z</time>
      </trkpt>
      <trkpt lat="45.16153" lon="2.64492">
        <ele>1399.34</ele>
        <time>2019-05-31T09:40:09Z</time>
      </trkpt>
      <trkpt lat="45.16119" lon="2.64506">
        <ele>1394.05</ele>
        <time>2019-05-31T09:40:37Z</time>
      </trkpt>
      <trkpt lat="45.16095" lon="2.64556">
        <ele>1388.28</ele>
        <time>2019-05-31T09:41:11Z</time>
      </trkpt>
      <trkpt lat="45.16092" lon="2.6459">
        <ele>1384.44</ele>
        <time>2019-05-31T09:41:29Z</time>
      </trkpt>
      <trkpt lat="45.16075" lon="2.64579">
        <ele>1379.15</ele>
        <time>2019-05-31T09:41:51Z</time>
      </trkpt>
      <trkpt lat="45.16073" lon="2.64532">
        <ele>1374.34</ele>
        <time>2019-05-31T09:42:18Z</time>
      </trkpt>
      <trkpt lat="45.16065" lon="2.64504">
        <ele>1370.02</ele>
        <time>2019-05-31T09:42:45Z</time>
      </trkpt>
      <trkpt lat="45.1605" lon="2.64531">
        <ele>1365.21</ele>
        <time>2019-05-31T09:43:05Z</time>
      </trkpt>
      <trkpt lat="45.16035" lon="2.64536">
        <ele>1360.4</ele>
        <time>2019-05-31T09:43:27Z</time>
      </trkpt>
      <trkpt lat="45.1604" lon="2.64493">
        <ele>1354.15</ele>
        <time>2019-05-31T09:43:53Z</time>
      </trkpt>
      <trkpt lat="45.16019" lon="2.64492">
        <ele>1349.83</ele>
        <time>2019-05-31T09:44:16Z</time>
      </trkpt>
      <trkpt lat="45.1602" lon="2.64467">
        <ele>1344.06</ele>
        <time>2019-05-31T09:44:49Z</time>
      </trkpt>
      <trkpt lat="45.16034" lon="2.64432">
        <ele>1337.81</ele>
        <time>2019-05-31T09:45:19Z</time>
      </trkpt>
      <trkpt lat="45.16011" lon="2.6442">
        <ele>1332.04</ele>
        <time>2019-05-31T09:45:47Z</time>
      </trkpt>
      <trkpt lat="45.15987" lon="2.64427">
        <ele>1327.72</ele>
        <time>2019-05-31T09:46:06Z</time>
      </trkpt>
      <trkpt lat="45.15965" lon="2.64454">
        <ele>1320.99</ele>
        <time>2019-05-31T09:46:31Z</time>
      </trkpt>
      <trkpt lat="45.15949" lon="2.6444">
        <ele>1315.7</ele>
        <time>2019-05-31T09:46:56Z</time>
      </trkpt>
      <trkpt lat="45.15957" lon="2.64396">
        <ele>1308.97</ele>
        <time>2019-05-31T09:47:28Z</time>
      </trkpt>
      <trkpt lat="45.15972" lon="2.6437">
        <ele>1301.76</ele>
        <time>2019-05-31T09:47:54Z</time>
      </trkpt>
      <trkpt lat="45.15995" lon="2.6434">
        <ele>1294.07</ele>
        <time>2019-05-31T09:48:28Z</time>
      </trkpt>
      <trkpt lat="45.1601" lon="2.64312">
        <ele>1287.82</ele>
        <time>2019-05-31T09:48:52Z</time>
      </trkpt>
      <trkpt lat="45.16025" lon="2.64275">
        <ele>1280.13</ele>
        <time>2019-05-31T09:49:30Z</time>
      </trkpt>
      <trkpt lat="45.16034" lon="2.64237">
        <ele>1273.4</ele>
        <time>2019-05-31T09:49:53Z</time>
      </trkpt>
      <trkpt lat="45.16043" lon="2.64192">
        <ele>1265.23</ele>
        <time>2019-05-31T09:50:33Z</time>
      </trkpt>
      <trkpt lat="45.16046" lon="2.64157">
        <ele>1262.35</ele>
        <time>2019-05-31T09:50:55Z</time>
      </trkpt>
      <trkpt lat="45.16037" lon="2.64122">
        <ele>1261.39</ele>
        <time>2019-05-31T09:51:23Z</time>
      </trkpt>
      <trkpt lat="45.16036" lon="2.64088">
        <ele>1258.98</ele>
        <time>2019-05-31T09:51:46Z</time>
      </trkpt>
      <trkpt lat="45.16028" lon="2.64041">
        <ele>1254.66</ele>
        <time>2019-05-31T09:52:22Z</time>
      </trkpt>
      <trkpt lat="45.16022" lon="2.63988">
        <ele>1250.33</ele>
        <time>2019-05-31T09:53:01Z</time>
      </trkpt>
      <trkpt lat="45.16013" lon="2.63946">
        <ele>1247.93</ele>
        <time>2019-05-31T09:53:30Z</time>
      </trkpt>
      <trkpt lat="45.16008" lon="2.63914">
        <ele>1246.49</ele>
        <time>2019-05-31T09:53:48Z</time>
      </trkpt>
      <trkpt lat="45.16001" lon="2.63856">
        <ele>1245.04</ele>
        <time>2019-05-31T09:54:18Z</time>
      </trkpt>
      <trkpt lat="45.15993" lon="2.63824">
        <ele>1244.08</ele>
        <time>2019-05-31T09:54:35Z</time>
      </trkpt>
      <trkpt lat="45.15969" lon="2.63779">
        <ele>1237.35</ele>
        <time>2019-05-31T09:55:06Z</time>
      </trkpt>
      <trkpt lat="45.15955" lon="2.63748">
        <ele>1232.55</ele>
        <time>2019-05-31T09:55:30Z</time>
      </trkpt>
      <trkpt lat="45.15944" lon="2.63703">
        <ele>1222.93</ele>
        <time>2019-05-31T09:56:05Z</time>
      </trkpt>
      <trkpt lat="45.15939" lon="2.63669">
        <ele>1216.69</ele>
        <time>2019-05-31T09:56:26Z</time>
      </trkpt>
      <trkpt lat="45.15944" lon="2.63629">
        <ele>1209.96</ele>
        <time>2019-05-31T09:56:52Z</time>
      </trkpt>
      <trkpt lat="45.15949" lon="2.63598">
        <ele>1204.19</ele>
        <time>2019-05-31T09:57:19Z</time>
      </trkpt>
      <trkpt lat="45.15923" lon="2.63607">
        <ele>1197.46</ele>
        <time>2019-05-31T09:57:59Z</time>
      </trkpt>
      <trkpt lat="45.15899" lon="2.63616">
        <ele>1191.69</ele>
        <time>2019-05-31T09:58:20Z</time>
      </trkpt>
      <trkpt lat="45.15874" lon="2.63619">
        <ele>1183.52</ele>
        <time>2019-05-31T09:58:47Z</time>
      </trkpt>
      <trkpt lat="45.15849" lon="2.6362">
        <ele>1176.31</ele>
        <time>2019-05-31T09:59:09Z</time>
      </trkpt>
      <trkpt lat="45.15825" lon="2.63623">
        <ele>1171.98</ele>
        <time>2019-05-31T09:59:32Z</time>
      </trkpt>
      <trkpt lat="45.15799" lon="2.63624">
        <ele>1163.33</ele>
        <time>2019-05-31T10:00:05Z</time>
      </trkpt>
      <trkpt lat="45.15775" lon="2.63622">
        <ele>1154.68</ele>
        <time>2019-05-31T10:00:39Z</time>
      </trkpt>
      <trkpt lat="45.15753" lon="2.63628">
        <ele>1146.03</ele>
        <time>2019-05-31T10:01:10Z</time>
      </trkpt>
      <trkpt lat="45.15724" lon="2.63616">
        <ele>1135.94</ele>
        <time>2019-05-31T10:01:46Z</time>
      </trkpt>
      <trkpt lat="45.15698" lon="2.63606">
        <ele>1128.73</ele>
        <time>2019-05-31T10:02:14Z</time>
      </trkpt>
      <trkpt lat="45.15676" lon="2.63599">
        <ele>1120.55</ele>
        <time>2019-05-31T10:02:42Z</time>
      </trkpt>
      <trkpt lat="45.1565" lon="2.63575">
        <ele>1112.38</ele>
        <time>2019-05-31T10:03:15Z</time>
      </trkpt>
      <trkpt lat="45.15627" lon="2.63557">
        <ele>1106.61</ele>
        <time>2019-05-31T10:03:44Z</time>
      </trkpt>
      <trkpt lat="45.15601" lon="2.63541">
        <ele>1097.96</ele>
        <time>2019-05-31T10:04:19Z</time>
      </trkpt>
      <trkpt lat="45.15598" lon="2.63573">
        <ele>1093.16</ele>
        <time>2019-05-31T10:04:38Z</time>
      </trkpt>
      <trkpt lat="45.15596" lon="2.63605">
        <ele>1087.87</ele>
        <time>2019-05-31T10:04:56Z</time>
      </trkpt>
      <trkpt lat="45.15579" lon="2.63573">
        <ele>1083.54</ele>
        <time>2019-05-31T10:05:25Z</time>
      </trkpt>
      <trkpt lat="45.15561" lon="2.63544">
        <ele>1077.78</ele>
        <time>2019-05-31T10:05:47Z</time>
      </trkpt>
      <trkpt lat="45.15546" lon="2.63551">
        <ele>1072.97</ele>
        <time>2019-05-31T10:06:08Z</time>
      </trkpt>
      <trkpt lat="45.15545" lon="2.63601">
        <ele>1066.72</ele>
        <time>2019-05-31T10:06:36Z</time>
      </trkpt>
      <trkpt lat="45.15537" lon="2.63623">
        <ele>1061.43</ele>
        <time>2019-05-31T10:06:58Z</time>
      </trkpt>
      <trkpt lat="45.1552" lon="2.63586">
        <ele>1058.07</ele>
        <time>2019-05-31T10:07:22Z</time>
      </trkpt>
      <trkpt lat="45.15511" lon="2.63548">
        <ele>1055.18</ele>
        <time>2019-05-31T10:07:46Z</time>
      </trkpt>
      <trkpt lat="45.15507" lon="2.63485">
        <ele>1052.78</ele>
        <time>2019-05-31T10:08:19Z</time>
      </trkpt>
      <trkpt lat="45.15499" lon="2.63459">
        <ele>1049.9</ele>
        <time>2019-05-31T10:08:36Z</time>
      </trkpt>
      <trkpt lat="45.15485" lon="2.63428">
        <ele>1045.09</ele>
        <time>2019-05-31T10:09:00Z</time>
      </trkpt>
      <trkpt lat="45.15478" lon="2.63396">
        <ele>1044.13</ele>
        <time>2019-05-31T10:09:19Z</time>
      </trkpt>
      <trkpt lat="45.15452" lon="2.63372">
        <ele>1038.84</ele>
        <time>2019-05-31T10:09:46Z</time>
      </trkpt>
      <trkpt lat="45.15425" lon="2.63357">
        <ele>1032.11</ele>
        <time>2019-05-31T10:10:12Z</time>
      </trkpt>
      <trkpt lat="45.15397" lon="2.63338">
        <ele>1025.86</ele>
        <time>2019-05-31T10:10:37Z</time>
      </trkpt>
      <trkpt lat="45.15372" lon="2.63326">
        <ele>1018.17</ele>
        <time>2019-05-31T10:11:09Z</time>
      </trkpt>
      <trkpt lat="45.15349" lon="2.63314">
        <ele>1008.08</ele>
        <time>2019-05-31T10:11:49Z</time>
      </trkpt>
      <trkpt lat="45.15347" lon="2.63289">
        <ele>995.58</ele>
        <time>2019-05-31T10:12:33Z</time>
      </trkpt>
      <trkpt lat="45.15355" lon="2.63255">
        <ele>986.45</ele>
        <time>2019-05-31T10:13:11Z</time>
      </trkpt>
      <trkpt lat="45.15369" lon="2.63216">
        <ele>976.36</ele>
        <time>2019-05-31T10:13:54Z</time>
      </trkpt>
      <trkpt lat="45.15383" lon="2.63183">
        <ele>968.67</ele>
        <time>2019-05-31T10:14:34Z</time>
      </trkpt>
      <trkpt lat="45.15397" lon="2.63139">
        <ele>962.42</ele>
        <time>2019-05-31T10:15:08Z</time>
      </trkpt>
      <trkpt lat="45.15378" lon="2.63117">
        <ele>962.42</ele>
        <time>2019-05-31T10:15:24Z</time>
      </trkpt>
      <trkpt lat="45.15361" lon="2.63094">
        <ele>958.09</ele>
        <time>2019-05-31T10:15:46Z</time>
      </trkpt>
      <trkpt lat="45.15372" lon="2.63066">
        <ele>953.77</ele>
        <time>2019-05-31T10:16:09Z</time>
      </trkpt>
      <trkpt lat="45.1537" lon="2.63025">
        <ele>949.44</ele>
        <time>2019-05-31T10:16:32Z</time>
      </trkpt>
      <trkpt lat="45.1537" lon="2.62962">
        <ele>946.56</ele>
        <time>2019-05-31T10:17:04Z</time>
      </trkpt>
      <trkpt lat="45.15373" lon="2.62921">
        <ele>946.07</ele>
        <time>2019-05-31T10:17:23Z</time>
      </trkpt>
      <trkpt lat="45.15374" lon="2.62883">
        <ele>945.59</ele>
        <time>2019-05-31T10:17:40Z</time>
      </trkpt>
      <trkpt lat="45.15386" lon="2.62847">
        <ele>944.63</ele>
        <time>2019-05-31T10:17:59Z</time>
      </trkpt>
      <trkpt lat="45.15392" lon="2.62815">
        <ele>944.15</ele>
        <time>2019-05-31T10:18:14Z</time>
      </trkpt>
      <trkpt lat="45.15401" lon="2.62779">
        <ele>942.71</ele>
        <time>2019-05-31T10:18:31Z</time>
      </trkpt>
      <trkpt lat="45.15405" lon="2.62748">
        <ele>942.23</ele>
        <time>2019-05-31T10:18:50Z</time>
      </trkpt>
      <trkpt lat="45.15422" lon="2.62694">
        <ele>940.31</ele>
        <time>2019-05-31T10:19:19Z</time>
      </trkpt>
      <trkpt lat="45.15435" lon="2.62654">
        <ele>939.83</ele>
        <time>2019-05-31T10:19:40Z</time>
      </trkpt>
      <trkpt lat="45.15453" lon="2.6263">
        <ele>939.35</ele>
        <time>2019-05-31T10:19:56Z</time>
      </trkpt>
      <trkpt lat="45.15491" lon="2.62597">
        <ele>936.94</ele>
        <time>2019-05-31T10:20:27Z</time>
      </trkpt>
      <trkpt lat="45.15507" lon="2.62566">
        <ele>936.46</ele>
        <time>2019-05-31T10:20:44Z</time>
      </trkpt>
      <trkpt lat="45.1552" lon="2.62539">
        <ele>935.98</ele>
        <time>2019-05-31T10:21:00Z</time>
      </trkpt>
      <trkpt lat="45.15536" lon="2.62505">
        <ele>935.02</ele>
        <time>2019-05-31T10:21:19Z</time>
      </trkpt>
      <trkpt lat="45.15554" lon="2.62472">
        <ele>933.58</ele>
        <time>2019-05-31T10:21:38Z</time>
      </trkpt>
      <trkpt lat="45.15569" lon="2.62443">
        <ele>932.62</ele>
        <time>2019-05-31T10:21:55Z</time>
      </trkpt>
      <trkpt lat="45.15568" lon="2.62407">
        <ele>932.14</ele>
        <time>2019-05-31T10:22:12Z</time>
      </trkpt>
      <trkpt lat="45.15551" lon="2.62384">
        <ele>931.65</ele>
        <time>2019-05-31T10:22:30Z</time>
      </trkpt>
      <trkpt lat="45.15525" lon="2.6237">
        <ele>931.65</ele>
        <time>2019-05-31T10:22:49Z</time>
      </trkpt>
      <trkpt lat="45.15485" lon="2.62336">
        <ele>932.62</ele>
        <time>2019-05-31T10:23:23Z</time>
      </trkpt>
      <trkpt lat="45.15481" lon="2.62303">
        <ele>932.62</ele>
        <time>2019-05-31T10:23:40Z</time>
      </trkpt>
      <trkpt lat="45.15484" lon="2.62258">
        <ele>930.69</ele>
        <time>2019-05-31T10:24:06Z</time>
      </trkpt>
      <trkpt lat="45.15487" lon="2.62223">
        <ele>928.77</ele>
        <time>2019-05-31T10:24:29Z</time>
      </trkpt>
      <trkpt lat="45.1547" lon="2.62197">
        <ele>927.81</ele>
        <time>2019-05-31T10:24:57Z</time>
      </trkpt>
      <trkpt lat="45.15464" lon="2.6219">
        <ele>926.85</ele>
        <time>2019-05-31T10:27:46Z</time>
      </trkpt>
      <trkpt lat="45.15466" lon="2.62195">
        <ele>928.29</ele>
        <time>2019-05-31T10:32:45Z</time>
      </trkpt>
      <trkpt lat="45.15471" lon="2.62213">
        <ele>927.81</ele>
        <time>2019-05-31T10:35:28Z</time>
      </trkpt>
      <trkpt lat="45.15475" lon="2.62236">
        <ele>925.89</ele>
        <time>2019-05-31T10:36:42Z</time>
      </trkpt>
      <trkpt lat="45.15474" lon="2.62236">
        <ele>923.96</ele>
        <time>2019-05-31T10:41:01Z</time>
      </trkpt>
      <trkpt lat="45.1547" lon="2.62234">
        <ele>923</ele>
        <time>2019-05-31T10:44:06Z</time>
      </trkpt>
      <trkpt lat="45.15465" lon="2.62225">
        <ele>921.56</ele>
        <time>2019-05-31T10:50:46Z</time>
      </trkpt>
      <trkpt lat="45.15453" lon="2.62248">
        <ele>920.12</ele>
        <time>2019-05-31T10:52:24Z</time>
      </trkpt>
      <trkpt lat="45.15437" lon="2.62226">
        <ele>915.79</ele>
        <time>2019-05-31T10:53:19Z</time>
      </trkpt>
      <trkpt lat="45.15423" lon="2.62257">
        <ele>910.03</ele>
        <time>2019-05-31T10:53:56Z</time>
      </trkpt>
      <trkpt lat="45.15411" lon="2.62276">
        <ele>907.14</ele>
        <time>2019-05-31T10:54:58Z</time>
      </trkpt>
      <trkpt lat="45.15395" lon="2.62237">
        <ele>903.78</ele>
        <time>2019-05-31T10:55:33Z</time>
      </trkpt>
      <trkpt lat="45.15377" lon="2.62198">
        <ele>898.97</ele>
        <time>2019-05-31T10:56:07Z</time>
      </trkpt>
      <trkpt lat="45.1536" lon="2.62177">
        <ele>895.12</ele>
        <time>2019-05-31T10:56:31Z</time>
      </trkpt>
      <trkpt lat="45.15343" lon="2.62155">
        <ele>895.12</ele>
        <time>2019-05-31T10:57:13Z</time>
      </trkpt>
      <trkpt lat="45.15332" lon="2.6216">
        <ele>893.2</ele>
        <time>2019-05-31T11:00:42Z</time>
      </trkpt>
      <trkpt lat="45.15336" lon="2.62161">
        <ele>893.2</ele>
        <time>2019-05-31T11:05:23Z</time>
      </trkpt>
      <trkpt lat="45.15339" lon="2.62157">
        <ele>892.24</ele>
        <time>2019-05-31T11:10:10Z</time>
      </trkpt>
      <trkpt lat="45.15341" lon="2.62157">
        <ele>891.28</ele>
        <time>2019-05-31T11:17:03Z</time>
      </trkpt>
      <trkpt lat="45.15345" lon="2.62158">
        <ele>890.32</ele>
        <time>2019-05-31T11:20:33Z</time>
      </trkpt>
      <trkpt lat="45.15344" lon="2.6216">
        <ele>890.32</ele>
        <time>2019-05-31T11:24:12Z</time>
      </trkpt>
      <trkpt lat="45.15334" lon="2.62159">
        <ele>890.8</ele>
        <time>2019-05-31T11:28:15Z</time>
      </trkpt>
      <trkpt lat="45.15335" lon="2.62152">
        <ele>890.32</ele>
        <time>2019-05-31T11:33:13Z</time>
      </trkpt>
      <trkpt lat="45.15348" lon="2.62137">
        <ele>890.8</ele>
        <time>2019-05-31T11:35:31Z</time>
      </trkpt>
      <trkpt lat="45.1533" lon="2.62126">
        <ele>892.72</ele>
        <time>2019-05-31T11:37:26Z</time>
      </trkpt>
      <trkpt lat="45.15304" lon="2.62128">
        <ele>896.09</ele>
        <time>2019-05-31T11:38:06Z</time>
      </trkpt>
      <trkpt lat="45.15306" lon="2.62177">
        <ele>899.93</ele>
        <time>2019-05-31T11:38:47Z</time>
      </trkpt>
      <trkpt lat="45.15306" lon="2.62225">
        <ele>901.85</ele>
        <time>2019-05-31T11:39:23Z</time>
      </trkpt>
      <trkpt lat="45.15299" lon="2.62253">
        <ele>901.85</ele>
        <time>2019-05-31T11:40:20Z</time>
      </trkpt>
      <trkpt lat="45.15281" lon="2.62267">
        <ele>905.7</ele>
        <time>2019-05-31T11:41:00Z</time>
      </trkpt>
      <trkpt lat="45.15299" lon="2.62252">
        <ele>900.89</ele>
        <time>2019-05-31T11:41:39Z</time>
      </trkpt>
      <trkpt lat="45.15298" lon="2.62218">
        <ele>902.33</ele>
        <time>2019-05-31T11:42:05Z</time>
      </trkpt>
      <trkpt lat="45.15285" lon="2.62185">
        <ele>904.26</ele>
        <time>2019-05-31T11:42:34Z</time>
      </trkpt>
      <trkpt lat="45.15279" lon="2.62146">
        <ele>905.7</ele>
        <time>2019-05-31T11:43:03Z</time>
      </trkpt>
      <trkpt lat="45.15278" lon="2.62104">
        <ele>910.03</ele>
        <time>2019-05-31T11:43:40Z</time>
      </trkpt>
      <trkpt lat="45.15261" lon="2.6208">
        <ele>911.95</ele>
        <time>2019-05-31T11:44:09Z</time>
      </trkpt>
      <trkpt lat="45.15246" lon="2.62044">
        <ele>915.31</ele>
        <time>2019-05-31T11:44:38Z</time>
      </trkpt>
      <trkpt lat="45.15241" lon="2.62011">
        <ele>918.2</ele>
        <time>2019-05-31T11:45:01Z</time>
      </trkpt>
      <trkpt lat="45.1524" lon="2.61976">
        <ele>919.64</ele>
        <time>2019-05-31T11:45:28Z</time>
      </trkpt>
      <trkpt lat="45.15238" lon="2.61926">
        <ele>923.48</ele>
        <time>2019-05-31T11:46:07Z</time>
      </trkpt>
      <trkpt lat="45.15234" lon="2.61895">
        <ele>925.89</ele>
        <time>2019-05-31T11:46:32Z</time>
      </trkpt>
      <trkpt lat="45.15224" lon="2.61861">
        <ele>928.29</ele>
        <time>2019-05-31T11:47:01Z</time>
      </trkpt>
      <trkpt lat="45.15223" lon="2.61813">
        <ele>932.14</ele>
        <time>2019-05-31T11:47:37Z</time>
      </trkpt>
      <trkpt lat="45.15228" lon="2.61779">
        <ele>934.06</ele>
        <time>2019-05-31T11:48:05Z</time>
      </trkpt>
      <trkpt lat="45.15218" lon="2.61747">
        <ele>936.94</ele>
        <time>2019-05-31T11:48:38Z</time>
      </trkpt>
      <trkpt lat="45.15202" lon="2.61706">
        <ele>940.79</ele>
        <time>2019-05-31T11:49:18Z</time>
      </trkpt>
      <trkpt lat="45.15196" lon="2.61668">
        <ele>943.19</ele>
        <time>2019-05-31T11:49:46Z</time>
      </trkpt>
      <trkpt lat="45.15195" lon="2.61634">
        <ele>945.11</ele>
        <time>2019-05-31T11:50:12Z</time>
      </trkpt>
      <trkpt lat="45.15197" lon="2.61597">
        <ele>948</ele>
        <time>2019-05-31T11:50:41Z</time>
      </trkpt>
      <trkpt lat="45.152" lon="2.6156">
        <ele>950.4</ele>
        <time>2019-05-31T11:51:12Z</time>
      </trkpt>
      <trkpt lat="45.15179" lon="2.61548">
        <ele>952.8</ele>
        <time>2019-05-31T11:51:42Z</time>
      </trkpt>
      <trkpt lat="45.15148" lon="2.61566">
        <ele>957.13</ele>
        <time>2019-05-31T11:52:29Z</time>
      </trkpt>
      <trkpt lat="45.15125" lon="2.6158">
        <ele>960.01</ele>
        <time>2019-05-31T11:52:58Z</time>
      </trkpt>
      <trkpt lat="45.15114" lon="2.61611">
        <ele>961.94</ele>
        <time>2019-05-31T11:53:28Z</time>
      </trkpt>
      <trkpt lat="45.15135" lon="2.61642">
        <ele>963.86</ele>
        <time>2019-05-31T11:54:04Z</time>
      </trkpt>
      <trkpt lat="45.15139" lon="2.61685">
        <ele>965.78</ele>
        <time>2019-05-31T11:54:37Z</time>
      </trkpt>
      <trkpt lat="45.15127" lon="2.61713">
        <ele>968.18</ele>
        <time>2019-05-31T11:55:04Z</time>
      </trkpt>
      <trkpt lat="45.15106" lon="2.61734">
        <ele>970.59</ele>
        <time>2019-05-31T11:55:33Z</time>
      </trkpt>
      <trkpt lat="45.15108" lon="2.61771">
        <ele>972.03</ele>
        <time>2019-05-31T11:56:21Z</time>
      </trkpt>
      <trkpt lat="45.15105" lon="2.61804">
        <ele>968.67</ele>
        <time>2019-05-31T11:56:50Z</time>
      </trkpt>
      <trkpt lat="45.15092" lon="2.61844">
        <ele>966.74</ele>
        <time>2019-05-31T11:57:33Z</time>
      </trkpt>
      <trkpt lat="45.15084" lon="2.61883">
        <ele>965.3</ele>
        <time>2019-05-31T11:58:02Z</time>
      </trkpt>
      <trkpt lat="45.15076" lon="2.61923">
        <ele>963.86</ele>
        <time>2019-05-31T11:58:28Z</time>
      </trkpt>
      <trkpt lat="45.15067" lon="2.61954">
        <ele>963.86</ele>
        <time>2019-05-31T11:58:51Z</time>
      </trkpt>
      <trkpt lat="45.15062" lon="2.61989">
        <ele>963.38</ele>
        <time>2019-05-31T11:59:17Z</time>
      </trkpt>
      <trkpt lat="45.15045" lon="2.62034">
        <ele>963.38</ele>
        <time>2019-05-31T11:59:45Z</time>
      </trkpt>
      <trkpt lat="45.15033" lon="2.6207">
        <ele>965.78</ele>
        <time>2019-05-31T12:00:15Z</time>
      </trkpt>
      <trkpt lat="45.15013" lon="2.62102">
        <ele>969.15</ele>
        <time>2019-05-31T12:00:57Z</time>
      </trkpt>
      <trkpt lat="45.14993" lon="2.62133">
        <ele>969.15</ele>
        <time>2019-05-31T12:01:25Z</time>
      </trkpt>
      <trkpt lat="45.14983" lon="2.62162">
        <ele>970.11</ele>
        <time>2019-05-31T12:01:51Z</time>
      </trkpt>
      <trkpt lat="45.14977" lon="2.62195">
        <ele>971.07</ele>
        <time>2019-05-31T12:02:17Z</time>
      </trkpt>
      <trkpt lat="45.14962" lon="2.6223">
        <ele>975.39</ele>
        <time>2019-05-31T12:02:57Z</time>
      </trkpt>
      <trkpt lat="45.14946" lon="2.62257">
        <ele>977.8</ele>
        <time>2019-05-31T12:03:26Z</time>
      </trkpt>
      <trkpt lat="45.14921" lon="2.62279">
        <ele>979.72</ele>
        <time>2019-05-31T12:04:05Z</time>
      </trkpt>
      <trkpt lat="45.14904" lon="2.6231">
        <ele>978.76</ele>
        <time>2019-05-31T12:04:32Z</time>
      </trkpt>
      <trkpt lat="45.14891" lon="2.62346">
        <ele>978.76</ele>
        <time>2019-05-31T12:05:01Z</time>
      </trkpt>
      <trkpt lat="45.14889" lon="2.62394">
        <ele>978.76</ele>
        <time>2019-05-31T12:05:37Z</time>
      </trkpt>
      <trkpt lat="45.14881" lon="2.6244">
        <ele>981.64</ele>
        <time>2019-05-31T12:06:14Z</time>
      </trkpt>
      <trkpt lat="45.14861" lon="2.62441">
        <ele>985.49</ele>
        <time>2019-05-31T12:06:54Z</time>
      </trkpt>
      <trkpt lat="45.14852" lon="2.62399">
        <ele>986.93</ele>
        <time>2019-05-31T12:07:32Z</time>
      </trkpt>
      <trkpt lat="45.14852" lon="2.62356">
        <ele>989.81</ele>
        <time>2019-05-31T12:08:06Z</time>
      </trkpt>
      <trkpt lat="45.14857" lon="2.62317">
        <ele>992.7</ele>
        <time>2019-05-31T12:08:44Z</time>
      </trkpt>
      <trkpt lat="45.14859" lon="2.62283">
        <ele>997.02</ele>
        <time>2019-05-31T12:09:25Z</time>
      </trkpt>
      <trkpt lat="45.14858" lon="2.62248">
        <ele>1001.35</ele>
        <time>2019-05-31T12:10:06Z</time>
      </trkpt>
      <trkpt lat="45.14838" lon="2.62223">
        <ele>1005.2</ele>
        <time>2019-05-31T12:10:49Z</time>
      </trkpt>
      <trkpt lat="45.14805" lon="2.62225">
        <ele>1008.56</ele>
        <time>2019-05-31T12:11:43Z</time>
      </trkpt>
      <trkpt lat="45.1478" lon="2.62225">
        <ele>1011.44</ele>
        <time>2019-05-31T12:12:12Z</time>
      </trkpt>
      <trkpt lat="45.14751" lon="2.62205">
        <ele>1014.81</ele>
        <time>2019-05-31T12:12:52Z</time>
      </trkpt>
      <trkpt lat="45.14733" lon="2.622">
        <ele>1020.58</ele>
        <time>2019-05-31T12:13:39Z</time>
      </trkpt>
      <trkpt lat="45.1471" lon="2.62209">
        <ele>1024.42</ele>
        <time>2019-05-31T12:14:19Z</time>
      </trkpt>
      <trkpt lat="45.14693" lon="2.6223">
        <ele>1028.27</ele>
        <time>2019-05-31T12:14:59Z</time>
      </trkpt>
      <trkpt lat="45.14674" lon="2.62255">
        <ele>1029.23</ele>
        <time>2019-05-31T12:15:30Z</time>
      </trkpt>
      <trkpt lat="45.14662" lon="2.62288">
        <ele>1031.63</ele>
        <time>2019-05-31T12:16:00Z</time>
      </trkpt>
      <trkpt lat="45.14644" lon="2.62314">
        <ele>1034.52</ele>
        <time>2019-05-31T12:16:33Z</time>
      </trkpt>
      <trkpt lat="45.14627" lon="2.62339">
        <ele>1037.4</ele>
        <time>2019-05-31T12:17:02Z</time>
      </trkpt>
      <trkpt lat="45.14615" lon="2.62373">
        <ele>1041.73</ele>
        <time>2019-05-31T12:17:41Z</time>
      </trkpt>
      <trkpt lat="45.14617" lon="2.62408">
        <ele>1040.76</ele>
        <time>2019-05-31T12:18:20Z</time>
      </trkpt>
      <trkpt lat="45.14617" lon="2.62444">
        <ele>1041.25</ele>
        <time>2019-05-31T12:18:48Z</time>
      </trkpt>
      <trkpt lat="45.14607" lon="2.62483">
        <ele>1041.25</ele>
        <time>2019-05-31T12:19:15Z</time>
      </trkpt>
      <trkpt lat="45.14586" lon="2.62512">
        <ele>1041.25</ele>
        <time>2019-05-31T12:19:45Z</time>
      </trkpt>
      <trkpt lat="45.14568" lon="2.62535">
        <ele>1043.17</ele>
        <time>2019-05-31T12:20:13Z</time>
      </trkpt>
      <trkpt lat="45.14548" lon="2.62564">
        <ele>1043.65</ele>
        <time>2019-05-31T12:20:41Z</time>
      </trkpt>
      <trkpt lat="45.14528" lon="2.62587">
        <ele>1042.69</ele>
        <time>2019-05-31T12:21:09Z</time>
      </trkpt>
      <trkpt lat="45.14504" lon="2.62618">
        <ele>1048.94</ele>
        <time>2019-05-31T12:21:53Z</time>
      </trkpt>
      <trkpt lat="45.14479" lon="2.62642">
        <ele>1055.67</ele>
        <time>2019-05-31T12:22:36Z</time>
      </trkpt>
      <trkpt lat="45.14461" lon="2.62675">
        <ele>1059.51</ele>
        <time>2019-05-31T12:23:20Z</time>
      </trkpt>
      <trkpt lat="45.14439" lon="2.62704">
        <ele>1062.39</ele>
        <time>2019-05-31T12:23:58Z</time>
      </trkpt>
      <trkpt lat="45.14418" lon="2.62732">
        <ele>1061.43</ele>
        <time>2019-05-31T12:24:30Z</time>
      </trkpt>
      <trkpt lat="45.14398" lon="2.62756">
        <ele>1064.32</ele>
        <time>2019-05-31T12:25:07Z</time>
      </trkpt>
      <trkpt lat="45.14384" lon="2.62778">
        <ele>1065.28</ele>
        <time>2019-05-31T12:26:00Z</time>
      </trkpt>
      <trkpt lat="45.14375" lon="2.62808">
        <ele>1070.08</ele>
        <time>2019-05-31T12:26:34Z</time>
      </trkpt>
      <trkpt lat="45.14345" lon="2.62807">
        <ele>1073.93</ele>
        <time>2019-05-31T12:27:13Z</time>
      </trkpt>
      <trkpt lat="45.14326" lon="2.62823">
        <ele>1075.37</ele>
        <time>2019-05-31T12:27:54Z</time>
      </trkpt>
      <trkpt lat="45.14309" lon="2.62857">
        <ele>1078.26</ele>
        <time>2019-05-31T12:28:34Z</time>
      </trkpt>
      <trkpt lat="45.14291" lon="2.62895">
        <ele>1081.62</ele>
        <time>2019-05-31T12:29:15Z</time>
      </trkpt>
      <trkpt lat="45.14277" lon="2.62922">
        <ele>1083.06</ele>
        <time>2019-05-31T12:29:43Z</time>
      </trkpt>
      <trkpt lat="45.14262" lon="2.62953">
        <ele>1085.95</ele>
        <time>2019-05-31T12:30:14Z</time>
      </trkpt>
      <trkpt lat="45.14252" lon="2.6299">
        <ele>1088.83</ele>
        <time>2019-05-31T12:30:49Z</time>
      </trkpt>
      <trkpt lat="45.14244" lon="2.63026">
        <ele>1094.6</ele>
        <time>2019-05-31T12:31:30Z</time>
      </trkpt>
      <trkpt lat="45.14236" lon="2.63056">
        <ele>1100.37</ele>
        <time>2019-05-31T12:32:13Z</time>
      </trkpt>
      <trkpt lat="45.14219" lon="2.63083">
        <ele>1105.17</ele>
        <time>2019-05-31T12:32:56Z</time>
      </trkpt>
      <trkpt lat="45.14202" lon="2.63106">
        <ele>1106.61</ele>
        <time>2019-05-31T12:33:26Z</time>
      </trkpt>
      <trkpt lat="45.14181" lon="2.63129">
        <ele>1108.54</ele>
        <time>2019-05-31T12:33:54Z</time>
      </trkpt>
      <trkpt lat="45.14159" lon="2.63154">
        <ele>1109.98</ele>
        <time>2019-05-31T12:34:23Z</time>
      </trkpt>
      <trkpt lat="45.1414" lon="2.63173">
        <ele>1112.38</ele>
        <time>2019-05-31T12:34:51Z</time>
      </trkpt>
      <trkpt lat="45.14116" lon="2.63186">
        <ele>1114.79</ele>
        <time>2019-05-31T12:35:18Z</time>
      </trkpt>
      <trkpt lat="45.14104" lon="2.6316">
        <ele>1116.23</ele>
        <time>2019-05-31T12:35:46Z</time>
      </trkpt>
      <trkpt lat="45.14092" lon="2.6312">
        <ele>1120.55</ele>
        <time>2019-05-31T12:36:25Z</time>
      </trkpt>
      <trkpt lat="45.14083" lon="2.63091">
        <ele>1126.32</ele>
        <time>2019-05-31T12:37:06Z</time>
      </trkpt>
      <trkpt lat="45.141" lon="2.63069">
        <ele>1131.13</ele>
        <time>2019-05-31T12:37:49Z</time>
      </trkpt>
      <trkpt lat="45.14105" lon="2.63041">
        <ele>1138.82</ele>
        <time>2019-05-31T12:38:43Z</time>
      </trkpt>
      <trkpt lat="45.14082" lon="2.6304">
        <ele>1143.63</ele>
        <time>2019-05-31T12:39:29Z</time>
      </trkpt>
      <trkpt lat="45.14055" lon="2.63048">
        <ele>1148.43</ele>
        <time>2019-05-31T12:40:10Z</time>
      </trkpt>
      <trkpt lat="45.14038" lon="2.63059">
        <ele>1162.85</ele>
        <time>2019-05-31T12:41:53Z</time>
      </trkpt>
      <trkpt lat="45.14021" lon="2.63082">
        <ele>1170.54</ele>
        <time>2019-05-31T12:42:49Z</time>
      </trkpt>
      <trkpt lat="45.1399" lon="2.63092">
        <ele>1174.39</ele>
        <time>2019-05-31T12:43:39Z</time>
      </trkpt>
      <trkpt lat="45.13964" lon="2.63088">
        <ele>1175.83</ele>
        <time>2019-05-31T12:44:07Z</time>
      </trkpt>
      <trkpt lat="45.13937" lon="2.63073">
        <ele>1179.19</ele>
        <time>2019-05-31T12:44:45Z</time>
      </trkpt>
      <trkpt lat="45.13908" lon="2.6307">
        <ele>1181.6</ele>
        <time>2019-05-31T12:45:26Z</time>
      </trkpt>
      <trkpt lat="45.13875" lon="2.63066">
        <ele>1184.48</ele>
        <time>2019-05-31T12:46:06Z</time>
      </trkpt>
      <trkpt lat="45.13852" lon="2.6306">
        <ele>1185.92</ele>
        <time>2019-05-31T12:46:33Z</time>
      </trkpt>
      <trkpt lat="45.13828" lon="2.63058">
        <ele>1186.88</ele>
        <time>2019-05-31T12:47:21Z</time>
      </trkpt>
      <trkpt lat="45.13799" lon="2.63057">
        <ele>1190.25</ele>
        <time>2019-05-31T12:47:58Z</time>
      </trkpt>
      <trkpt lat="45.13775" lon="2.63059">
        <ele>1195.06</ele>
        <time>2019-05-31T12:48:48Z</time>
      </trkpt>
      <trkpt lat="45.1378" lon="2.63044">
        <ele>1196.98</ele>
        <time>2019-05-31T12:51:15Z</time>
      </trkpt>
      <trkpt lat="45.13807" lon="2.63017">
        <ele>1197.94</ele>
        <time>2019-05-31T12:51:57Z</time>
      </trkpt>
      <trkpt lat="45.1383" lon="2.63005">
        <ele>1199.86</ele>
        <time>2019-05-31T12:52:35Z</time>
      </trkpt>
      <trkpt lat="45.13853" lon="2.63002">
        <ele>1204.67</ele>
        <time>2019-05-31T12:53:18Z</time>
      </trkpt>
      <trkpt lat="45.13882" lon="2.63">
        <ele>1205.15</ele>
        <time>2019-05-31T12:53:46Z</time>
      </trkpt>
      <trkpt lat="45.13913" lon="2.62993">
        <ele>1209</ele>
        <time>2019-05-31T12:54:27Z</time>
      </trkpt>
      <trkpt lat="45.13942" lon="2.62977">
        <ele>1214.28</ele>
        <time>2019-05-31T12:55:11Z</time>
      </trkpt>
      <trkpt lat="45.13965" lon="2.62955">
        <ele>1220.05</ele>
        <time>2019-05-31T12:55:55Z</time>
      </trkpt>
      <trkpt lat="45.13987" lon="2.62939">
        <ele>1227.26</ele>
        <time>2019-05-31T12:57:01Z</time>
      </trkpt>
      <trkpt lat="45.14009" lon="2.62919">
        <ele>1233.51</ele>
        <time>2019-05-31T12:57:55Z</time>
      </trkpt>
      <trkpt lat="45.14033" lon="2.62899">
        <ele>1240.72</ele>
        <time>2019-05-31T12:58:56Z</time>
      </trkpt>
      <trkpt lat="45.14053" lon="2.62875">
        <ele>1246.97</ele>
        <time>2019-05-31T12:59:49Z</time>
      </trkpt>
      <trkpt lat="45.14039" lon="2.62858">
        <ele>1249.85</ele>
        <time>2019-05-31T13:00:44Z</time>
      </trkpt>
      <trkpt lat="45.14013" lon="2.62855">
        <ele>1255.62</ele>
        <time>2019-05-31T13:01:36Z</time>
      </trkpt>
      <trkpt lat="45.13992" lon="2.62836">
        <ele>1262.35</ele>
        <time>2019-05-31T13:02:39Z</time>
      </trkpt>
      <trkpt lat="45.13973" lon="2.62817">
        <ele>1271</ele>
        <time>2019-05-31T13:03:50Z</time>
      </trkpt>
      <trkpt lat="45.13972" lon="2.62791">
        <ele>1279.65</ele>
        <time>2019-05-31T13:05:06Z</time>
      </trkpt>
      <trkpt lat="45.13952" lon="2.62772">
        <ele>1287.34</ele>
        <time>2019-05-31T13:06:17Z</time>
      </trkpt>
      <trkpt lat="45.13929" lon="2.6276">
        <ele>1295.03</ele>
        <time>2019-05-31T13:07:28Z</time>
      </trkpt>
      <trkpt lat="45.13919" lon="2.6273">
        <ele>1303.2</ele>
        <time>2019-05-31T13:08:47Z</time>
      </trkpt>
      <trkpt lat="45.13939" lon="2.62706">
        <ele>1309.45</ele>
        <time>2019-05-31T13:09:43Z</time>
      </trkpt>
      <trkpt lat="45.13946" lon="2.62676">
        <ele>1318.1</ele>
        <time>2019-05-31T13:10:55Z</time>
      </trkpt>
      <trkpt lat="45.13929" lon="2.62653">
        <ele>1328.68</ele>
        <time>2019-05-31T13:12:28Z</time>
      </trkpt>
      <trkpt lat="45.13906" lon="2.62654">
        <ele>1333.01</ele>
        <time>2019-05-31T13:13:13Z</time>
      </trkpt>
      <trkpt lat="45.1389" lon="2.62632">
        <ele>1337.81</ele>
        <time>2019-05-31T13:13:56Z</time>
      </trkpt>
      <trkpt lat="45.13864" lon="2.62614">
        <ele>1341.18</ele>
        <time>2019-05-31T13:14:41Z</time>
      </trkpt>
      <trkpt lat="45.13839" lon="2.62597">
        <ele>1345.98</ele>
        <time>2019-05-31T13:15:28Z</time>
      </trkpt>
      <trkpt lat="45.13818" lon="2.62584">
        <ele>1352.23</ele>
        <time>2019-05-31T13:16:25Z</time>
      </trkpt>
      <trkpt lat="45.13805" lon="2.62573">
        <ele>1352.23</ele>
        <time>2019-05-31T13:19:44Z</time>
      </trkpt>
      <trkpt lat="45.13796" lon="2.62563">
        <ele>1360.4</ele>
        <time>2019-05-31T13:22:05Z</time>
      </trkpt>
      <trkpt lat="45.13774" lon="2.6257">
        <ele>1362.81</ele>
        <time>2019-05-31T13:22:59Z</time>
      </trkpt>
      <trkpt lat="45.13752" lon="2.62582">
        <ele>1360.88</ele>
        <time>2019-05-31T13:23:31Z</time>
      </trkpt>
      <trkpt lat="45.1373" lon="2.62599">
        <ele>1359.44</ele>
        <time>2019-05-31T13:24:06Z</time>
      </trkpt>
      <trkpt lat="45.13707" lon="2.62623">
        <ele>1358.48</ele>
        <time>2019-05-31T13:24:42Z</time>
      </trkpt>
      <trkpt lat="45.13672" lon="2.62654">
        <ele>1358</ele>
        <time>2019-05-31T13:25:19Z</time>
      </trkpt>
      <trkpt lat="45.13649" lon="2.62676">
        <ele>1359.44</ele>
        <time>2019-05-31T13:25:44Z</time>
      </trkpt>
      <trkpt lat="45.13632" lon="2.62702">
        <ele>1363.77</ele>
        <time>2019-05-31T13:26:10Z</time>
      </trkpt>
      <trkpt lat="45.13613" lon="2.6272">
        <ele>1364.73</ele>
        <time>2019-05-31T13:26:34Z</time>
      </trkpt>
      <trkpt lat="45.13585" lon="2.62729">
        <ele>1367.13</ele>
        <time>2019-05-31T13:27:03Z</time>
      </trkpt>
      <trkpt lat="45.1356" lon="2.6273">
        <ele>1370.02</ele>
        <time>2019-05-31T13:27:34Z</time>
      </trkpt>
      <trkpt lat="45.13529" lon="2.62743">
        <ele>1371.94</ele>
        <time>2019-05-31T13:28:10Z</time>
      </trkpt>
      <trkpt lat="45.13497" lon="2.62752">
        <ele>1373.38</ele>
        <time>2019-05-31T13:28:41Z</time>
      </trkpt>
      <trkpt lat="45.13475" lon="2.62757">
        <ele>1373.38</ele>
        <time>2019-05-31T13:29:03Z</time>
      </trkpt>
      <trkpt lat="45.13451" lon="2.62776">
        <ele>1375.3</ele>
        <time>2019-05-31T13:29:30Z</time>
      </trkpt>
      <trkpt lat="45.13427" lon="2.62783">
        <ele>1375.78</ele>
        <time>2019-05-31T13:29:54Z</time>
      </trkpt>
      <trkpt lat="45.13404" lon="2.62784">
        <ele>1379.15</ele>
        <time>2019-05-31T13:30:23Z</time>
      </trkpt>
      <trkpt lat="45.13377" lon="2.62781">
        <ele>1382.03</ele>
        <time>2019-05-31T13:30:55Z</time>
      </trkpt>
      <trkpt lat="45.13353" lon="2.62783">
        <ele>1382.99</ele>
        <time>2019-05-31T13:31:18Z</time>
      </trkpt>
      <trkpt lat="45.1333" lon="2.62783">
        <ele>1383.96</ele>
        <time>2019-05-31T13:31:46Z</time>
      </trkpt>
      <trkpt lat="45.13308" lon="2.62797">
        <ele>1387.32</ele>
        <time>2019-05-31T13:32:20Z</time>
      </trkpt>
      <trkpt lat="45.13279" lon="2.6281">
        <ele>1394.05</ele>
        <time>2019-05-31T13:33:06Z</time>
      </trkpt>
      <trkpt lat="45.13255" lon="2.62818">
        <ele>1399.34</ele>
        <time>2019-05-31T13:33:50Z</time>
      </trkpt>
      <trkpt lat="45.13228" lon="2.6284">
        <ele>1406.07</ele>
        <time>2019-05-31T13:34:39Z</time>
      </trkpt>
      <trkpt lat="45.13204" lon="2.62864">
        <ele>1411.83</ele>
        <time>2019-05-31T13:35:44Z</time>
      </trkpt>
      <trkpt lat="45.13177" lon="2.62884">
        <ele>1416.64</ele>
        <time>2019-05-31T13:36:25Z</time>
      </trkpt>
      <trkpt lat="45.13154" lon="2.62896">
        <ele>1420</ele>
        <time>2019-05-31T13:36:55Z</time>
      </trkpt>
      <trkpt lat="45.13127" lon="2.62907">
        <ele>1423.37</ele>
        <time>2019-05-31T13:37:27Z</time>
      </trkpt>
      <trkpt lat="45.13102" lon="2.6292">
        <ele>1426.73</ele>
        <time>2019-05-31T13:37:57Z</time>
      </trkpt>
      <trkpt lat="45.13072" lon="2.6293">
        <ele>1430.1</ele>
        <time>2019-05-31T13:38:31Z</time>
      </trkpt>
      <trkpt lat="45.13045" lon="2.6294">
        <ele>1433.46</ele>
        <time>2019-05-31T13:39:00Z</time>
      </trkpt>
      <trkpt lat="45.13021" lon="2.62955">
        <ele>1436.83</ele>
        <time>2019-05-31T13:39:30Z</time>
      </trkpt>
      <trkpt lat="45.12997" lon="2.62959">
        <ele>1438.75</ele>
        <time>2019-05-31T13:39:55Z</time>
      </trkpt>
      <trkpt lat="45.12974" lon="2.62963">
        <ele>1442.11</ele>
        <time>2019-05-31T13:40:21Z</time>
      </trkpt>
      <trkpt lat="45.12951" lon="2.62966">
        <ele>1445.96</ele>
        <time>2019-05-31T13:40:51Z</time>
      </trkpt>
      <trkpt lat="45.12924" lon="2.6297">
        <ele>1450.77</ele>
        <time>2019-05-31T13:41:23Z</time>
      </trkpt>
      <trkpt lat="45.12899" lon="2.62968">
        <ele>1454.61</ele>
        <time>2019-05-31T13:41:53Z</time>
      </trkpt>
      <trkpt lat="45.12872" lon="2.62972">
        <ele>1460.86</ele>
        <time>2019-05-31T13:42:33Z</time>
      </trkpt>
      <trkpt lat="45.1284" lon="2.62971">
        <ele>1466.63</ele>
        <time>2019-05-31T13:43:18Z</time>
      </trkpt>
      <trkpt lat="45.12818" lon="2.6296">
        <ele>1469.51</ele>
        <time>2019-05-31T13:43:46Z</time>
      </trkpt>
      <trkpt lat="45.12791" lon="2.6295">
        <ele>1472.88</ele>
        <time>2019-05-31T13:44:21Z</time>
      </trkpt>
      <trkpt lat="45.12766" lon="2.62937">
        <ele>1475.28</ele>
        <time>2019-05-31T13:44:52Z</time>
      </trkpt>
      <trkpt lat="45.12736" lon="2.62915">
        <ele>1480.09</ele>
        <time>2019-05-31T13:45:34Z</time>
      </trkpt>
      <trkpt lat="45.12711" lon="2.62893">
        <ele>1485.37</ele>
        <time>2019-05-31T13:46:16Z</time>
      </trkpt>
      <trkpt lat="45.12692" lon="2.62871">
        <ele>1492.58</ele>
        <time>2019-05-31T13:46:59Z</time>
      </trkpt>
      <trkpt lat="45.12683" lon="2.62841">
        <ele>1496.43</ele>
        <time>2019-05-31T13:47:32Z</time>
      </trkpt>
      <trkpt lat="45.12666" lon="2.6282">
        <ele>1499.79</ele>
        <time>2019-05-31T13:48:05Z</time>
      </trkpt>
      <trkpt lat="45.1264" lon="2.62799">
        <ele>1506.52</ele>
        <time>2019-05-31T13:48:51Z</time>
      </trkpt>
      <trkpt lat="45.12624" lon="2.6277">
        <ele>1511.33</ele>
        <time>2019-05-31T13:49:32Z</time>
      </trkpt>
      <trkpt lat="45.12608" lon="2.62748">
        <ele>1516.62</ele>
        <time>2019-05-31T13:50:10Z</time>
      </trkpt>
      <trkpt lat="45.12586" lon="2.62729">
        <ele>1522.39</ele>
        <time>2019-05-31T13:50:54Z</time>
      </trkpt>
      <trkpt lat="45.12574" lon="2.62697">
        <ele>1527.67</ele>
        <time>2019-05-31T13:51:33Z</time>
      </trkpt>
      <trkpt lat="45.12553" lon="2.62694">
        <ele>1534.88</ele>
        <time>2019-05-31T13:52:24Z</time>
      </trkpt>
      <trkpt lat="45.12539" lon="2.62672">
        <ele>1546.42</ele>
        <time>2019-05-31T13:53:41Z</time>
      </trkpt>
      <trkpt lat="45.12521" lon="2.62662">
        <ele>1558.43</ele>
        <time>2019-05-31T13:55:05Z</time>
      </trkpt>
      <trkpt lat="45.1252" lon="2.62646">
        <ele>1564.68</ele>
        <time>2019-05-31T13:57:45Z</time>
      </trkpt>
      <trkpt lat="45.12521" lon="2.62606">
        <ele>1569.97</ele>
        <time>2019-05-31T13:58:30Z</time>
      </trkpt>
      <trkpt lat="45.12515" lon="2.62572">
        <ele>1571.89</ele>
        <time>2019-05-31T13:59:30Z</time>
      </trkpt>
      <trkpt lat="45.12501" lon="2.62535">
        <ele>1575.26</ele>
        <time>2019-05-31T14:00:09Z</time>
      </trkpt>
      <trkpt lat="45.12483" lon="2.62514">
        <ele>1582.47</ele>
        <time>2019-05-31T14:00:48Z</time>
      </trkpt>
      <trkpt lat="45.12467" lon="2.62496">
        <ele>1584.39</ele>
        <time>2019-05-31T14:02:13Z</time>
      </trkpt>
      <trkpt lat="45.12465" lon="2.62496">
        <ele>1587.27</ele>
        <time>2019-05-31T14:10:10Z</time>
      </trkpt>
      <trkpt lat="45.12461" lon="2.62491">
        <ele>1588.24</ele>
        <time>2019-05-31T14:19:12Z</time>
      </trkpt>
      <trkpt lat="45.12468" lon="2.62499">
        <ele>1590.16</ele>
        <time>2019-05-31T14:24:46Z</time>
      </trkpt>
      <trkpt lat="45.12453" lon="2.62473">
        <ele>1583.91</ele>
        <time>2019-05-31T14:26:50Z</time>
      </trkpt>
      <trkpt lat="45.12439" lon="2.62447">
        <ele>1581.99</ele>
        <time>2019-05-31T14:27:19Z</time>
      </trkpt>
      <trkpt lat="45.12428" lon="2.62417">
        <ele>1580.54</ele>
        <time>2019-05-31T14:28:19Z</time>
      </trkpt>
      <trkpt lat="45.12423" lon="2.6237">
        <ele>1580.06</ele>
        <time>2019-05-31T14:29:03Z</time>
      </trkpt>
      <trkpt lat="45.12423" lon="2.62323">
        <ele>1581.51</ele>
        <time>2019-05-31T14:29:43Z</time>
      </trkpt>
      <trkpt lat="45.12423" lon="2.62279">
        <ele>1582.95</ele>
        <time>2019-05-31T14:30:23Z</time>
      </trkpt>
      <trkpt lat="45.12433" lon="2.62236">
        <ele>1582.95</ele>
        <time>2019-05-31T14:31:04Z</time>
      </trkpt>
      <trkpt lat="45.12431" lon="2.62198">
        <ele>1581.51</ele>
        <time>2019-05-31T14:31:34Z</time>
      </trkpt>
      <trkpt lat="45.12438" lon="2.62159">
        <ele>1585.35</ele>
        <time>2019-05-31T14:32:15Z</time>
      </trkpt>
      <trkpt lat="45.1244" lon="2.62125">
        <ele>1587.27</ele>
        <time>2019-05-31T14:32:52Z</time>
      </trkpt>
      <trkpt lat="45.1244" lon="2.62085">
        <ele>1586.79</ele>
        <time>2019-05-31T14:33:26Z</time>
      </trkpt>
      <trkpt lat="45.12447" lon="2.6204">
        <ele>1585.83</ele>
        <time>2019-05-31T14:34:07Z</time>
      </trkpt>
      <trkpt lat="45.12445" lon="2.62005">
        <ele>1588.24</ele>
        <time>2019-05-31T14:34:44Z</time>
      </trkpt>
      <trkpt lat="45.12445" lon="2.61973">
        <ele>1591.6</ele>
        <time>2019-05-31T14:35:28Z</time>
      </trkpt>
      <trkpt lat="45.12446" lon="2.61935">
        <ele>1592.56</ele>
        <time>2019-05-31T14:36:13Z</time>
      </trkpt>
      <trkpt lat="45.12446" lon="2.61897">
        <ele>1595.93</ele>
        <time>2019-05-31T14:36:58Z</time>
      </trkpt>
      <trkpt lat="45.12441" lon="2.61864">
        <ele>1602.17</ele>
        <time>2019-05-31T14:37:52Z</time>
      </trkpt>
      <trkpt lat="45.12433" lon="2.61823">
        <ele>1607.94</ele>
        <time>2019-05-31T14:39:04Z</time>
      </trkpt>
      <trkpt lat="45.12437" lon="2.61786">
        <ele>1607.46</ele>
        <time>2019-05-31T14:39:35Z</time>
      </trkpt>
      <trkpt lat="45.12446" lon="2.61751">
        <ele>1606.02</ele>
        <time>2019-05-31T14:40:02Z</time>
      </trkpt>
      <trkpt lat="45.1246" lon="2.61709">
        <ele>1605.06</ele>
        <time>2019-05-31T14:40:34Z</time>
      </trkpt>
      <trkpt lat="45.12468" lon="2.61667">
        <ele>1603.14</ele>
        <time>2019-05-31T14:41:04Z</time>
      </trkpt>
      <trkpt lat="45.12463" lon="2.6163">
        <ele>1601.21</ele>
        <time>2019-05-31T14:41:29Z</time>
      </trkpt>
      <trkpt lat="45.12448" lon="2.61603">
        <ele>1602.66</ele>
        <time>2019-05-31T14:41:55Z</time>
      </trkpt>
      <trkpt lat="45.12428" lon="2.61573">
        <ele>1604.58</ele>
        <time>2019-05-31T14:42:23Z</time>
      </trkpt>
      <trkpt lat="45.12413" lon="2.61534">
        <ele>1605.54</ele>
        <time>2019-05-31T14:42:53Z</time>
      </trkpt>
      <trkpt lat="45.12404" lon="2.61512">
        <ele>1604.1</ele>
        <time>2019-05-31T14:45:29Z</time>
      </trkpt>
      <trkpt lat="45.12387" lon="2.61467">
        <ele>1601.21</ele>
        <time>2019-05-31T14:46:03Z</time>
      </trkpt>
      <trkpt lat="45.12375" lon="2.6144">
        <ele>1600.25</ele>
        <time>2019-05-31T14:46:23Z</time>
      </trkpt>
      <trkpt lat="45.12361" lon="2.61406">
        <ele>1599.29</ele>
        <time>2019-05-31T14:46:46Z</time>
      </trkpt>
      <trkpt lat="45.12363" lon="2.61351">
        <ele>1597.37</ele>
        <time>2019-05-31T14:47:21Z</time>
      </trkpt>
      <trkpt lat="45.12364" lon="2.61311">
        <ele>1595.45</ele>
        <time>2019-05-31T14:47:46Z</time>
      </trkpt>
      <trkpt lat="45.12367" lon="2.61256">
        <ele>1592.08</ele>
        <time>2019-05-31T14:48:20Z</time>
      </trkpt>
      <trkpt lat="45.1237" lon="2.61211">
        <ele>1589.68</ele>
        <time>2019-05-31T14:48:48Z</time>
      </trkpt>
      <trkpt lat="45.12371" lon="2.61166">
        <ele>1585.35</ele>
        <time>2019-05-31T14:49:18Z</time>
      </trkpt>
      <trkpt lat="45.12373" lon="2.61109">
        <ele>1583.43</ele>
        <time>2019-05-31T14:49:53Z</time>
      </trkpt>
      <trkpt lat="45.12374" lon="2.61072">
        <ele>1582.47</ele>
        <time>2019-05-31T14:50:16Z</time>
      </trkpt>
      <trkpt lat="45.12371" lon="2.6104">
        <ele>1580.06</ele>
        <time>2019-05-31T14:50:39Z</time>
      </trkpt>
      <trkpt lat="45.12367" lon="2.61002">
        <ele>1577.18</ele>
        <time>2019-05-31T14:51:07Z</time>
      </trkpt>
      <trkpt lat="45.12358" lon="2.60961">
        <ele>1573.82</ele>
        <time>2019-05-31T14:51:35Z</time>
      </trkpt>
      <trkpt lat="45.12357" lon="2.60916">
        <ele>1568.05</ele>
        <time>2019-05-31T14:52:09Z</time>
      </trkpt>
      <trkpt lat="45.12358" lon="2.60869">
        <ele>1563.72</ele>
        <time>2019-05-31T14:52:40Z</time>
      </trkpt>
      <trkpt lat="45.12353" lon="2.60818">
        <ele>1559.4</ele>
        <time>2019-05-31T14:53:15Z</time>
      </trkpt>
      <trkpt lat="45.12343" lon="2.60789">
        <ele>1556.51</ele>
        <time>2019-05-31T14:53:37Z</time>
      </trkpt>
      <trkpt lat="45.12325" lon="2.60745">
        <ele>1552.19</ele>
        <time>2019-05-31T14:54:09Z</time>
      </trkpt>
      <trkpt lat="45.12317" lon="2.60694">
        <ele>1546.9</ele>
        <time>2019-05-31T14:54:48Z</time>
      </trkpt>
      <trkpt lat="45.12315" lon="2.6065">
        <ele>1542.09</ele>
        <time>2019-05-31T14:55:21Z</time>
      </trkpt>
      <trkpt lat="45.12312" lon="2.60615">
        <ele>1536.8</ele>
        <time>2019-05-31T14:55:52Z</time>
      </trkpt>
      <trkpt lat="45.12313" lon="2.60579">
        <ele>1532.96</ele>
        <time>2019-05-31T14:57:25Z</time>
      </trkpt>
      <trkpt lat="45.12301" lon="2.60547">
        <ele>1524.79</ele>
        <time>2019-05-31T14:58:07Z</time>
      </trkpt>
      <trkpt lat="45.12295" lon="2.60504">
        <ele>1517.58</ele>
        <time>2019-05-31T14:58:50Z</time>
      </trkpt>
      <trkpt lat="45.12287" lon="2.60474">
        <ele>1511.81</ele>
        <time>2019-05-31T14:59:21Z</time>
      </trkpt>
      <trkpt lat="45.12272" lon="2.60432">
        <ele>1506.04</ele>
        <time>2019-05-31T14:59:58Z</time>
      </trkpt>
      <trkpt lat="45.12259" lon="2.60401">
        <ele>1499.79</ele>
        <time>2019-05-31T15:01:18Z</time>
      </trkpt>
      <trkpt lat="45.12252" lon="2.6037">
        <ele>1496.91</ele>
        <time>2019-05-31T15:01:42Z</time>
      </trkpt>
      <trkpt lat="45.12233" lon="2.60324">
        <ele>1489.22</ele>
        <time>2019-05-31T15:02:23Z</time>
      </trkpt>
      <trkpt lat="45.12214" lon="2.60294">
        <ele>1482.97</ele>
        <time>2019-05-31T15:02:58Z</time>
      </trkpt>
      <trkpt lat="45.12193" lon="2.60267">
        <ele>1476.72</ele>
        <time>2019-05-31T15:03:32Z</time>
      </trkpt>
      <trkpt lat="45.12165" lon="2.60245">
        <ele>1469.03</ele>
        <time>2019-05-31T15:04:09Z</time>
      </trkpt>
      <trkpt lat="45.12147" lon="2.60216">
        <ele>1466.15</ele>
        <time>2019-05-31T15:04:34Z</time>
      </trkpt>
      <trkpt lat="45.12128" lon="2.60182">
        <ele>1460.86</ele>
        <time>2019-05-31T15:05:06Z</time>
      </trkpt>
      <trkpt lat="45.12108" lon="2.60148">
        <ele>1453.17</ele>
        <time>2019-05-31T15:05:45Z</time>
      </trkpt>
      <trkpt lat="45.12086" lon="2.60118">
        <ele>1448.84</ele>
        <time>2019-05-31T15:06:17Z</time>
      </trkpt>
      <trkpt lat="45.12069" lon="2.60095">
        <ele>1444.04</ele>
        <time>2019-05-31T15:06:42Z</time>
      </trkpt>
      <trkpt lat="45.12054" lon="2.6007">
        <ele>1440.19</ele>
        <time>2019-05-31T15:07:04Z</time>
      </trkpt>
      <trkpt lat="45.12036" lon="2.60035">
        <ele>1436.35</ele>
        <time>2019-05-31T15:07:32Z</time>
      </trkpt>
      <trkpt lat="45.1202" lon="2.60011">
        <ele>1430.58</ele>
        <time>2019-05-31T15:08:01Z</time>
      </trkpt>
      <trkpt lat="45.12002" lon="2.59971">
        <ele>1425.29</ele>
        <time>2019-05-31T15:08:36Z</time>
      </trkpt>
      <trkpt lat="45.11983" lon="2.59943">
        <ele>1420.49</ele>
        <time>2019-05-31T15:09:07Z</time>
      </trkpt>
      <trkpt lat="45.11966" lon="2.59902">
        <ele>1418.08</ele>
        <time>2019-05-31T15:09:40Z</time>
      </trkpt>
      <trkpt lat="45.11953" lon="2.59873">
        <ele>1416.16</ele>
        <time>2019-05-31T15:10:06Z</time>
      </trkpt>
      <trkpt lat="45.1194" lon="2.59831">
        <ele>1413.28</ele>
        <time>2019-05-31T15:10:40Z</time>
      </trkpt>
      <trkpt lat="45.11928" lon="2.59794">
        <ele>1409.91</ele>
        <time>2019-05-31T15:11:09Z</time>
      </trkpt>
      <trkpt lat="45.11924" lon="2.5976">
        <ele>1407.51</ele>
        <time>2019-05-31T15:11:40Z</time>
      </trkpt>
      <trkpt lat="45.11914" lon="2.59727">
        <ele>1404.14</ele>
        <time>2019-05-31T15:12:20Z</time>
      </trkpt>
      <trkpt lat="45.11905" lon="2.59692">
        <ele>1401.26</ele>
        <time>2019-05-31T15:12:56Z</time>
      </trkpt>
      <trkpt lat="45.11894" lon="2.59661">
        <ele>1397.89</ele>
        <time>2019-05-31T15:13:24Z</time>
      </trkpt>
      <trkpt lat="45.11873" lon="2.59627">
        <ele>1391.65</ele>
        <time>2019-05-31T15:14:05Z</time>
      </trkpt>
      <trkpt lat="45.11858" lon="2.59602">
        <ele>1387.8</ele>
        <time>2019-05-31T15:14:33Z</time>
      </trkpt>
      <trkpt lat="45.11846" lon="2.59576">
        <ele>1384.44</ele>
        <time>2019-05-31T15:15:14Z</time>
      </trkpt>
      <trkpt lat="45.11838" lon="2.59544">
        <ele>1382.03</ele>
        <time>2019-05-31T15:15:51Z</time>
      </trkpt>
      <trkpt lat="45.11831" lon="2.59507">
        <ele>1378.19</ele>
        <time>2019-05-31T15:16:35Z</time>
      </trkpt>
      <trkpt lat="45.11815" lon="2.59478">
        <ele>1375.3</ele>
        <time>2019-05-31T15:17:07Z</time>
      </trkpt>
      <trkpt lat="45.1179" lon="2.59454">
        <ele>1370.02</ele>
        <time>2019-05-31T15:17:42Z</time>
      </trkpt>
      <trkpt lat="45.11777" lon="2.59425">
        <ele>1367.13</ele>
        <time>2019-05-31T15:18:11Z</time>
      </trkpt>
      <trkpt lat="45.11766" lon="2.59392">
        <ele>1364.25</ele>
        <time>2019-05-31T15:18:37Z</time>
      </trkpt>
      <trkpt lat="45.11752" lon="2.59347">
        <ele>1361.36</ele>
        <time>2019-05-31T15:19:15Z</time>
      </trkpt>
      <trkpt lat="45.11744" lon="2.59312">
        <ele>1358.96</ele>
        <time>2019-05-31T15:19:41Z</time>
      </trkpt>
      <trkpt lat="45.11734" lon="2.59283">
        <ele>1358</ele>
        <time>2019-05-31T15:20:08Z</time>
      </trkpt>
      <trkpt lat="45.11716" lon="2.59244">
        <ele>1359.92</ele>
        <time>2019-05-31T15:20:43Z</time>
      </trkpt>
      <trkpt lat="45.11705" lon="2.59214">
        <ele>1358</ele>
        <time>2019-05-31T15:21:09Z</time>
      </trkpt>
      <trkpt lat="45.11697" lon="2.5918">
        <ele>1355.6</ele>
        <time>2019-05-31T15:21:41Z</time>
      </trkpt>
      <trkpt lat="45.11705" lon="2.59152">
        <ele>1352.23</ele>
        <time>2019-05-31T15:22:11Z</time>
      </trkpt>
      <trkpt lat="45.117" lon="2.59111">
        <ele>1349.35</ele>
        <time>2019-05-31T15:22:43Z</time>
      </trkpt>
      <trkpt lat="45.11672" lon="2.59081">
        <ele>1348.87</ele>
        <time>2019-05-31T15:23:25Z</time>
      </trkpt>
      <trkpt lat="45.11656" lon="2.59057">
        <ele>1349.83</ele>
        <time>2019-05-31T15:23:56Z</time>
      </trkpt>
      <trkpt lat="45.11646" lon="2.59051">
        <ele>1349.35</ele>
        <time>2019-05-31T15:27:47Z</time>
      </trkpt>
      <trkpt lat="45.11621" lon="2.5906">
        <ele>1353.67</ele>
        <time>2019-05-31T15:28:18Z</time>
      </trkpt>
      <trkpt lat="45.11608" lon="2.59088">
        <ele>1351.75</ele>
        <time>2019-05-31T15:29:06Z</time>
      </trkpt>
      <trkpt lat="45.11606" lon="2.59118">
        <ele>1345.5</ele>
        <time>2019-05-31T15:29:44Z</time>
      </trkpt>
      <trkpt lat="45.11612" lon="2.59153">
        <ele>1338.29</ele>
        <time>2019-05-31T15:30:26Z</time>
      </trkpt>
      <trkpt lat="45.11614" lon="2.59193">
        <ele>1332.52</ele>
        <time>2019-05-31T15:31:07Z</time>
      </trkpt>
      <trkpt lat="45.11603" lon="2.59225">
        <ele>1325.8</ele>
        <time>2019-05-31T15:31:54Z</time>
      </trkpt>
      <trkpt lat="45.11575" lon="2.59214">
        <ele>1315.7</ele>
        <time>2019-05-31T15:32:48Z</time>
      </trkpt>
      <trkpt lat="45.11558" lon="2.59184">
        <ele>1307.05</ele>
        <time>2019-05-31T15:33:39Z</time>
      </trkpt>
      <trkpt lat="45.11541" lon="2.592">
        <ele>1296.48</ele>
        <time>2019-05-31T15:34:36Z</time>
      </trkpt>
      <trkpt lat="45.1153" lon="2.59223">
        <ele>1289.75</ele>
        <time>2019-05-31T15:35:13Z</time>
      </trkpt>
      <trkpt lat="45.11508" lon="2.5923">
        <ele>1282.54</ele>
        <time>2019-05-31T15:35:54Z</time>
      </trkpt>
      <trkpt lat="45.11485" lon="2.5921">
        <ele>1275.33</ele>
        <time>2019-05-31T15:36:36Z</time>
      </trkpt>
      <trkpt lat="45.11457" lon="2.592">
        <ele>1270.04</ele>
        <time>2019-05-31T15:37:08Z</time>
      </trkpt>
      <trkpt lat="45.11434" lon="2.59176">
        <ele>1266.67</ele>
        <time>2019-05-31T15:37:41Z</time>
      </trkpt>
      <trkpt lat="45.11419" lon="2.59153">
        <ele>1260.91</ele>
        <time>2019-05-31T15:38:22Z</time>
      </trkpt>
      <trkpt lat="45.11398" lon="2.5914">
        <ele>1255.14</ele>
        <time>2019-05-31T15:39:14Z</time>
      </trkpt>
      <trkpt lat="45.11369" lon="2.59135">
        <ele>1246.01</ele>
        <time>2019-05-31T15:40:07Z</time>
      </trkpt>
      <trkpt lat="45.11351" lon="2.59114">
        <ele>1241.68</ele>
        <time>2019-05-31T15:40:45Z</time>
      </trkpt>
      <trkpt lat="45.11327" lon="2.59099">
        <ele>1235.43</ele>
        <time>2019-05-31T15:41:23Z</time>
      </trkpt>
      <trkpt lat="45.11314" lon="2.59129">
        <ele>1228.7</ele>
        <time>2019-05-31T15:42:04Z</time>
      </trkpt>
      <trkpt lat="45.11288" lon="2.59108">
        <ele>1222.93</ele>
        <time>2019-05-31T15:42:42Z</time>
      </trkpt>
      <trkpt lat="45.11265" lon="2.59098">
        <ele>1220.05</ele>
        <time>2019-05-31T15:43:08Z</time>
      </trkpt>
      <trkpt lat="45.11245" lon="2.59055">
        <ele>1219.09</ele>
        <time>2019-05-31T15:43:42Z</time>
      </trkpt>
      <trkpt lat="45.11226" lon="2.5903">
        <ele>1219.09</ele>
        <time>2019-05-31T15:44:06Z</time>
      </trkpt>
      <trkpt lat="45.1119" lon="2.59015">
        <ele>1217.65</ele>
        <time>2019-05-31T15:44:44Z</time>
      </trkpt>
      <trkpt lat="45.11154" lon="2.58998">
        <ele>1215.24</ele>
        <time>2019-05-31T15:45:19Z</time>
      </trkpt>
      <trkpt lat="45.11129" lon="2.5899">
        <ele>1214.76</ele>
        <time>2019-05-31T15:45:43Z</time>
      </trkpt>
      <trkpt lat="45.11093" lon="2.58975">
        <ele>1214.28</ele>
        <time>2019-05-31T15:46:17Z</time>
      </trkpt>
      <trkpt lat="45.11064" lon="2.58959">
        <ele>1210.92</ele>
        <time>2019-05-31T15:46:51Z</time>
      </trkpt>
      <trkpt lat="45.11039" lon="2.58931">
        <ele>1202.27</ele>
        <time>2019-05-31T15:47:34Z</time>
      </trkpt>
      <trkpt lat="45.11016" lon="2.58902">
        <ele>1194.58</ele>
        <time>2019-05-31T15:48:17Z</time>
      </trkpt>
      <trkpt lat="45.10993" lon="2.58875">
        <ele>1185.44</ele>
        <time>2019-05-31T15:48:58Z</time>
      </trkpt>
      <trkpt lat="45.10966" lon="2.58846">
        <ele>1177.75</ele>
        <time>2019-05-31T15:49:42Z</time>
      </trkpt>
      <trkpt lat="45.10962" lon="2.5882">
        <ele>1175.83</ele>
        <time>2019-05-31T15:50:43Z</time>
      </trkpt>
      <trkpt lat="45.10955" lon="2.58789">
        <ele>1172.95</ele>
        <time>2019-05-31T15:51:09Z</time>
      </trkpt>
      <trkpt lat="45.1094" lon="2.58759">
        <ele>1171.02</ele>
        <time>2019-05-31T15:51:40Z</time>
      </trkpt>
      <trkpt lat="45.10938" lon="2.58756">
        <ele>1169.1</ele>
        <time>2019-05-31T15:53:29Z</time>
      </trkpt>
      <trkpt lat="45.10927" lon="2.58738">
        <ele>1168.62</ele>
        <time>2019-05-31T15:54:42Z</time>
      </trkpt>
      <trkpt lat="45.10901" lon="2.58721">
        <ele>1168.62</ele>
        <time>2019-05-31T15:55:15Z</time>
      </trkpt>
      <trkpt lat="45.10871" lon="2.58721">
        <ele>1162.37</ele>
        <time>2019-05-31T15:55:55Z</time>
      </trkpt>
      <trkpt lat="45.10846" lon="2.58715">
        <ele>1157.08</ele>
        <time>2019-05-31T15:56:30Z</time>
      </trkpt>
      <trkpt lat="45.1082" lon="2.58709">
        <ele>1152.76</ele>
        <time>2019-05-31T15:56:59Z</time>
      </trkpt>
      <trkpt lat="45.10792" lon="2.58702">
        <ele>1150.35</ele>
        <time>2019-05-31T15:57:28Z</time>
      </trkpt>
      <trkpt lat="45.10795" lon="2.58716">
        <ele>1146.51</ele>
        <time>2019-05-31T15:58:11Z</time>
      </trkpt>
      <trkpt lat="45.10812" lon="2.58742">
        <ele>1143.14</ele>
        <time>2019-05-31T15:58:41Z</time>
      </trkpt>
      <trkpt lat="45.10828" lon="2.58769">
        <ele>1140.74</ele>
        <time>2019-05-31T15:59:08Z</time>
      </trkpt>
      <trkpt lat="45.10846" lon="2.58794">
        <ele>1136.42</ele>
        <time>2019-05-31T15:59:39Z</time>
      </trkpt>
      <trkpt lat="45.10851" lon="2.58835">
        <ele>1136.9</ele>
        <time>2019-05-31T16:00:15Z</time>
      </trkpt>
      <trkpt lat="45.10858" lon="2.58868">
        <ele>1137.86</ele>
        <time>2019-05-31T16:00:57Z</time>
      </trkpt>
      <trkpt lat="45.10865" lon="2.58913">
        <ele>1134.49</ele>
        <time>2019-05-31T16:01:31Z</time>
      </trkpt>
      <trkpt lat="45.10873" lon="2.58959">
        <ele>1129.69</ele>
        <time>2019-05-31T16:02:05Z</time>
      </trkpt>
      <trkpt lat="45.10887" lon="2.59002">
        <ele>1127.76</ele>
        <time>2019-05-31T16:02:38Z</time>
      </trkpt>
      <trkpt lat="45.10902" lon="2.59046">
        <ele>1129.21</ele>
        <time>2019-05-31T16:03:12Z</time>
      </trkpt>
      <trkpt lat="45.10913" lon="2.59083">
        <ele>1127.76</ele>
        <time>2019-05-31T16:03:42Z</time>
      </trkpt>
      <trkpt lat="45.10916" lon="2.59118">
        <ele>1124.4</ele>
        <time>2019-05-31T16:04:12Z</time>
      </trkpt>
      <trkpt lat="45.10923" lon="2.59157">
        <ele>1120.07</ele>
        <time>2019-05-31T16:05:31Z</time>
      </trkpt>
      <trkpt lat="45.10928" lon="2.5919">
        <ele>1116.23</ele>
        <time>2019-05-31T16:06:02Z</time>
      </trkpt>
      <trkpt lat="45.10908" lon="2.59201">
        <ele>1109.02</ele>
        <time>2019-05-31T16:06:45Z</time>
      </trkpt>
      <trkpt lat="45.10911" lon="2.59238">
        <ele>1104.21</ele>
        <time>2019-05-31T16:07:20Z</time>
      </trkpt>
      <trkpt lat="45.1092" lon="2.59279">
        <ele>1098.92</ele>
        <time>2019-05-31T16:07:58Z</time>
      </trkpt>
      <trkpt lat="45.1094" lon="2.59318">
        <ele>1093.64</ele>
        <time>2019-05-31T16:08:39Z</time>
      </trkpt>
      <trkpt lat="45.10952" lon="2.59361">
        <ele>1089.31</ele>
        <time>2019-05-31T16:09:13Z</time>
      </trkpt>
      <trkpt lat="45.10959" lon="2.59393">
        <ele>1086.91</ele>
        <time>2019-05-31T16:09:39Z</time>
      </trkpt>
      <trkpt lat="45.1096" lon="2.59427">
        <ele>1084.02</ele>
        <time>2019-05-31T16:10:18Z</time>
      </trkpt>
      <trkpt lat="45.10972" lon="2.59443">
        <ele>1080.18</ele>
        <time>2019-05-31T16:12:06Z</time>
      </trkpt>
      <trkpt lat="45.10973" lon="2.59482">
        <ele>1075.37</ele>
        <time>2019-05-31T16:12:50Z</time>
      </trkpt>
      <trkpt lat="45.10996" lon="2.59515">
        <ele>1072.49</ele>
        <time>2019-05-31T16:13:29Z</time>
      </trkpt>
      <trkpt lat="45.11015" lon="2.59549">
        <ele>1069.12</ele>
        <time>2019-05-31T16:14:07Z</time>
      </trkpt>
      <trkpt lat="45.11025" lon="2.59589">
        <ele>1064.32</ele>
        <time>2019-05-31T16:14:49Z</time>
      </trkpt>
      <trkpt lat="45.11035" lon="2.59632">
        <ele>1061.91</ele>
        <time>2019-05-31T16:15:24Z</time>
      </trkpt>
      <trkpt lat="45.1106" lon="2.59655">
        <ele>1059.51</ele>
        <time>2019-05-31T16:16:06Z</time>
      </trkpt>
      <trkpt lat="45.11058" lon="2.59686">
        <ele>1054.7</ele>
        <time>2019-05-31T16:17:15Z</time>
      </trkpt>
      <trkpt lat="45.11037" lon="2.59709">
        <ele>1050.38</ele>
        <time>2019-05-31T16:18:10Z</time>
      </trkpt>
      <trkpt lat="45.11019" lon="2.59733">
        <ele>1047.49</ele>
        <time>2019-05-31T16:19:09Z</time>
      </trkpt>
      <trkpt lat="45.11001" lon="2.59764">
        <ele>1043.17</ele>
        <time>2019-05-31T16:20:18Z</time>
      </trkpt>
      <trkpt lat="45.10982" lon="2.59787">
        <ele>1038.84</ele>
        <time>2019-05-31T16:20:50Z</time>
      </trkpt>
      <trkpt lat="45.10962" lon="2.59808">
        <ele>1034.52</ele>
        <time>2019-05-31T16:21:18Z</time>
      </trkpt>
      <trkpt lat="45.10941" lon="2.59814">
        <ele>1030.67</ele>
        <time>2019-05-31T16:21:47Z</time>
      </trkpt>
      <trkpt lat="45.10915" lon="2.59793">
        <ele>1028.27</ele>
        <time>2019-05-31T16:22:19Z</time>
      </trkpt>
      <trkpt lat="45.10888" lon="2.59764">
        <ele>1026.83</ele>
        <time>2019-05-31T16:22:51Z</time>
      </trkpt>
      <trkpt lat="45.10862" lon="2.59752">
        <ele>1026.83</ele>
        <time>2019-05-31T16:23:19Z</time>
      </trkpt>
      <trkpt lat="45.10829" lon="2.59733">
        <ele>1023.94</ele>
        <time>2019-05-31T16:23:51Z</time>
      </trkpt>
      <trkpt lat="45.10803" lon="2.59722">
        <ele>1021.54</ele>
        <time>2019-05-31T16:24:17Z</time>
      </trkpt>
      <trkpt lat="45.10781" lon="2.59702">
        <ele>1020.1</ele>
        <time>2019-05-31T16:24:42Z</time>
      </trkpt>
      <trkpt lat="45.1075" lon="2.59666">
        <ele>1018.65</ele>
        <time>2019-05-31T16:25:19Z</time>
      </trkpt>
      <trkpt lat="45.10736" lon="2.59615">
        <ele>1017.69</ele>
        <time>2019-05-31T16:25:53Z</time>
      </trkpt>
      <trkpt lat="45.10722" lon="2.5958">
        <ele>1016.73</ele>
        <time>2019-05-31T16:26:20Z</time>
      </trkpt>
      <trkpt lat="45.10705" lon="2.59533">
        <ele>1015.77</ele>
        <time>2019-05-31T16:26:55Z</time>
      </trkpt>
      <trkpt lat="45.10692" lon="2.59492">
        <ele>1015.77</ele>
        <time>2019-05-31T16:27:26Z</time>
      </trkpt>
      <trkpt lat="45.10675" lon="2.59447">
        <ele>1013.85</ele>
        <time>2019-05-31T16:28:01Z</time>
      </trkpt>
      <trkpt lat="45.10658" lon="2.59417">
        <ele>1012.41</ele>
        <time>2019-05-31T16:28:31Z</time>
      </trkpt>
      <trkpt lat="45.10645" lon="2.59367">
        <ele>1011.93</ele>
        <time>2019-05-31T16:29:08Z</time>
      </trkpt>
      <trkpt lat="45.10638" lon="2.59327">
        <ele>1011.44</ele>
        <time>2019-05-31T16:29:36Z</time>
      </trkpt>
      <trkpt lat="45.10614" lon="2.59292">
        <ele>1010.48</ele>
        <time>2019-05-31T16:30:10Z</time>
      </trkpt>
      <trkpt lat="45.10599" lon="2.59243">
        <ele>1009.04</ele>
        <time>2019-05-31T16:30:44Z</time>
      </trkpt>
      <trkpt lat="45.10584" lon="2.59213">
        <ele>1009.04</ele>
        <time>2019-05-31T16:31:25Z</time>
      </trkpt>
      <trkpt lat="45.1057" lon="2.59178">
        <ele>1009.04</ele>
        <time>2019-05-31T16:32:58Z</time>
      </trkpt>
      <trkpt lat="45.10554" lon="2.59121">
        <ele>1009.04</ele>
        <time>2019-05-31T16:33:43Z</time>
      </trkpt>
      <trkpt lat="45.10535" lon="2.59079">
        <ele>1007.6</ele>
        <time>2019-05-31T16:34:20Z</time>
      </trkpt>
      <trkpt lat="45.10515" lon="2.59064">
        <ele>1005.2</ele>
        <time>2019-05-31T16:34:43Z</time>
      </trkpt>
      <trkpt lat="45.10487" lon="2.59043">
        <ele>1003.27</ele>
        <time>2019-05-31T16:35:17Z</time>
      </trkpt>
      <trkpt lat="45.10461" lon="2.59006">
        <ele>1003.27</ele>
        <time>2019-05-31T16:35:52Z</time>
      </trkpt>
      <trkpt lat="45.10447" lon="2.58973">
        <ele>1003.27</ele>
        <time>2019-05-31T16:36:17Z</time>
      </trkpt>
      <trkpt lat="45.10423" lon="2.58927">
        <ele>1004.72</ele>
        <time>2019-05-31T16:36:56Z</time>
      </trkpt>
      <trkpt lat="45.10395" lon="2.58893">
        <ele>1003.75</ele>
        <time>2019-05-31T16:37:32Z</time>
      </trkpt>
      <trkpt lat="45.1037" lon="2.5886">
        <ele>1003.75</ele>
        <time>2019-05-31T16:38:03Z</time>
      </trkpt>
      <trkpt lat="45.10353" lon="2.58836">
        <ele>1003.75</ele>
        <time>2019-05-31T16:38:24Z</time>
      </trkpt>
      <trkpt lat="45.10328" lon="2.58804">
        <ele>1003.27</ele>
        <time>2019-05-31T16:38:56Z</time>
      </trkpt>
      <trkpt lat="45.10299" lon="2.58786">
        <ele>1000.39</ele>
        <time>2019-05-31T16:39:30Z</time>
      </trkpt>
      <trkpt lat="45.10268" lon="2.58769">
        <ele>996.54</ele>
        <time>2019-05-31T16:40:02Z</time>
      </trkpt>
      <trkpt lat="45.10243" lon="2.58746">
        <ele>995.1</ele>
        <time>2019-05-31T16:40:28Z</time>
      </trkpt>
      <trkpt lat="45.10218" lon="2.58718">
        <ele>993.66</ele>
        <time>2019-05-31T16:40:55Z</time>
      </trkpt>
      <trkpt lat="45.10205" lon="2.58693">
        <ele>992.7</ele>
        <time>2019-05-31T16:41:16Z</time>
      </trkpt>
      <trkpt lat="45.10191" lon="2.58649">
        <ele>991.26</ele>
        <time>2019-05-31T16:41:51Z</time>
      </trkpt>
      <trkpt lat="45.10186" lon="2.58611">
        <ele>995.1</ele>
        <time>2019-05-31T16:42:22Z</time>
      </trkpt>
      <trkpt lat="45.10185" lon="2.58578">
        <ele>997.51</ele>
        <time>2019-05-31T16:42:50Z</time>
      </trkpt>
      <trkpt lat="45.10182" lon="2.58529">
        <ele>1001.35</ele>
        <time>2019-05-31T16:43:32Z</time>
      </trkpt>
      <trkpt lat="45.10179" lon="2.5848">
        <ele>1002.31</ele>
        <time>2019-05-31T16:44:08Z</time>
      </trkpt>
      <trkpt lat="45.10175" lon="2.58426">
        <ele>1000.87</ele>
        <time>2019-05-31T16:44:44Z</time>
      </trkpt>
      <trkpt lat="45.10175" lon="2.58392">
        <ele>1000.39</ele>
        <time>2019-05-31T16:45:08Z</time>
      </trkpt>
      <trkpt lat="45.10176" lon="2.58357">
        <ele>998.95</ele>
        <time>2019-05-31T16:45:35Z</time>
      </trkpt>
      <trkpt lat="45.10169" lon="2.58349">
        <ele>998.95</ele>
        <time>2019-05-31T16:46:54Z</time>
      </trkpt>
      <trkpt lat="45.10177" lon="2.58351">
        <ele>993.18</ele>
        <time>2019-06-01T06:35:24Z</time>
      </trkpt>
      <trkpt lat="45.10176" lon="2.58353">
        <ele>996.06</ele>
        <time>2019-06-01T06:40:27Z</time>
      </trkpt>
      <trkpt lat="45.10184" lon="2.58375">
        <ele>996.06</ele>
        <time>2019-06-01T06:42:02Z</time>
      </trkpt>
      <trkpt lat="45.10179" lon="2.58413">
        <ele>997.51</ele>
        <time>2019-06-01T06:42:37Z</time>
      </trkpt>
      <trkpt lat="45.1018" lon="2.58457">
        <ele>997.51</ele>
        <time>2019-06-01T06:43:22Z</time>
      </trkpt>
      <trkpt lat="45.10182" lon="2.58496">
        <ele>997.99</ele>
        <time>2019-06-01T06:43:51Z</time>
      </trkpt>
      <trkpt lat="45.10185" lon="2.5854">
        <ele>997.02</ele>
        <time>2019-06-01T06:44:27Z</time>
      </trkpt>
      <trkpt lat="45.10189" lon="2.58584">
        <ele>993.18</ele>
        <time>2019-06-01T06:45:03Z</time>
      </trkpt>
      <trkpt lat="45.10191" lon="2.58625">
        <ele>989.81</ele>
        <time>2019-06-01T06:45:34Z</time>
      </trkpt>
      <trkpt lat="45.10192" lon="2.58674">
        <ele>985.97</ele>
        <time>2019-06-01T06:46:12Z</time>
      </trkpt>
      <trkpt lat="45.10197" lon="2.58708">
        <ele>983.09</ele>
        <time>2019-06-01T06:46:40Z</time>
      </trkpt>
      <trkpt lat="45.10211" lon="2.58752">
        <ele>980.2</ele>
        <time>2019-06-01T06:47:14Z</time>
      </trkpt>
      <trkpt lat="45.10228" lon="2.58789">
        <ele>976.36</ele>
        <time>2019-06-01T06:47:46Z</time>
      </trkpt>
      <trkpt lat="45.10247" lon="2.58837">
        <ele>972.51</ele>
        <time>2019-06-01T06:48:25Z</time>
      </trkpt>
      <trkpt lat="45.1026" lon="2.58884">
        <ele>967.7</ele>
        <time>2019-06-01T06:49:03Z</time>
      </trkpt>
      <trkpt lat="45.10279" lon="2.58923">
        <ele>964.34</ele>
        <time>2019-06-01T06:49:38Z</time>
      </trkpt>
      <trkpt lat="45.10298" lon="2.58965">
        <ele>960.49</ele>
        <time>2019-06-01T06:50:14Z</time>
      </trkpt>
      <trkpt lat="45.10313" lon="2.58991">
        <ele>958.09</ele>
        <time>2019-06-01T06:50:38Z</time>
      </trkpt>
      <trkpt lat="45.10332" lon="2.59042">
        <ele>954.25</ele>
        <time>2019-06-01T06:51:18Z</time>
      </trkpt>
      <trkpt lat="45.10341" lon="2.59078">
        <ele>950.4</ele>
        <time>2019-06-01T06:51:46Z</time>
      </trkpt>
      <trkpt lat="45.10333" lon="2.59113">
        <ele>948</ele>
        <time>2019-06-01T06:52:12Z</time>
      </trkpt>
      <trkpt lat="45.10311" lon="2.59132">
        <ele>945.59</ele>
        <time>2019-06-01T06:52:36Z</time>
      </trkpt>
      <trkpt lat="45.10294" lon="2.59152">
        <ele>943.67</ele>
        <time>2019-06-01T06:54:58Z</time>
      </trkpt>
      <trkpt lat="45.10273" lon="2.59169">
        <ele>941.27</ele>
        <time>2019-06-01T06:55:18Z</time>
      </trkpt>
      <trkpt lat="45.10254" lon="2.59188">
        <ele>940.79</ele>
        <time>2019-06-01T06:55:38Z</time>
      </trkpt>
      <trkpt lat="45.10221" lon="2.5923">
        <ele>942.23</ele>
        <time>2019-06-01T06:56:15Z</time>
      </trkpt>
      <trkpt lat="45.10221" lon="2.59297">
        <ele>942.23</ele>
        <time>2019-06-01T06:56:55Z</time>
      </trkpt>
      <trkpt lat="45.10232" lon="2.59339">
        <ele>942.71</ele>
        <time>2019-06-01T06:57:24Z</time>
      </trkpt>
      <trkpt lat="45.10267" lon="2.59372">
        <ele>943.67</ele>
        <time>2019-06-01T06:58:02Z</time>
      </trkpt>
      <trkpt lat="45.10281" lon="2.594">
        <ele>942.23</ele>
        <time>2019-06-01T06:58:24Z</time>
      </trkpt>
      <trkpt lat="45.10296" lon="2.59453">
        <ele>942.71</ele>
        <time>2019-06-01T06:59:02Z</time>
      </trkpt>
      <trkpt lat="45.10309" lon="2.59492">
        <ele>946.07</ele>
        <time>2019-06-01T06:59:35Z</time>
      </trkpt>
      <trkpt lat="45.10334" lon="2.59524">
        <ele>949.44</ele>
        <time>2019-06-01T07:00:11Z</time>
      </trkpt>
      <trkpt lat="45.10352" lon="2.5955">
        <ele>949.92</ele>
        <time>2019-06-01T07:00:38Z</time>
      </trkpt>
      <trkpt lat="45.10386" lon="2.59562">
        <ele>952.32</ele>
        <time>2019-06-01T07:01:12Z</time>
      </trkpt>
      <trkpt lat="45.10408" lon="2.59578">
        <ele>953.77</ele>
        <time>2019-06-01T07:01:47Z</time>
      </trkpt>
      <trkpt lat="45.10439" lon="2.5961">
        <ele>954.73</ele>
        <time>2019-06-01T07:02:24Z</time>
      </trkpt>
      <trkpt lat="45.10452" lon="2.59646">
        <ele>953.77</ele>
        <time>2019-06-01T07:02:50Z</time>
      </trkpt>
      <trkpt lat="45.10445" lon="2.59676">
        <ele>953.77</ele>
        <time>2019-06-01T07:03:11Z</time>
      </trkpt>
      <trkpt lat="45.10446" lon="2.59715">
        <ele>957.61</ele>
        <time>2019-06-01T07:03:41Z</time>
      </trkpt>
      <trkpt lat="45.10454" lon="2.59748">
        <ele>961.46</ele>
        <time>2019-06-01T07:04:11Z</time>
      </trkpt>
      <trkpt lat="45.10462" lon="2.59778">
        <ele>965.3</ele>
        <time>2019-06-01T07:04:40Z</time>
      </trkpt>
      <trkpt lat="45.10469" lon="2.59814">
        <ele>968.67</ele>
        <time>2019-06-01T07:05:12Z</time>
      </trkpt>
      <trkpt lat="45.10486" lon="2.59848">
        <ele>972.03</ele>
        <time>2019-06-01T07:05:44Z</time>
      </trkpt>
      <trkpt lat="45.10503" lon="2.59886">
        <ele>973.95</ele>
        <time>2019-06-01T07:06:17Z</time>
      </trkpt>
      <trkpt lat="45.10522" lon="2.59927">
        <ele>976.36</ele>
        <time>2019-06-01T07:06:51Z</time>
      </trkpt>
      <trkpt lat="45.10542" lon="2.59962">
        <ele>978.76</ele>
        <time>2019-06-01T07:07:24Z</time>
      </trkpt>
      <trkpt lat="45.10565" lon="2.59994">
        <ele>981.64</ele>
        <time>2019-06-01T07:07:57Z</time>
      </trkpt>
      <trkpt lat="45.10592" lon="2.60035">
        <ele>987.41</ele>
        <time>2019-06-01T07:08:44Z</time>
      </trkpt>
      <trkpt lat="45.10608" lon="2.60065">
        <ele>990.78</ele>
        <time>2019-06-01T07:09:15Z</time>
      </trkpt>
      <trkpt lat="45.10624" lon="2.60095">
        <ele>994.14</ele>
        <time>2019-06-01T07:09:46Z</time>
      </trkpt>
      <trkpt lat="45.10639" lon="2.60126">
        <ele>997.99</ele>
        <time>2019-06-01T07:10:18Z</time>
      </trkpt>
      <trkpt lat="45.10658" lon="2.60148">
        <ele>1001.35</ele>
        <time>2019-06-01T07:10:48Z</time>
      </trkpt>
      <trkpt lat="45.10683" lon="2.60157">
        <ele>1004.72</ele>
        <time>2019-06-01T07:11:16Z</time>
      </trkpt>
      <trkpt lat="45.10708" lon="2.60164">
        <ele>1008.08</ele>
        <time>2019-06-01T07:11:46Z</time>
      </trkpt>
      <trkpt lat="45.10735" lon="2.6017">
        <ele>1012.41</ele>
        <time>2019-06-01T07:12:17Z</time>
      </trkpt>
      <trkpt lat="45.10757" lon="2.60188">
        <ele>1015.29</ele>
        <time>2019-06-01T07:12:48Z</time>
      </trkpt>
      <trkpt lat="45.10771" lon="2.60204">
        <ele>1017.69</ele>
        <time>2019-06-01T07:14:23Z</time>
      </trkpt>
      <trkpt lat="45.10793" lon="2.60224">
        <ele>1021.54</ele>
        <time>2019-06-01T07:15:02Z</time>
      </trkpt>
      <trkpt lat="45.10812" lon="2.60246">
        <ele>1025.38</ele>
        <time>2019-06-01T07:15:37Z</time>
      </trkpt>
      <trkpt lat="45.10833" lon="2.60259">
        <ele>1027.79</ele>
        <time>2019-06-01T07:16:06Z</time>
      </trkpt>
      <trkpt lat="45.10862" lon="2.60279">
        <ele>1032.59</ele>
        <time>2019-06-01T07:16:50Z</time>
      </trkpt>
      <trkpt lat="45.10888" lon="2.60303">
        <ele>1035.96</ele>
        <time>2019-06-01T07:17:30Z</time>
      </trkpt>
      <trkpt lat="45.10913" lon="2.60335">
        <ele>1040.28</ele>
        <time>2019-06-01T07:18:12Z</time>
      </trkpt>
      <trkpt lat="45.10938" lon="2.60365">
        <ele>1044.13</ele>
        <time>2019-06-01T07:18:53Z</time>
      </trkpt>
      <trkpt lat="45.10961" lon="2.60394">
        <ele>1047.01</ele>
        <time>2019-06-01T07:19:31Z</time>
      </trkpt>
      <trkpt lat="45.1098" lon="2.6042">
        <ele>1048.45</ele>
        <time>2019-06-01T07:20:01Z</time>
      </trkpt>
      <trkpt lat="45.10999" lon="2.60446">
        <ele>1051.34</ele>
        <time>2019-06-01T07:20:31Z</time>
      </trkpt>
      <trkpt lat="45.11014" lon="2.6047">
        <ele>1053.26</ele>
        <time>2019-06-01T07:20:59Z</time>
      </trkpt>
      <trkpt lat="45.11034" lon="2.60495">
        <ele>1056.63</ele>
        <time>2019-06-01T07:21:31Z</time>
      </trkpt>
      <trkpt lat="45.11057" lon="2.60529">
        <ele>1060.95</ele>
        <time>2019-06-01T07:22:15Z</time>
      </trkpt>
      <trkpt lat="45.11069" lon="2.60564">
        <ele>1063.84</ele>
        <time>2019-06-01T07:22:46Z</time>
      </trkpt>
      <trkpt lat="45.11079" lon="2.60592">
        <ele>1065.76</ele>
        <time>2019-06-01T07:23:21Z</time>
      </trkpt>
      <trkpt lat="45.11088" lon="2.60629">
        <ele>1069.6</ele>
        <time>2019-06-01T07:23:57Z</time>
      </trkpt>
      <trkpt lat="45.11094" lon="2.60672">
        <ele>1072.97</ele>
        <time>2019-06-01T07:24:32Z</time>
      </trkpt>
      <trkpt lat="45.11105" lon="2.6071">
        <ele>1075.85</ele>
        <time>2019-06-01T07:25:05Z</time>
      </trkpt>
      <trkpt lat="45.11113" lon="2.60749">
        <ele>1078.74</ele>
        <time>2019-06-01T07:25:36Z</time>
      </trkpt>
      <trkpt lat="45.11123" lon="2.60788">
        <ele>1081.62</ele>
        <time>2019-06-01T07:26:11Z</time>
      </trkpt>
      <trkpt lat="45.11131" lon="2.60821">
        <ele>1084.5</ele>
        <time>2019-06-01T07:26:38Z</time>
      </trkpt>
      <trkpt lat="45.11143" lon="2.6086">
        <ele>1087.39</ele>
        <time>2019-06-01T07:27:12Z</time>
      </trkpt>
      <trkpt lat="45.1115" lon="2.60891">
        <ele>1089.79</ele>
        <time>2019-06-01T07:27:38Z</time>
      </trkpt>
      <trkpt lat="45.11157" lon="2.60937">
        <ele>1093.16</ele>
        <time>2019-06-01T07:28:16Z</time>
      </trkpt>
      <trkpt lat="45.11165" lon="2.60971">
        <ele>1095.56</ele>
        <time>2019-06-01T07:28:44Z</time>
      </trkpt>
      <trkpt lat="45.11174" lon="2.61009">
        <ele>1098.44</ele>
        <time>2019-06-01T07:29:16Z</time>
      </trkpt>
      <trkpt lat="45.11184" lon="2.61048">
        <ele>1102.29</ele>
        <time>2019-06-01T07:29:51Z</time>
      </trkpt>
      <trkpt lat="45.11191" lon="2.6109">
        <ele>1105.17</ele>
        <time>2019-06-01T07:30:26Z</time>
      </trkpt>
      <trkpt lat="45.11194" lon="2.61127">
        <ele>1108.54</ele>
        <time>2019-06-01T07:30:55Z</time>
      </trkpt>
      <trkpt lat="45.11193" lon="2.61176">
        <ele>1111.9</ele>
        <time>2019-06-01T07:31:31Z</time>
      </trkpt>
      <trkpt lat="45.11195" lon="2.61213">
        <ele>1115.27</ele>
        <time>2019-06-01T07:32:00Z</time>
      </trkpt>
      <trkpt lat="45.11209" lon="2.61248">
        <ele>1118.15</ele>
        <time>2019-06-01T07:32:33Z</time>
      </trkpt>
      <trkpt lat="45.11225" lon="2.61274">
        <ele>1121.03</ele>
        <time>2019-06-01T07:33:01Z</time>
      </trkpt>
      <trkpt lat="45.1124" lon="2.613">
        <ele>1123.92</ele>
        <time>2019-06-01T07:33:34Z</time>
      </trkpt>
      <trkpt lat="45.11255" lon="2.61323">
        <ele>1126.32</ele>
        <time>2019-06-01T07:34:00Z</time>
      </trkpt>
      <trkpt lat="45.11269" lon="2.61349">
        <ele>1128.24</ele>
        <time>2019-06-01T07:34:23Z</time>
      </trkpt>
      <trkpt lat="45.11283" lon="2.61376">
        <ele>1131.61</ele>
        <time>2019-06-01T07:34:51Z</time>
      </trkpt>
      <trkpt lat="45.11288" lon="2.61415">
        <ele>1134.49</ele>
        <time>2019-06-01T07:35:22Z</time>
      </trkpt>
      <trkpt lat="45.11292" lon="2.61456">
        <ele>1137.86</ele>
        <time>2019-06-01T07:35:57Z</time>
      </trkpt>
      <trkpt lat="45.11302" lon="2.61495">
        <ele>1141.7</ele>
        <time>2019-06-01T07:36:32Z</time>
      </trkpt>
      <trkpt lat="45.11304" lon="2.61534">
        <ele>1144.11</ele>
        <time>2019-06-01T07:37:03Z</time>
      </trkpt>
      <trkpt lat="45.11317" lon="2.61574">
        <ele>1147.47</ele>
        <time>2019-06-01T07:37:40Z</time>
      </trkpt>
      <trkpt lat="45.11336" lon="2.61606">
        <ele>1151.32</ele>
        <time>2019-06-01T07:38:16Z</time>
      </trkpt>
      <trkpt lat="45.11344" lon="2.61654">
        <ele>1154.2</ele>
        <time>2019-06-01T07:38:53Z</time>
      </trkpt>
      <trkpt lat="45.11336" lon="2.61694">
        <ele>1157.56</ele>
        <time>2019-06-01T07:39:24Z</time>
      </trkpt>
      <trkpt lat="45.11331" lon="2.61739">
        <ele>1160.93</ele>
        <time>2019-06-01T07:40:01Z</time>
      </trkpt>
      <trkpt lat="45.11331" lon="2.61772">
        <ele>1164.29</ele>
        <time>2019-06-01T07:40:29Z</time>
      </trkpt>
      <trkpt lat="45.11328" lon="2.61803">
        <ele>1166.22</ele>
        <time>2019-06-01T07:40:55Z</time>
      </trkpt>
      <trkpt lat="45.11325" lon="2.61839">
        <ele>1169.1</ele>
        <time>2019-06-01T07:41:23Z</time>
      </trkpt>
      <trkpt lat="45.11335" lon="2.6187">
        <ele>1172.47</ele>
        <time>2019-06-01T07:41:51Z</time>
      </trkpt>
      <trkpt lat="45.11341" lon="2.61904">
        <ele>1174.39</ele>
        <time>2019-06-01T07:42:20Z</time>
      </trkpt>
      <trkpt lat="45.11336" lon="2.61949">
        <ele>1178.23</ele>
        <time>2019-06-01T07:42:56Z</time>
      </trkpt>
      <trkpt lat="45.11325" lon="2.61983">
        <ele>1180.64</ele>
        <time>2019-06-01T07:43:25Z</time>
      </trkpt>
      <trkpt lat="45.11313" lon="2.62021">
        <ele>1184.48</ele>
        <time>2019-06-01T07:44:02Z</time>
      </trkpt>
      <trkpt lat="45.113" lon="2.62059">
        <ele>1187.37</ele>
        <time>2019-06-01T07:44:36Z</time>
      </trkpt>
      <trkpt lat="45.1129" lon="2.6209">
        <ele>1189.29</ele>
        <time>2019-06-01T07:44:59Z</time>
      </trkpt>
      <trkpt lat="45.11293" lon="2.62135">
        <ele>1193.13</ele>
        <time>2019-06-01T07:45:38Z</time>
      </trkpt>
      <trkpt lat="45.11288" lon="2.62169">
        <ele>1196.5</ele>
        <time>2019-06-01T07:46:06Z</time>
      </trkpt>
      <trkpt lat="45.11289" lon="2.6221">
        <ele>1199.86</ele>
        <time>2019-06-01T07:46:40Z</time>
      </trkpt>
      <trkpt lat="45.11303" lon="2.62254">
        <ele>1202.75</ele>
        <time>2019-06-01T07:47:18Z</time>
      </trkpt>
      <trkpt lat="45.11306" lon="2.62289">
        <ele>1205.15</ele>
        <time>2019-06-01T07:47:47Z</time>
      </trkpt>
      <trkpt lat="45.11312" lon="2.62331">
        <ele>1207.55</ele>
        <time>2019-06-01T07:48:19Z</time>
      </trkpt>
      <trkpt lat="45.11328" lon="2.6236">
        <ele>1209.48</ele>
        <time>2019-06-01T07:48:48Z</time>
      </trkpt>
      <trkpt lat="45.11342" lon="2.62388">
        <ele>1212.36</ele>
        <time>2019-06-01T07:49:17Z</time>
      </trkpt>
      <trkpt lat="45.11356" lon="2.62418">
        <ele>1214.76</ele>
        <time>2019-06-01T07:49:45Z</time>
      </trkpt>
      <trkpt lat="45.11373" lon="2.62459">
        <ele>1218.61</ele>
        <time>2019-06-01T07:50:26Z</time>
      </trkpt>
      <trkpt lat="45.11384" lon="2.62489">
        <ele>1221.49</ele>
        <time>2019-06-01T07:50:55Z</time>
      </trkpt>
      <trkpt lat="45.11401" lon="2.62517">
        <ele>1223.42</ele>
        <time>2019-06-01T07:51:26Z</time>
      </trkpt>
      <trkpt lat="45.11422" lon="2.62554">
        <ele>1227.26</ele>
        <time>2019-06-01T07:52:05Z</time>
      </trkpt>
      <trkpt lat="45.11432" lon="2.62591">
        <ele>1231.11</ele>
        <time>2019-06-01T07:52:41Z</time>
      </trkpt>
      <trkpt lat="45.11449" lon="2.62616">
        <ele>1233.03</ele>
        <time>2019-06-01T07:53:11Z</time>
      </trkpt>
      <trkpt lat="45.11477" lon="2.62633">
        <ele>1235.91</ele>
        <time>2019-06-01T07:53:47Z</time>
      </trkpt>
      <trkpt lat="45.11492" lon="2.62656">
        <ele>1238.32</ele>
        <time>2019-06-01T07:54:13Z</time>
      </trkpt>
      <trkpt lat="45.11513" lon="2.62673">
        <ele>1239.76</ele>
        <time>2019-06-01T07:55:03Z</time>
      </trkpt>
      <trkpt lat="45.11508" lon="2.62677">
        <ele>1239.76</ele>
        <time>2019-06-01T07:56:23Z</time>
      </trkpt>
      <trkpt lat="45.11484" lon="2.62679">
        <ele>1240.72</ele>
        <time>2019-06-01T07:56:51Z</time>
      </trkpt>
      <trkpt lat="45.11475" lon="2.6269">
        <ele>1245.04</ele>
        <time>2019-06-01T07:57:44Z</time>
      </trkpt>
      <trkpt lat="45.11491" lon="2.62717">
        <ele>1249.37</ele>
        <time>2019-06-01T07:58:32Z</time>
      </trkpt>
      <trkpt lat="45.1151" lon="2.62734">
        <ele>1255.14</ele>
        <time>2019-06-01T07:59:22Z</time>
      </trkpt>
      <trkpt lat="45.11511" lon="2.62766">
        <ele>1260.91</ele>
        <time>2019-06-01T08:00:07Z</time>
      </trkpt>
      <trkpt lat="45.11535" lon="2.62777">
        <ele>1264.75</ele>
        <time>2019-06-01T08:00:48Z</time>
      </trkpt>
      <trkpt lat="45.11553" lon="2.62794">
        <ele>1268.6</ele>
        <time>2019-06-01T08:01:28Z</time>
      </trkpt>
      <trkpt lat="45.11562" lon="2.62814">
        <ele>1274.36</ele>
        <time>2019-06-01T08:02:28Z</time>
      </trkpt>
      <trkpt lat="45.11558" lon="2.62831">
        <ele>1276.77</ele>
        <time>2019-06-01T08:03:47Z</time>
      </trkpt>
      <trkpt lat="45.11541" lon="2.62853">
        <ele>1281.09</ele>
        <time>2019-06-01T08:04:22Z</time>
      </trkpt>
      <trkpt lat="45.11539" lon="2.62896">
        <ele>1284.46</ele>
        <time>2019-06-01T08:05:01Z</time>
      </trkpt>
      <trkpt lat="45.11547" lon="2.62921">
        <ele>1287.34</ele>
        <time>2019-06-01T08:05:52Z</time>
      </trkpt>
      <trkpt lat="45.1156" lon="2.62949">
        <ele>1287.34</ele>
        <time>2019-06-01T08:06:54Z</time>
      </trkpt>
      <trkpt lat="45.1158" lon="2.62971">
        <ele>1291.19</ele>
        <time>2019-06-01T08:08:57Z</time>
      </trkpt>
      <trkpt lat="45.11595" lon="2.63003">
        <ele>1294.07</ele>
        <time>2019-06-01T08:09:32Z</time>
      </trkpt>
      <trkpt lat="45.11599" lon="2.63036">
        <ele>1296.96</ele>
        <time>2019-06-01T08:09:58Z</time>
      </trkpt>
      <trkpt lat="45.11602" lon="2.63077">
        <ele>1301.28</ele>
        <time>2019-06-01T08:10:37Z</time>
      </trkpt>
      <trkpt lat="45.11611" lon="2.63109">
        <ele>1305.13</ele>
        <time>2019-06-01T08:11:11Z</time>
      </trkpt>
      <trkpt lat="45.11626" lon="2.63133">
        <ele>1308.97</ele>
        <time>2019-06-01T08:11:52Z</time>
      </trkpt>
      <trkpt lat="45.11645" lon="2.63166">
        <ele>1314.74</ele>
        <time>2019-06-01T08:12:35Z</time>
      </trkpt>
      <trkpt lat="45.11667" lon="2.63176">
        <ele>1319.07</ele>
        <time>2019-06-01T08:13:13Z</time>
      </trkpt>
      <trkpt lat="45.11685" lon="2.63194">
        <ele>1323.39</ele>
        <time>2019-06-01T08:13:49Z</time>
      </trkpt>
      <trkpt lat="45.11691" lon="2.63227">
        <ele>1329.16</ele>
        <time>2019-06-01T08:14:44Z</time>
      </trkpt>
      <trkpt lat="45.11692" lon="2.6326">
        <ele>1335.41</ele>
        <time>2019-06-01T08:15:35Z</time>
      </trkpt>
      <trkpt lat="45.11695" lon="2.63294">
        <ele>1341.66</ele>
        <time>2019-06-01T08:16:19Z</time>
      </trkpt>
      <trkpt lat="45.117" lon="2.63326">
        <ele>1347.91</ele>
        <time>2019-06-01T08:17:16Z</time>
      </trkpt>
      <trkpt lat="45.11702" lon="2.63362">
        <ele>1354.15</ele>
        <time>2019-06-01T08:18:10Z</time>
      </trkpt>
      <trkpt lat="45.11702" lon="2.63394">
        <ele>1359.92</ele>
        <time>2019-06-01T08:18:56Z</time>
      </trkpt>
      <trkpt lat="45.117" lon="2.63428">
        <ele>1366.17</ele>
        <time>2019-06-01T08:19:44Z</time>
      </trkpt>
      <trkpt lat="45.11691" lon="2.63468">
        <ele>1370.98</ele>
        <time>2019-06-01T08:20:27Z</time>
      </trkpt>
      <trkpt lat="45.11681" lon="2.63505">
        <ele>1374.34</ele>
        <time>2019-06-01T08:21:04Z</time>
      </trkpt>
      <trkpt lat="45.11675" lon="2.63539">
        <ele>1377.23</ele>
        <time>2019-06-01T08:21:39Z</time>
      </trkpt>
      <trkpt lat="45.11664" lon="2.63584">
        <ele>1379.63</ele>
        <time>2019-06-01T08:22:25Z</time>
      </trkpt>
      <trkpt lat="45.11657" lon="2.63617">
        <ele>1383.47</ele>
        <time>2019-06-01T08:23:03Z</time>
      </trkpt>
      <trkpt lat="45.11655" lon="2.63653">
        <ele>1388.76</ele>
        <time>2019-06-01T08:23:35Z</time>
      </trkpt>
      <trkpt lat="45.11652" lon="2.63696">
        <ele>1393.57</ele>
        <time>2019-06-01T08:24:10Z</time>
      </trkpt>
      <trkpt lat="45.11643" lon="2.63733">
        <ele>1398.86</ele>
        <time>2019-06-01T08:24:42Z</time>
      </trkpt>
      <trkpt lat="45.11638" lon="2.63764">
        <ele>1405.1</ele>
        <time>2019-06-01T08:25:11Z</time>
      </trkpt>
      <trkpt lat="45.11621" lon="2.63798">
        <ele>1411.35</ele>
        <time>2019-06-01T08:25:51Z</time>
      </trkpt>
      <trkpt lat="45.11611" lon="2.63831">
        <ele>1419.04</ele>
        <time>2019-06-01T08:26:28Z</time>
      </trkpt>
      <trkpt lat="45.11593" lon="2.6386">
        <ele>1429.14</ele>
        <time>2019-06-01T08:27:21Z</time>
      </trkpt>
      <trkpt lat="45.11575" lon="2.63887">
        <ele>1440.19</ele>
        <time>2019-06-01T08:28:15Z</time>
      </trkpt>
      <trkpt lat="45.11558" lon="2.63912">
        <ele>1449.81</ele>
        <time>2019-06-01T08:29:02Z</time>
      </trkpt>
      <trkpt lat="45.11544" lon="2.63939">
        <ele>1458.46</ele>
        <time>2019-06-01T08:29:57Z</time>
      </trkpt>
      <trkpt lat="45.11545" lon="2.63972">
        <ele>1471.44</ele>
        <time>2019-06-01T08:31:02Z</time>
      </trkpt>
      <trkpt lat="45.1154" lon="2.64004">
        <ele>1481.05</ele>
        <time>2019-06-01T08:31:55Z</time>
      </trkpt>
      <trkpt lat="45.11524" lon="2.64017">
        <ele>1486.34</ele>
        <time>2019-06-01T08:32:55Z</time>
      </trkpt>
      <trkpt lat="45.11501" lon="2.64033">
        <ele>1492.58</ele>
        <time>2019-06-01T08:33:46Z</time>
      </trkpt>
      <trkpt lat="45.11513" lon="2.64057">
        <ele>1500.76</ele>
        <time>2019-06-01T08:34:54Z</time>
      </trkpt>
      <trkpt lat="45.11518" lon="2.64068">
        <ele>1504.6</ele>
        <time>2019-06-01T08:36:37Z</time>
      </trkpt>
      <trkpt lat="45.11493" lon="2.64077">
        <ele>1508.45</ele>
        <time>2019-06-01T08:37:15Z</time>
      </trkpt>
      <trkpt lat="45.11464" lon="2.64082">
        <ele>1511.33</ele>
        <time>2019-06-01T08:38:24Z</time>
      </trkpt>
      <trkpt lat="45.11443" lon="2.64066">
        <ele>1511.81</ele>
        <time>2019-06-01T08:38:54Z</time>
      </trkpt>
      <trkpt lat="45.11422" lon="2.64052">
        <ele>1511.81</ele>
        <time>2019-06-01T08:39:19Z</time>
      </trkpt>
      <trkpt lat="45.1139" lon="2.6403">
        <ele>1509.41</ele>
        <time>2019-06-01T08:39:58Z</time>
      </trkpt>
      <trkpt lat="45.11364" lon="2.6402">
        <ele>1510.85</ele>
        <time>2019-06-01T08:40:29Z</time>
      </trkpt>
      <trkpt lat="45.11347" lon="2.64011">
        <ele>1512.29</ele>
        <time>2019-06-01T08:45:15Z</time>
      </trkpt>
      <trkpt lat="45.11331" lon="2.63999">
        <ele>1511.33</ele>
        <time>2019-06-01T08:46:13Z</time>
      </trkpt>
      <trkpt lat="45.11324" lon="2.6398">
        <ele>1509.89</ele>
        <time>2019-06-01T08:50:48Z</time>
      </trkpt>
      <trkpt lat="45.11304" lon="2.63961">
        <ele>1512.29</ele>
        <time>2019-06-01T08:51:31Z</time>
      </trkpt>
      <trkpt lat="45.11281" lon="2.63927">
        <ele>1513.25</ele>
        <time>2019-06-01T08:52:20Z</time>
      </trkpt>
      <trkpt lat="45.1126" lon="2.63902">
        <ele>1513.25</ele>
        <time>2019-06-01T08:52:54Z</time>
      </trkpt>
      <trkpt lat="45.11235" lon="2.63883">
        <ele>1517.1</ele>
        <time>2019-06-01T08:53:32Z</time>
      </trkpt>
      <trkpt lat="45.11207" lon="2.63866">
        <ele>1520.94</ele>
        <time>2019-06-01T08:54:12Z</time>
      </trkpt>
      <trkpt lat="45.11186" lon="2.63856">
        <ele>1522.87</ele>
        <time>2019-06-01T08:54:40Z</time>
      </trkpt>
      <trkpt lat="45.11161" lon="2.63843">
        <ele>1524.79</ele>
        <time>2019-06-01T08:55:13Z</time>
      </trkpt>
      <trkpt lat="45.11134" lon="2.63839">
        <ele>1528.63</ele>
        <time>2019-06-01T08:55:49Z</time>
      </trkpt>
      <trkpt lat="45.11114" lon="2.63821">
        <ele>1534.4</ele>
        <time>2019-06-01T08:56:36Z</time>
      </trkpt>
      <trkpt lat="45.11091" lon="2.63813">
        <ele>1538.25</ele>
        <time>2019-06-01T08:57:10Z</time>
      </trkpt>
      <trkpt lat="45.1107" lon="2.63799">
        <ele>1542.09</ele>
        <time>2019-06-01T08:57:50Z</time>
      </trkpt>
      <trkpt lat="45.11053" lon="2.63776">
        <ele>1545.94</ele>
        <time>2019-06-01T08:58:24Z</time>
      </trkpt>
      <trkpt lat="45.11032" lon="2.63756">
        <ele>1553.63</ele>
        <time>2019-06-01T08:59:10Z</time>
      </trkpt>
      <trkpt lat="45.11009" lon="2.63769">
        <ele>1560.36</ele>
        <time>2019-06-01T08:59:56Z</time>
      </trkpt>
      <trkpt lat="45.10996" lon="2.63795">
        <ele>1566.61</ele>
        <time>2019-06-01T09:00:40Z</time>
      </trkpt>
      <trkpt lat="45.10978" lon="2.63777">
        <ele>1567.57</ele>
        <time>2019-06-01T09:01:19Z</time>
      </trkpt>
      <trkpt lat="45.10972" lon="2.63776">
        <ele>1567.09</ele>
        <time>2019-06-01T09:13:21Z</time>
      </trkpt>
      <trkpt lat="45.10972" lon="2.63778">
        <ele>1567.57</ele>
        <time>2019-06-01T09:24:22Z</time>
      </trkpt>
      <trkpt lat="45.10987" lon="2.63793">
        <ele>1570.45</ele>
        <time>2019-06-01T09:26:15Z</time>
      </trkpt>
      <trkpt lat="45.10991" lon="2.63825">
        <ele>1568.53</ele>
        <time>2019-06-01T09:26:44Z</time>
      </trkpt>
      <trkpt lat="45.10988" lon="2.63864">
        <ele>1563.72</ele>
        <time>2019-06-01T09:27:28Z</time>
      </trkpt>
      <trkpt lat="45.10981" lon="2.63909">
        <ele>1556.51</ele>
        <time>2019-06-01T09:28:24Z</time>
      </trkpt>
      <trkpt lat="45.10967" lon="2.6395">
        <ele>1556.03</ele>
        <time>2019-06-01T09:28:57Z</time>
      </trkpt>
      <trkpt lat="45.10959" lon="2.63982">
        <ele>1553.63</ele>
        <time>2019-06-01T09:30:09Z</time>
      </trkpt>
      <trkpt lat="45.10953" lon="2.64013">
        <ele>1550.74</ele>
        <time>2019-06-01T09:30:35Z</time>
      </trkpt>
      <trkpt lat="45.10945" lon="2.64051">
        <ele>1546.42</ele>
        <time>2019-06-01T09:31:13Z</time>
      </trkpt>
      <trkpt lat="45.10938" lon="2.64082">
        <ele>1545.94</ele>
        <time>2019-06-01T09:31:37Z</time>
      </trkpt>
      <trkpt lat="45.10932" lon="2.64114">
        <ele>1545.94</ele>
        <time>2019-06-01T09:32:05Z</time>
      </trkpt>
      <trkpt lat="45.10923" lon="2.6416">
        <ele>1545.94</ele>
        <time>2019-06-01T09:32:44Z</time>
      </trkpt>
      <trkpt lat="45.10917" lon="2.64192">
        <ele>1545.46</ele>
        <time>2019-06-01T09:33:16Z</time>
      </trkpt>
      <trkpt lat="45.10912" lon="2.64241">
        <ele>1543.05</ele>
        <time>2019-06-01T09:33:58Z</time>
      </trkpt>
      <trkpt lat="45.10917" lon="2.64275">
        <ele>1544.5</ele>
        <time>2019-06-01T09:34:24Z</time>
      </trkpt>
      <trkpt lat="45.10917" lon="2.64308">
        <ele>1544.5</ele>
        <time>2019-06-01T09:34:55Z</time>
      </trkpt>
      <trkpt lat="45.109" lon="2.64345">
        <ele>1543.53</ele>
        <time>2019-06-01T09:35:26Z</time>
      </trkpt>
      <trkpt lat="45.10887" lon="2.64379">
        <ele>1543.05</ele>
        <time>2019-06-01T09:35:52Z</time>
      </trkpt>
      <trkpt lat="45.10868" lon="2.64423">
        <ele>1544.01</ele>
        <time>2019-06-01T09:36:27Z</time>
      </trkpt>
      <trkpt lat="45.10857" lon="2.64452">
        <ele>1544.98</ele>
        <time>2019-06-01T09:36:53Z</time>
      </trkpt>
      <trkpt lat="45.10842" lon="2.64499">
        <ele>1545.46</ele>
        <time>2019-06-01T09:37:34Z</time>
      </trkpt>
      <trkpt lat="45.10831" lon="2.64538">
        <ele>1549.78</ele>
        <time>2019-06-01T09:38:20Z</time>
      </trkpt>
      <trkpt lat="45.1083" lon="2.64573">
        <ele>1555.07</ele>
        <time>2019-06-01T09:39:10Z</time>
      </trkpt>
      <trkpt lat="45.10817" lon="2.64606">
        <ele>1557.95</ele>
        <time>2019-06-01T09:40:45Z</time>
      </trkpt>
      <trkpt lat="45.10798" lon="2.64635">
        <ele>1556.51</ele>
        <time>2019-06-01T09:41:23Z</time>
      </trkpt>
      <trkpt lat="45.10784" lon="2.64652">
        <ele>1553.63</ele>
        <time>2019-06-01T09:42:40Z</time>
      </trkpt>
      <trkpt lat="45.10769" lon="2.64676">
        <ele>1553.15</ele>
        <time>2019-06-01T09:43:02Z</time>
      </trkpt>
      <trkpt lat="45.10749" lon="2.64708">
        <ele>1556.03</ele>
        <time>2019-06-01T09:43:30Z</time>
      </trkpt>
      <trkpt lat="45.10723" lon="2.64745">
        <ele>1558.43</ele>
        <time>2019-06-01T09:44:05Z</time>
      </trkpt>
      <trkpt lat="45.10701" lon="2.64778">
        <ele>1562.76</ele>
        <time>2019-06-01T09:44:42Z</time>
      </trkpt>
      <trkpt lat="45.10684" lon="2.64813">
        <ele>1568.53</ele>
        <time>2019-06-01T09:45:22Z</time>
      </trkpt>
      <trkpt lat="45.10672" lon="2.6485">
        <ele>1574.78</ele>
        <time>2019-06-01T09:46:00Z</time>
      </trkpt>
      <trkpt lat="45.10659" lon="2.64879">
        <ele>1578.62</ele>
        <time>2019-06-01T09:46:29Z</time>
      </trkpt>
      <trkpt lat="45.10642" lon="2.64917">
        <ele>1584.87</ele>
        <time>2019-06-01T09:47:04Z</time>
      </trkpt>
      <trkpt lat="45.10631" lon="2.6495">
        <ele>1590.16</ele>
        <time>2019-06-01T09:47:31Z</time>
      </trkpt>
      <trkpt lat="45.10619" lon="2.64978">
        <ele>1593.04</ele>
        <time>2019-06-01T09:47:53Z</time>
      </trkpt>
      <trkpt lat="45.10598" lon="2.65011">
        <ele>1595.93</ele>
        <time>2019-06-01T09:48:23Z</time>
      </trkpt>
      <trkpt lat="45.10567" lon="2.65045">
        <ele>1598.81</ele>
        <time>2019-06-01T09:48:58Z</time>
      </trkpt>
      <trkpt lat="45.10539" lon="2.65065">
        <ele>1602.17</ele>
        <time>2019-06-01T09:49:27Z</time>
      </trkpt>
      <trkpt lat="45.10517" lon="2.65091">
        <ele>1602.66</ele>
        <time>2019-06-01T09:49:58Z</time>
      </trkpt>
      <trkpt lat="45.10494" lon="2.65124">
        <ele>1599.29</ele>
        <time>2019-06-01T09:50:32Z</time>
      </trkpt>
      <trkpt lat="45.10465" lon="2.6516">
        <ele>1597.37</ele>
        <time>2019-06-01T09:51:09Z</time>
      </trkpt>
      <trkpt lat="45.10448" lon="2.65187">
        <ele>1598.81</ele>
        <time>2019-06-01T09:51:31Z</time>
      </trkpt>
      <trkpt lat="45.10435" lon="2.65216">
        <ele>1602.17</ele>
        <time>2019-06-01T09:51:55Z</time>
      </trkpt>
      <trkpt lat="45.10411" lon="2.65255">
        <ele>1607.46</ele>
        <time>2019-06-01T09:52:29Z</time>
      </trkpt>
      <trkpt lat="45.1039" lon="2.65277">
        <ele>1611.79</ele>
        <time>2019-06-01T09:52:56Z</time>
      </trkpt>
      <trkpt lat="45.10367" lon="2.65295">
        <ele>1616.11</ele>
        <time>2019-06-01T09:53:23Z</time>
      </trkpt>
      <trkpt lat="45.10347" lon="2.65317">
        <ele>1619.48</ele>
        <time>2019-06-01T09:53:45Z</time>
      </trkpt>
      <trkpt lat="45.10322" lon="2.65336">
        <ele>1622.36</ele>
        <time>2019-06-01T09:54:09Z</time>
      </trkpt>
      <trkpt lat="45.10293" lon="2.65352">
        <ele>1625.73</ele>
        <time>2019-06-01T09:54:37Z</time>
      </trkpt>
      <trkpt lat="45.10271" lon="2.65366">
        <ele>1630.05</ele>
        <time>2019-06-01T09:55:04Z</time>
      </trkpt>
      <trkpt lat="45.10249" lon="2.65382">
        <ele>1633.9</ele>
        <time>2019-06-01T09:55:31Z</time>
      </trkpt>
      <trkpt lat="45.10246" lon="2.65401">
        <ele>1636.3</ele>
        <time>2019-06-01T09:57:33Z</time>
      </trkpt>
      <trkpt lat="45.10241" lon="2.65389">
        <ele>1634.86</ele>
        <time>2019-06-01T10:02:52Z</time>
      </trkpt>
      <trkpt lat="45.10215" lon="2.65392">
        <ele>1639.19</ele>
        <time>2019-06-01T10:04:10Z</time>
      </trkpt>
      <trkpt lat="45.1019" lon="2.65399">
        <ele>1646.4</ele>
        <time>2019-06-01T10:05:09Z</time>
      </trkpt>
      <trkpt lat="45.10164" lon="2.65396">
        <ele>1654.57</ele>
        <time>2019-06-01T10:06:09Z</time>
      </trkpt>
      <trkpt lat="45.10146" lon="2.65381">
        <ele>1662.26</ele>
        <time>2019-06-01T10:06:55Z</time>
      </trkpt>
      <trkpt lat="45.10122" lon="2.65382">
        <ele>1671.87</ele>
        <time>2019-06-01T10:07:30Z</time>
      </trkpt>
      <trkpt lat="45.10097" lon="2.65384">
        <ele>1677.16</ele>
        <time>2019-06-01T10:08:04Z</time>
      </trkpt>
      <trkpt lat="45.1007" lon="2.65378">
        <ele>1683.41</ele>
        <time>2019-06-01T10:08:44Z</time>
      </trkpt>
      <trkpt lat="45.10044" lon="2.65363">
        <ele>1685.81</ele>
        <time>2019-06-01T10:09:17Z</time>
      </trkpt>
      <trkpt lat="45.10027" lon="2.65354">
        <ele>1686.29</ele>
        <time>2019-06-01T10:11:46Z</time>
      </trkpt>
      <trkpt lat="45.10006" lon="2.6534">
        <ele>1684.85</ele>
        <time>2019-06-01T10:12:13Z</time>
      </trkpt>
      <trkpt lat="45.09985" lon="2.65324">
        <ele>1686.77</ele>
        <time>2019-06-01T10:12:40Z</time>
      </trkpt>
      <trkpt lat="45.09964" lon="2.65309">
        <ele>1689.65</ele>
        <time>2019-06-01T10:13:10Z</time>
      </trkpt>
      <trkpt lat="45.09946" lon="2.65285">
        <ele>1692.54</ele>
        <time>2019-06-01T10:13:38Z</time>
      </trkpt>
      <trkpt lat="45.09945" lon="2.65249">
        <ele>1693.5</ele>
        <time>2019-06-01T10:14:13Z</time>
      </trkpt>
      <trkpt lat="45.09947" lon="2.65214">
        <ele>1691.1</ele>
        <time>2019-06-01T10:14:55Z</time>
      </trkpt>
      <trkpt lat="45.09943" lon="2.6518">
        <ele>1691.58</ele>
        <time>2019-06-01T10:15:25Z</time>
      </trkpt>
      <trkpt lat="45.09943" lon="2.65141">
        <ele>1686.77</ele>
        <time>2019-06-01T10:16:06Z</time>
      </trkpt>
      <trkpt lat="45.09945" lon="2.65103">
        <ele>1679.08</ele>
        <time>2019-06-01T10:16:48Z</time>
      </trkpt>
      <trkpt lat="45.09934" lon="2.65072">
        <ele>1676.68</ele>
        <time>2019-06-01T10:17:18Z</time>
      </trkpt>
      <trkpt lat="45.09916" lon="2.65047">
        <ele>1679.56</ele>
        <time>2019-06-01T10:17:52Z</time>
      </trkpt>
      <trkpt lat="45.09899" lon="2.6501">
        <ele>1682.93</ele>
        <time>2019-06-01T10:18:41Z</time>
      </trkpt>
      <trkpt lat="45.09887" lon="2.64979">
        <ele>1683.41</ele>
        <time>2019-06-01T10:19:24Z</time>
      </trkpt>
      <trkpt lat="45.0988" lon="2.64948">
        <ele>1682.44</ele>
        <time>2019-06-01T10:19:52Z</time>
      </trkpt>
      <trkpt lat="45.09882" lon="2.64911">
        <ele>1680.52</ele>
        <time>2019-06-01T10:20:39Z</time>
      </trkpt>
      <trkpt lat="45.09865" lon="2.64872">
        <ele>1677.16</ele>
        <time>2019-06-01T10:21:24Z</time>
      </trkpt>
      <trkpt lat="45.09855" lon="2.64839">
        <ele>1674.75</ele>
        <time>2019-06-01T10:21:54Z</time>
      </trkpt>
      <trkpt lat="45.09842" lon="2.64801">
        <ele>1672.83</ele>
        <time>2019-06-01T10:22:29Z</time>
      </trkpt>
      <trkpt lat="45.09828" lon="2.64773">
        <ele>1672.83</ele>
        <time>2019-06-01T10:23:02Z</time>
      </trkpt>
      <trkpt lat="45.09808" lon="2.64756">
        <ele>1681.96</ele>
        <time>2019-06-01T10:24:11Z</time>
      </trkpt>
      <trkpt lat="45.09791" lon="2.64729">
        <ele>1689.65</ele>
        <time>2019-06-01T10:25:30Z</time>
      </trkpt>
      <trkpt lat="45.09788" lon="2.64698">
        <ele>1686.29</ele>
        <time>2019-06-01T10:25:59Z</time>
      </trkpt>
      <trkpt lat="45.09782" lon="2.64653">
        <ele>1683.41</ele>
        <time>2019-06-01T10:26:37Z</time>
      </trkpt>
      <trkpt lat="45.09766" lon="2.64615">
        <ele>1687.25</ele>
        <time>2019-06-01T10:27:20Z</time>
      </trkpt>
      <trkpt lat="45.09756" lon="2.64575">
        <ele>1689.65</ele>
        <time>2019-06-01T10:28:03Z</time>
      </trkpt>
      <trkpt lat="45.09742" lon="2.64586">
        <ele>1699.75</ele>
        <time>2019-06-01T10:29:22Z</time>
      </trkpt>
      <trkpt lat="45.09719" lon="2.64572">
        <ele>1701.67</ele>
        <time>2019-06-01T10:29:57Z</time>
      </trkpt>
      <trkpt lat="45.09699" lon="2.64551">
        <ele>1705.04</ele>
        <time>2019-06-01T10:30:38Z</time>
      </trkpt>
      <trkpt lat="45.09679" lon="2.6453">
        <ele>1713.21</ele>
        <time>2019-06-01T10:31:53Z</time>
      </trkpt>
      <trkpt lat="45.09661" lon="2.64505">
        <ele>1724.26</ele>
        <time>2019-06-01T10:32:54Z</time>
      </trkpt>
      <trkpt lat="45.09637" lon="2.64487">
        <ele>1733.39</ele>
        <time>2019-06-01T10:33:43Z</time>
      </trkpt>
      <trkpt lat="45.09623" lon="2.64474">
        <ele>1732.91</ele>
        <time>2019-06-01T10:35:53Z</time>
      </trkpt>
      <trkpt lat="45.09607" lon="2.64469">
        <ele>1732.43</ele>
        <time>2019-06-01T10:40:14Z</time>
      </trkpt>
      <trkpt lat="45.09569" lon="2.64471">
        <ele>1729.55</ele>
        <time>2019-06-01T10:40:56Z</time>
      </trkpt>
      <trkpt lat="45.09538" lon="2.64487">
        <ele>1730.03</ele>
        <time>2019-06-01T10:41:37Z</time>
      </trkpt>
      <trkpt lat="45.09513" lon="2.64495">
        <ele>1731.95</ele>
        <time>2019-06-01T10:42:14Z</time>
      </trkpt>
      <trkpt lat="45.09506" lon="2.64498">
        <ele>1735.32</ele>
        <time>2019-06-01T10:53:35Z</time>
      </trkpt>
      <trkpt lat="45.09509" lon="2.64502">
        <ele>1735.8</ele>
        <time>2019-06-01T11:10:12Z</time>
      </trkpt>
      <trkpt lat="45.0951" lon="2.64503">
        <ele>1736.76</ele>
        <time>2019-06-01T11:34:01Z</time>
      </trkpt>
      <trkpt lat="45.09509" lon="2.6449">
        <ele>1736.28</ele>
        <time>2019-06-01T11:44:39Z</time>
      </trkpt>
      <trkpt lat="45.09509" lon="2.64454">
        <ele>1730.99</ele>
        <time>2019-06-01T11:45:20Z</time>
      </trkpt>
      <trkpt lat="45.09503" lon="2.64432">
        <ele>1725.7</ele>
        <time>2019-06-01T11:46:00Z</time>
      </trkpt>
      <trkpt lat="45.09476" lon="2.64404">
        <ele>1719.46</ele>
        <time>2019-06-01T11:46:49Z</time>
      </trkpt>
      <trkpt lat="45.0946" lon="2.64375">
        <ele>1713.69</ele>
        <time>2019-06-01T11:47:23Z</time>
      </trkpt>
      <trkpt lat="45.09433" lon="2.64357">
        <ele>1707.92</ele>
        <time>2019-06-01T11:47:59Z</time>
      </trkpt>
      <trkpt lat="45.09397" lon="2.64343">
        <ele>1705.04</ele>
        <time>2019-06-01T11:48:32Z</time>
      </trkpt>
      <trkpt lat="45.09371" lon="2.64338">
        <ele>1704.07</ele>
        <time>2019-06-01T11:48:56Z</time>
      </trkpt>
      <trkpt lat="45.09336" lon="2.64307">
        <ele>1703.59</ele>
        <time>2019-06-01T11:49:34Z</time>
      </trkpt>
      <trkpt lat="45.09308" lon="2.64298">
        <ele>1702.15</ele>
        <time>2019-06-01T11:50:00Z</time>
      </trkpt>
      <trkpt lat="45.09276" lon="2.64278">
        <ele>1699.75</ele>
        <time>2019-06-01T11:50:32Z</time>
      </trkpt>
      <trkpt lat="45.09253" lon="2.64269">
        <ele>1698.31</ele>
        <time>2019-06-01T11:51:00Z</time>
      </trkpt>
      <trkpt lat="45.09229" lon="2.64268">
        <ele>1697.34</ele>
        <time>2019-06-01T11:51:22Z</time>
      </trkpt>
      <trkpt lat="45.09207" lon="2.64265">
        <ele>1693.98</ele>
        <time>2019-06-01T11:51:47Z</time>
      </trkpt>
      <trkpt lat="45.09179" lon="2.64271">
        <ele>1688.69</ele>
        <time>2019-06-01T11:52:22Z</time>
      </trkpt>
      <trkpt lat="45.09153" lon="2.64274">
        <ele>1680.52</ele>
        <time>2019-06-01T11:53:05Z</time>
      </trkpt>
      <trkpt lat="45.0913" lon="2.64284">
        <ele>1669.95</ele>
        <time>2019-06-01T11:53:56Z</time>
      </trkpt>
      <trkpt lat="45.09108" lon="2.64297">
        <ele>1661.78</ele>
        <time>2019-06-01T11:54:39Z</time>
      </trkpt>
      <trkpt lat="45.0909" lon="2.64322">
        <ele>1652.64</ele>
        <time>2019-06-01T11:55:25Z</time>
      </trkpt>
      <trkpt lat="45.09068" lon="2.64337">
        <ele>1645.91</ele>
        <time>2019-06-01T11:56:05Z</time>
      </trkpt>
      <trkpt lat="45.09044" lon="2.64355">
        <ele>1638.7</ele>
        <time>2019-06-01T11:56:46Z</time>
      </trkpt>
      <trkpt lat="45.09024" lon="2.64377">
        <ele>1631.98</ele>
        <time>2019-06-01T11:57:27Z</time>
      </trkpt>
      <trkpt lat="45.09003" lon="2.64393">
        <ele>1627.65</ele>
        <time>2019-06-01T11:57:55Z</time>
      </trkpt>
      <trkpt lat="45.08967" lon="2.64412">
        <ele>1626.69</ele>
        <time>2019-06-01T11:58:31Z</time>
      </trkpt>
      <trkpt lat="45.08941" lon="2.64416">
        <ele>1626.21</ele>
        <time>2019-06-01T11:59:03Z</time>
      </trkpt>
      <trkpt lat="45.08914" lon="2.64411">
        <ele>1621.88</ele>
        <time>2019-06-01T11:59:37Z</time>
      </trkpt>
      <trkpt lat="45.08889" lon="2.64402">
        <ele>1612.27</ele>
        <time>2019-06-01T12:00:35Z</time>
      </trkpt>
      <trkpt lat="45.0888" lon="2.64367">
        <ele>1600.73</ele>
        <time>2019-06-01T12:01:35Z</time>
      </trkpt>
      <trkpt lat="45.08863" lon="2.64372">
        <ele>1592.08</ele>
        <time>2019-06-01T12:02:36Z</time>
      </trkpt>
      <trkpt lat="45.08842" lon="2.64383">
        <ele>1584.87</ele>
        <time>2019-06-01T12:03:17Z</time>
      </trkpt>
      <trkpt lat="45.08819" lon="2.6439">
        <ele>1577.18</ele>
        <time>2019-06-01T12:04:01Z</time>
      </trkpt>
      <trkpt lat="45.08798" lon="2.64392">
        <ele>1569.01</ele>
        <time>2019-06-01T12:04:51Z</time>
      </trkpt>
      <trkpt lat="45.08773" lon="2.64406">
        <ele>1562.28</ele>
        <time>2019-06-01T12:05:36Z</time>
      </trkpt>
      <trkpt lat="45.08751" lon="2.64418">
        <ele>1559.4</ele>
        <time>2019-06-01T12:06:05Z</time>
      </trkpt>
      <trkpt lat="45.08716" lon="2.64433">
        <ele>1553.63</ele>
        <time>2019-06-01T12:06:41Z</time>
      </trkpt>
      <trkpt lat="45.08679" lon="2.64452">
        <ele>1551.71</ele>
        <time>2019-06-01T12:07:16Z</time>
      </trkpt>
      <trkpt lat="45.08646" lon="2.6446">
        <ele>1551.71</ele>
        <time>2019-06-01T12:07:48Z</time>
      </trkpt>
      <trkpt lat="45.08618" lon="2.64454">
        <ele>1553.63</ele>
        <time>2019-06-01T12:08:14Z</time>
      </trkpt>
      <trkpt lat="45.08586" lon="2.64437">
        <ele>1556.03</ele>
        <time>2019-06-01T12:08:47Z</time>
      </trkpt>
      <trkpt lat="45.08561" lon="2.64416">
        <ele>1558.92</ele>
        <time>2019-06-01T12:09:19Z</time>
      </trkpt>
      <trkpt lat="45.08549" lon="2.64419">
        <ele>1556.99</ele>
        <time>2019-06-01T12:12:20Z</time>
      </trkpt>
      <trkpt lat="45.08528" lon="2.64435">
        <ele>1549.78</ele>
        <time>2019-06-01T12:13:21Z</time>
      </trkpt>
      <trkpt lat="45.08504" lon="2.64462">
        <ele>1541.13</ele>
        <time>2019-06-01T12:14:16Z</time>
      </trkpt>
      <trkpt lat="45.08486" lon="2.64488">
        <ele>1532.96</ele>
        <time>2019-06-01T12:14:58Z</time>
      </trkpt>
      <trkpt lat="45.08472" lon="2.64512">
        <ele>1525.75</ele>
        <time>2019-06-01T12:15:31Z</time>
      </trkpt>
      <trkpt lat="45.08454" lon="2.64544">
        <ele>1518.06</ele>
        <time>2019-06-01T12:16:13Z</time>
      </trkpt>
      <trkpt lat="45.0844" lon="2.64579">
        <ele>1512.29</ele>
        <time>2019-06-01T12:16:53Z</time>
      </trkpt>
      <trkpt lat="45.08426" lon="2.64608">
        <ele>1507.97</ele>
        <time>2019-06-01T12:17:21Z</time>
      </trkpt>
      <trkpt lat="45.08407" lon="2.64637">
        <ele>1504.12</ele>
        <time>2019-06-01T12:17:53Z</time>
      </trkpt>
      <trkpt lat="45.08385" lon="2.64634">
        <ele>1497.39</ele>
        <time>2019-06-01T12:18:37Z</time>
      </trkpt>
      <trkpt lat="45.08359" lon="2.64635">
        <ele>1492.58</ele>
        <time>2019-06-01T12:19:10Z</time>
      </trkpt>
      <trkpt lat="45.08337" lon="2.64649">
        <ele>1488.26</ele>
        <time>2019-06-01T12:19:39Z</time>
      </trkpt>
      <trkpt lat="45.08335" lon="2.64658">
        <ele>1484.89</ele>
        <time>2019-06-01T12:20:11Z</time>
      </trkpt>
      <trkpt lat="45.0836" lon="2.64661">
        <ele>1479.13</ele>
        <time>2019-06-01T12:20:43Z</time>
      </trkpt>
      <trkpt lat="45.08383" lon="2.64678">
        <ele>1476.24</ele>
        <time>2019-06-01T12:21:08Z</time>
      </trkpt>
      <trkpt lat="45.08366" lon="2.64678">
        <ele>1470.95</ele>
        <time>2019-06-01T12:21:46Z</time>
      </trkpt>
      <trkpt lat="45.08333" lon="2.64691">
        <ele>1469.03</ele>
        <time>2019-06-01T12:22:22Z</time>
      </trkpt>
      <trkpt lat="45.08317" lon="2.64716">
        <ele>1465.19</ele>
        <time>2019-06-01T12:22:51Z</time>
      </trkpt>
      <trkpt lat="45.08299" lon="2.64754">
        <ele>1460.86</ele>
        <time>2019-06-01T12:23:34Z</time>
      </trkpt>
      <trkpt lat="45.08277" lon="2.64783">
        <ele>1455.57</ele>
        <time>2019-06-01T12:24:17Z</time>
      </trkpt>
      <trkpt lat="45.08258" lon="2.648">
        <ele>1450.77</ele>
        <time>2019-06-01T12:24:48Z</time>
      </trkpt>
      <trkpt lat="45.08223" lon="2.64812">
        <ele>1445.96</ele>
        <time>2019-06-01T12:25:29Z</time>
      </trkpt>
      <trkpt lat="45.08198" lon="2.64806">
        <ele>1439.71</ele>
        <time>2019-06-01T12:25:58Z</time>
      </trkpt>
      <trkpt lat="45.08171" lon="2.64788">
        <ele>1436.35</ele>
        <time>2019-06-01T12:26:31Z</time>
      </trkpt>
      <trkpt lat="45.08157" lon="2.64755">
        <ele>1429.14</ele>
        <time>2019-06-01T12:27:16Z</time>
      </trkpt>
      <trkpt lat="45.08141" lon="2.64723">
        <ele>1422.89</ele>
        <time>2019-06-01T12:28:34Z</time>
      </trkpt>
      <trkpt lat="45.08141" lon="2.64727">
        <ele>1422.41</ele>
        <time>2019-06-01T12:31:50Z</time>
      </trkpt>
      <trkpt lat="45.0813" lon="2.64763">
        <ele>1408.47</ele>
        <time>2019-06-01T12:32:57Z</time>
      </trkpt>
      <trkpt lat="45.08115" lon="2.64792">
        <ele>1401.26</ele>
        <time>2019-06-01T12:33:39Z</time>
      </trkpt>
      <trkpt lat="45.08105" lon="2.64823">
        <ele>1394.53</ele>
        <time>2019-06-01T12:34:20Z</time>
      </trkpt>
      <trkpt lat="45.08088" lon="2.64843">
        <ele>1382.99</ele>
        <time>2019-06-01T12:35:24Z</time>
      </trkpt>
      <trkpt lat="45.08083" lon="2.64879">
        <ele>1372.9</ele>
        <time>2019-06-01T12:36:23Z</time>
      </trkpt>
      <trkpt lat="45.08055" lon="2.64873">
        <ele>1361.36</ele>
        <time>2019-06-01T12:37:24Z</time>
      </trkpt>
      <trkpt lat="45.08058" lon="2.64916">
        <ele>1352.71</ele>
        <time>2019-06-01T12:38:18Z</time>
      </trkpt>
      <trkpt lat="45.08073" lon="2.64951">
        <ele>1345.5</ele>
        <time>2019-06-01T12:39:00Z</time>
      </trkpt>
      <trkpt lat="45.08083" lon="2.64989">
        <ele>1336.85</ele>
        <time>2019-06-01T12:39:46Z</time>
      </trkpt>
      <trkpt lat="45.08088" lon="2.65032">
        <ele>1329.16</ele>
        <time>2019-06-01T12:40:28Z</time>
      </trkpt>
      <trkpt lat="45.08073" lon="2.65055">
        <ele>1321.47</ele>
        <time>2019-06-01T12:41:11Z</time>
      </trkpt>
      <trkpt lat="45.0806" lon="2.65082">
        <ele>1313.78</ele>
        <time>2019-06-01T12:41:53Z</time>
      </trkpt>
      <trkpt lat="45.08039" lon="2.65096">
        <ele>1305.61</ele>
        <time>2019-06-01T12:42:34Z</time>
      </trkpt>
      <trkpt lat="45.08023" lon="2.65122">
        <ele>1296.96</ele>
        <time>2019-06-01T12:43:17Z</time>
      </trkpt>
      <trkpt lat="45.08005" lon="2.65151">
        <ele>1289.27</ele>
        <time>2019-06-01T12:44:01Z</time>
      </trkpt>
      <trkpt lat="45.07989" lon="2.65173">
        <ele>1284.46</ele>
        <time>2019-06-01T12:44:31Z</time>
      </trkpt>
      <trkpt lat="45.07969" lon="2.65205">
        <ele>1277.25</ele>
        <time>2019-06-01T12:45:15Z</time>
      </trkpt>
      <trkpt lat="45.07957" lon="2.65234">
        <ele>1273.4</ele>
        <time>2019-06-01T12:45:44Z</time>
      </trkpt>
      <trkpt lat="45.07944" lon="2.65268">
        <ele>1267.64</ele>
        <time>2019-06-01T12:46:18Z</time>
      </trkpt>
      <trkpt lat="45.07937" lon="2.65298">
        <ele>1260.43</ele>
        <time>2019-06-01T12:46:55Z</time>
      </trkpt>
      <trkpt lat="45.07934" lon="2.65334">
        <ele>1253.7</ele>
        <time>2019-06-01T12:47:38Z</time>
      </trkpt>
      <trkpt lat="45.07924" lon="2.65376">
        <ele>1246.49</ele>
        <time>2019-06-01T12:48:23Z</time>
      </trkpt>
      <trkpt lat="45.07903" lon="2.65369">
        <ele>1238.8</ele>
        <time>2019-06-01T12:49:02Z</time>
      </trkpt>
      <trkpt lat="45.07874" lon="2.6534">
        <ele>1230.62</ele>
        <time>2019-06-01T12:49:50Z</time>
      </trkpt>
      <trkpt lat="45.07854" lon="2.65339">
        <ele>1221.97</ele>
        <time>2019-06-01T12:50:40Z</time>
      </trkpt>
      <trkpt lat="45.07854" lon="2.65373">
        <ele>1214.28</ele>
        <time>2019-06-01T12:51:22Z</time>
      </trkpt>
      <trkpt lat="45.07868" lon="2.65405">
        <ele>1208.03</ele>
        <time>2019-06-01T12:52:06Z</time>
      </trkpt>
      <trkpt lat="45.0785" lon="2.65421">
        <ele>1200.34</ele>
        <time>2019-06-01T12:52:48Z</time>
      </trkpt>
      <trkpt lat="45.07815" lon="2.65405">
        <ele>1195.06</ele>
        <time>2019-06-01T12:53:23Z</time>
      </trkpt>
      <trkpt lat="45.07778" lon="2.65412">
        <ele>1192.17</ele>
        <time>2019-06-01T12:54:03Z</time>
      </trkpt>
      <trkpt lat="45.07745" lon="2.65418">
        <ele>1186.88</ele>
        <time>2019-06-01T12:54:47Z</time>
      </trkpt>
      <trkpt lat="45.07723" lon="2.65423">
        <ele>1180.64</ele>
        <time>2019-06-01T12:56:33Z</time>
      </trkpt>
      <trkpt lat="45.0769" lon="2.65431">
        <ele>1174.39</ele>
        <time>2019-06-01T12:57:16Z</time>
      </trkpt>
      <trkpt lat="45.07658" lon="2.6544">
        <ele>1170.54</ele>
        <time>2019-06-01T12:57:49Z</time>
      </trkpt>
      <trkpt lat="45.07628" lon="2.6544">
        <ele>1165.74</ele>
        <time>2019-06-01T12:58:19Z</time>
      </trkpt>
      <trkpt lat="45.07606" lon="2.65428">
        <ele>1159.01</ele>
        <time>2019-06-01T12:58:50Z</time>
      </trkpt>
      <trkpt lat="45.07577" lon="2.6543">
        <ele>1151.8</ele>
        <time>2019-06-01T12:59:34Z</time>
      </trkpt>
      <trkpt lat="45.07549" lon="2.6543">
        <ele>1144.11</ele>
        <time>2019-06-01T13:00:15Z</time>
      </trkpt>
      <trkpt lat="45.07525" lon="2.65413">
        <ele>1135.94</ele>
        <time>2019-06-01T13:00:54Z</time>
      </trkpt>
      <trkpt lat="45.07498" lon="2.65389">
        <ele>1130.65</ele>
        <time>2019-06-01T13:01:31Z</time>
      </trkpt>
      <trkpt lat="45.07465" lon="2.65372">
        <ele>1126.32</ele>
        <time>2019-06-01T13:02:04Z</time>
      </trkpt>
      <trkpt lat="45.07427" lon="2.65349">
        <ele>1123.92</ele>
        <time>2019-06-01T13:02:42Z</time>
      </trkpt>
      <trkpt lat="45.07408" lon="2.65321">
        <ele>1122.48</ele>
        <time>2019-06-01T13:03:37Z</time>
      </trkpt>
      <trkpt lat="45.07386" lon="2.6529">
        <ele>1116.23</ele>
        <time>2019-06-01T13:04:14Z</time>
      </trkpt>
      <trkpt lat="45.07368" lon="2.65272">
        <ele>1110.46</ele>
        <time>2019-06-01T13:04:43Z</time>
      </trkpt>
      <trkpt lat="45.07347" lon="2.65248">
        <ele>1107.1</ele>
        <time>2019-06-01T13:05:12Z</time>
      </trkpt>
      <trkpt lat="45.0731" lon="2.65231">
        <ele>1105.17</ele>
        <time>2019-06-01T13:05:51Z</time>
      </trkpt>
      <trkpt lat="45.0728" lon="2.65263">
        <ele>1101.33</ele>
        <time>2019-06-01T13:06:36Z</time>
      </trkpt>
      <trkpt lat="45.07255" lon="2.65296">
        <ele>1097.48</ele>
        <time>2019-06-01T13:07:14Z</time>
      </trkpt>
      <trkpt lat="45.07254" lon="2.65327">
        <ele>1091.71</ele>
        <time>2019-06-01T13:07:58Z</time>
      </trkpt>
      <trkpt lat="45.0727" lon="2.65351">
        <ele>1083.54</ele>
        <time>2019-06-01T13:08:41Z</time>
      </trkpt>
      <trkpt lat="45.07285" lon="2.65375">
        <ele>1077.29</ele>
        <time>2019-06-01T13:09:20Z</time>
      </trkpt>
      <trkpt lat="45.0729" lon="2.65407">
        <ele>1072.01</ele>
        <time>2019-06-01T13:09:52Z</time>
      </trkpt>
      <trkpt lat="45.07288" lon="2.65454">
        <ele>1066.72</ele>
        <time>2019-06-01T13:10:37Z</time>
      </trkpt>
      <trkpt lat="45.07303" lon="2.65489">
        <ele>1062.87</ele>
        <time>2019-06-01T13:11:09Z</time>
      </trkpt>
      <trkpt lat="45.07291" lon="2.6552">
        <ele>1053.26</ele>
        <time>2019-06-01T13:12:07Z</time>
      </trkpt>
      <trkpt lat="45.07273" lon="2.65557">
        <ele>1043.17</ele>
        <time>2019-06-01T13:13:07Z</time>
      </trkpt>
      <trkpt lat="45.07257" lon="2.6558">
        <ele>1034.52</ele>
        <time>2019-06-01T13:13:46Z</time>
      </trkpt>
      <trkpt lat="45.07262" lon="2.65597">
        <ele>1023.94</ele>
        <time>2019-06-01T13:14:40Z</time>
      </trkpt>
      <trkpt lat="45.07286" lon="2.65616">
        <ele>1017.69</ele>
        <time>2019-06-01T13:15:21Z</time>
      </trkpt>
      <trkpt lat="45.07295" lon="2.65643">
        <ele>1013.85</ele>
        <time>2019-06-01T13:15:58Z</time>
      </trkpt>
      <trkpt lat="45.07274" lon="2.65674">
        <ele>1005.68</ele>
        <time>2019-06-01T13:16:58Z</time>
      </trkpt>
      <trkpt lat="45.07258" lon="2.65683">
        <ele>1002.79</ele>
        <time>2019-06-01T13:18:50Z</time>
      </trkpt>
      <trkpt lat="45.0723" lon="2.657">
        <ele>998.95</ele>
        <time>2019-06-01T13:19:32Z</time>
      </trkpt>
      <trkpt lat="45.07198" lon="2.657">
        <ele>993.66</ele>
        <time>2019-06-01T13:20:13Z</time>
      </trkpt>
      <trkpt lat="45.07173" lon="2.65687">
        <ele>987.89</ele>
        <time>2019-06-01T13:20:49Z</time>
      </trkpt>
      <trkpt lat="45.07146" lon="2.65663">
        <ele>980.68</ele>
        <time>2019-06-01T13:21:33Z</time>
      </trkpt>
      <trkpt lat="45.07122" lon="2.65657">
        <ele>976.36</ele>
        <time>2019-06-01T13:22:03Z</time>
      </trkpt>
      <trkpt lat="45.07095" lon="2.65644">
        <ele>971.55</ele>
        <time>2019-06-01T13:22:38Z</time>
      </trkpt>
      <trkpt lat="45.07084" lon="2.65597">
        <ele>964.82</ele>
        <time>2019-06-01T13:23:24Z</time>
      </trkpt>
      <trkpt lat="45.07048" lon="2.65579">
        <ele>964.34</ele>
        <time>2019-06-01T13:23:58Z</time>
      </trkpt>
      <trkpt lat="45.07021" lon="2.65563">
        <ele>961.46</ele>
        <time>2019-06-01T13:24:37Z</time>
      </trkpt>
      <trkpt lat="45.07002" lon="2.6558">
        <ele>957.13</ele>
        <time>2019-06-01T13:25:12Z</time>
      </trkpt>
      <trkpt lat="45.07007" lon="2.65602">
        <ele>953.77</ele>
        <time>2019-06-01T13:26:22Z</time>
      </trkpt>
      <trkpt lat="45.07028" lon="2.65624">
        <ele>947.52</ele>
        <time>2019-06-01T13:27:05Z</time>
      </trkpt>
      <trkpt lat="45.07034" lon="2.65659">
        <ele>943.19</ele>
        <time>2019-06-01T13:27:39Z</time>
      </trkpt>
      <trkpt lat="45.07014" lon="2.6568">
        <ele>940.79</ele>
        <time>2019-06-01T13:28:10Z</time>
      </trkpt>
      <trkpt lat="45.06993" lon="2.65709">
        <ele>938.86</ele>
        <time>2019-06-01T13:28:46Z</time>
      </trkpt>
      <trkpt lat="45.07009" lon="2.65732">
        <ele>938.38</ele>
        <time>2019-06-01T13:29:12Z</time>
      </trkpt>
      <trkpt lat="45.0703" lon="2.65731">
        <ele>939.35</ele>
        <time>2019-06-01T13:30:04Z</time>
      </trkpt>
      <trkpt lat="45.07051" lon="2.65717">
        <ele>939.83</ele>
        <time>2019-06-01T13:31:48Z</time>
      </trkpt>
      <trkpt lat="45.0705" lon="2.65721">
        <ele>939.35</ele>
        <time>2019-06-01T13:36:18Z</time>
      </trkpt>
      <trkpt lat="45.07048" lon="2.65718">
        <ele>938.86</ele>
        <time>2019-06-01T13:40:39Z</time>
      </trkpt>
      <trkpt lat="45.07053" lon="2.65721">
        <ele>937.9</ele>
        <time>2019-06-01T13:45:00Z</time>
      </trkpt>
      <trkpt lat="45.07054" lon="2.65721">
        <ele>939.83</ele>
        <time>2019-06-01T13:49:19Z</time>
      </trkpt>
      <trkpt lat="45.07053" lon="2.65722">
        <ele>940.79</ele>
        <time>2019-06-01T13:53:14Z</time>
      </trkpt>
      <trkpt lat="45.07049" lon="2.65723">
        <ele>942.23</ele>
        <time>2019-06-01T13:58:06Z</time>
      </trkpt>
      <trkpt lat="45.07051" lon="2.65718">
        <ele>942.71</ele>
        <time>2019-06-01T14:03:55Z</time>
      </trkpt>
      <trkpt lat="45.07046" lon="2.65722">
        <ele>941.75</ele>
        <time>2019-06-01T14:11:22Z</time>
      </trkpt>
      <trkpt lat="45.07049" lon="2.65719">
        <ele>944.15</ele>
        <time>2019-06-01T14:15:44Z</time>
      </trkpt>
      <trkpt lat="45.07048" lon="2.65719">
        <ele>944.15</ele>
        <time>2019-06-01T14:18:10Z</time>
      </trkpt>
      <trkpt lat="45.07051" lon="2.65705">
        <ele>948.96</ele>
        <time>2019-06-01T14:20:13Z</time>
      </trkpt>
      <trkpt lat="45.07056" lon="2.65695">
        <ele>948.96</ele>
        <time>2019-06-01T14:23:38Z</time>
      </trkpt>
      <trkpt lat="45.07056" lon="2.65693">
        <ele>946.56</ele>
        <time>2019-06-01T14:31:04Z</time>
      </trkpt>
      <trkpt lat="45.07055" lon="2.657">
        <ele>944.15</ele>
        <time>2019-06-01T14:39:26Z</time>
      </trkpt>
      <trkpt lat="45.07056" lon="2.65699">
        <ele>941.27</ele>
        <time>2019-06-01T14:45:58Z</time>
      </trkpt>
      <trkpt lat="45.07051" lon="2.65716">
        <ele>934.06</ele>
        <time>2019-06-02T06:42:25Z</time>
      </trkpt>
      <trkpt lat="45.07025" lon="2.6574">
        <ele>931.65</ele>
        <time>2019-06-02T06:43:26Z</time>
      </trkpt>
      <trkpt lat="45.07002" lon="2.65738">
        <ele>931.65</ele>
        <time>2019-06-02T06:43:51Z</time>
      </trkpt>
      <trkpt lat="45.0698" lon="2.65744">
        <ele>931.65</ele>
        <time>2019-06-02T06:44:10Z</time>
      </trkpt>
      <trkpt lat="45.0696" lon="2.65757">
        <ele>932.14</ele>
        <time>2019-06-02T06:44:42Z</time>
      </trkpt>
      <trkpt lat="45.06958" lon="2.6576">
        <ele>930.69</ele>
        <time>2019-06-02T06:49:45Z</time>
      </trkpt>
      <trkpt lat="45.06935" lon="2.6577">
        <ele>932.14</ele>
        <time>2019-06-02T06:50:55Z</time>
      </trkpt>
      <trkpt lat="45.06901" lon="2.65743">
        <ele>932.14</ele>
        <time>2019-06-02T06:51:36Z</time>
      </trkpt>
      <trkpt lat="45.0692" lon="2.6578">
        <ele>934.54</ele>
        <time>2019-06-02T06:52:16Z</time>
      </trkpt>
      <trkpt lat="45.06931" lon="2.6582">
        <ele>936.94</ele>
        <time>2019-06-02T06:52:47Z</time>
      </trkpt>
      <trkpt lat="45.06952" lon="2.65872">
        <ele>937.9</ele>
        <time>2019-06-02T06:53:25Z</time>
      </trkpt>
      <trkpt lat="45.06965" lon="2.65911">
        <ele>937.9</ele>
        <time>2019-06-02T06:54:06Z</time>
      </trkpt>
      <trkpt lat="45.06969" lon="2.65951">
        <ele>938.38</ele>
        <time>2019-06-02T06:54:34Z</time>
      </trkpt>
      <trkpt lat="45.06983" lon="2.65982">
        <ele>938.86</ele>
        <time>2019-06-02T06:54:58Z</time>
      </trkpt>
      <trkpt lat="45.06997" lon="2.66011">
        <ele>939.35</ele>
        <time>2019-06-02T06:55:18Z</time>
      </trkpt>
      <trkpt lat="45.07011" lon="2.66066">
        <ele>939.83</ele>
        <time>2019-06-02T06:55:53Z</time>
      </trkpt>
      <trkpt lat="45.0704" lon="2.661">
        <ele>941.27</ele>
        <time>2019-06-02T06:56:33Z</time>
      </trkpt>
      <trkpt lat="45.07042" lon="2.66129">
        <ele>942.71</ele>
        <time>2019-06-02T06:57:41Z</time>
      </trkpt>
      <trkpt lat="45.07023" lon="2.66155">
        <ele>944.63</ele>
        <time>2019-06-02T06:58:12Z</time>
      </trkpt>
      <trkpt lat="45.07018" lon="2.66184">
        <ele>947.04</ele>
        <time>2019-06-02T06:58:40Z</time>
      </trkpt>
      <trkpt lat="45.07029" lon="2.66228">
        <ele>949.44</ele>
        <time>2019-06-02T06:59:17Z</time>
      </trkpt>
      <trkpt lat="45.07039" lon="2.66261">
        <ele>951.36</ele>
        <time>2019-06-02T06:59:46Z</time>
      </trkpt>
      <trkpt lat="45.07053" lon="2.66286">
        <ele>954.73</ele>
        <time>2019-06-02T07:00:15Z</time>
      </trkpt>
      <trkpt lat="45.07067" lon="2.66315">
        <ele>960.01</ele>
        <time>2019-06-02T07:00:48Z</time>
      </trkpt>
      <trkpt lat="45.07079" lon="2.66346">
        <ele>964.82</ele>
        <time>2019-06-02T07:01:25Z</time>
      </trkpt>
      <trkpt lat="45.07095" lon="2.66377">
        <ele>970.11</ele>
        <time>2019-06-02T07:02:13Z</time>
      </trkpt>
      <trkpt lat="45.07116" lon="2.66399">
        <ele>973.95</ele>
        <time>2019-06-02T07:02:52Z</time>
      </trkpt>
      <trkpt lat="45.07136" lon="2.66418">
        <ele>977.32</ele>
        <time>2019-06-02T07:03:20Z</time>
      </trkpt>
      <trkpt lat="45.07157" lon="2.66451">
        <ele>982.12</ele>
        <time>2019-06-02T07:04:00Z</time>
      </trkpt>
      <trkpt lat="45.07172" lon="2.66486">
        <ele>987.89</ele>
        <time>2019-06-02T07:04:40Z</time>
      </trkpt>
      <trkpt lat="45.07187" lon="2.66521">
        <ele>991.26</ele>
        <time>2019-06-02T07:05:25Z</time>
      </trkpt>
      <trkpt lat="45.07201" lon="2.66564">
        <ele>993.66</ele>
        <time>2019-06-02T07:06:00Z</time>
      </trkpt>
      <trkpt lat="45.07198" lon="2.66598">
        <ele>997.02</ele>
        <time>2019-06-02T07:06:27Z</time>
      </trkpt>
      <trkpt lat="45.07195" lon="2.6663">
        <ele>1003.27</ele>
        <time>2019-06-02T07:07:13Z</time>
      </trkpt>
      <trkpt lat="45.07213" lon="2.66651">
        <ele>1008.56</ele>
        <time>2019-06-02T07:07:53Z</time>
      </trkpt>
      <trkpt lat="45.07225" lon="2.66691">
        <ele>1013.85</ele>
        <time>2019-06-02T07:08:40Z</time>
      </trkpt>
      <trkpt lat="45.0722" lon="2.66727">
        <ele>1020.58</ele>
        <time>2019-06-02T07:09:23Z</time>
      </trkpt>
      <trkpt lat="45.07236" lon="2.66753">
        <ele>1026.83</ele>
        <time>2019-06-02T07:10:08Z</time>
      </trkpt>
      <trkpt lat="45.07255" lon="2.66771">
        <ele>1032.11</ele>
        <time>2019-06-02T07:10:52Z</time>
      </trkpt>
      <trkpt lat="45.07271" lon="2.66811">
        <ele>1036.44</ele>
        <time>2019-06-02T07:11:36Z</time>
      </trkpt>
      <trkpt lat="45.07276" lon="2.66843">
        <ele>1038.36</ele>
        <time>2019-06-02T07:12:07Z</time>
      </trkpt>
      <trkpt lat="45.07297" lon="2.6687">
        <ele>1040.76</ele>
        <time>2019-06-02T07:12:41Z</time>
      </trkpt>
      <trkpt lat="45.07322" lon="2.66894">
        <ele>1042.21</ele>
        <time>2019-06-02T07:13:14Z</time>
      </trkpt>
      <trkpt lat="45.0732" lon="2.66944">
        <ele>1043.65</ele>
        <time>2019-06-02T07:13:50Z</time>
      </trkpt>
      <trkpt lat="45.07307" lon="2.66991">
        <ele>1045.57</ele>
        <time>2019-06-02T07:14:24Z</time>
      </trkpt>
      <trkpt lat="45.07297" lon="2.67025">
        <ele>1047.49</ele>
        <time>2019-06-02T07:14:54Z</time>
      </trkpt>
      <trkpt lat="45.07292" lon="2.67058">
        <ele>1049.9</ele>
        <time>2019-06-02T07:15:25Z</time>
      </trkpt>
      <trkpt lat="45.07283" lon="2.67087">
        <ele>1051.82</ele>
        <time>2019-06-02T07:15:53Z</time>
      </trkpt>
      <trkpt lat="45.07278" lon="2.67117">
        <ele>1056.63</ele>
        <time>2019-06-02T07:16:23Z</time>
      </trkpt>
      <trkpt lat="45.0725" lon="2.6711">
        <ele>1061.91</ele>
        <time>2019-06-02T07:17:17Z</time>
      </trkpt>
      <trkpt lat="45.07224" lon="2.6711">
        <ele>1067.2</ele>
        <time>2019-06-02T07:17:57Z</time>
      </trkpt>
      <trkpt lat="45.07223" lon="2.67141">
        <ele>1074.41</ele>
        <time>2019-06-02T07:18:55Z</time>
      </trkpt>
      <trkpt lat="45.07225" lon="2.67174">
        <ele>1077.29</ele>
        <time>2019-06-02T07:19:29Z</time>
      </trkpt>
      <trkpt lat="45.07229" lon="2.67217">
        <ele>1083.06</ele>
        <time>2019-06-02T07:20:11Z</time>
      </trkpt>
      <trkpt lat="45.07228" lon="2.6725">
        <ele>1087.39</ele>
        <time>2019-06-02T07:20:42Z</time>
      </trkpt>
      <trkpt lat="45.0722" lon="2.67294">
        <ele>1093.16</ele>
        <time>2019-06-02T07:21:23Z</time>
      </trkpt>
      <trkpt lat="45.07208" lon="2.67336">
        <ele>1097</ele>
        <time>2019-06-02T07:22:01Z</time>
      </trkpt>
      <trkpt lat="45.072" lon="2.67379">
        <ele>1099.89</ele>
        <time>2019-06-02T07:22:39Z</time>
      </trkpt>
      <trkpt lat="45.07187" lon="2.67419">
        <ele>1100.37</ele>
        <time>2019-06-02T07:23:10Z</time>
      </trkpt>
      <trkpt lat="45.07187" lon="2.67453">
        <ele>1103.25</ele>
        <time>2019-06-02T07:23:38Z</time>
      </trkpt>
      <trkpt lat="45.07175" lon="2.67484">
        <ele>1107.58</ele>
        <time>2019-06-02T07:24:07Z</time>
      </trkpt>
      <trkpt lat="45.0716" lon="2.67525">
        <ele>1113.82</ele>
        <time>2019-06-02T07:24:49Z</time>
      </trkpt>
      <trkpt lat="45.07142" lon="2.67576">
        <ele>1119.11</ele>
        <time>2019-06-02T07:25:32Z</time>
      </trkpt>
      <trkpt lat="45.07126" lon="2.67598">
        <ele>1120.55</ele>
        <time>2019-06-02T07:25:53Z</time>
      </trkpt>
      <trkpt lat="45.07112" lon="2.67628">
        <ele>1124.4</ele>
        <time>2019-06-02T07:26:21Z</time>
      </trkpt>
      <trkpt lat="45.07086" lon="2.67644">
        <ele>1127.76</ele>
        <time>2019-06-02T07:26:52Z</time>
      </trkpt>
      <trkpt lat="45.07061" lon="2.67645">
        <ele>1132.09</ele>
        <time>2019-06-02T07:27:24Z</time>
      </trkpt>
      <trkpt lat="45.07058" lon="2.6768">
        <ele>1136.42</ele>
        <time>2019-06-02T07:28:09Z</time>
      </trkpt>
      <trkpt lat="45.07037" lon="2.67699">
        <ele>1140.26</ele>
        <time>2019-06-02T07:28:40Z</time>
      </trkpt>
      <trkpt lat="45.0704" lon="2.6773">
        <ele>1143.14</ele>
        <time>2019-06-02T07:29:20Z</time>
      </trkpt>
      <trkpt lat="45.0704" lon="2.67765">
        <ele>1148.43</ele>
        <time>2019-06-02T07:30:03Z</time>
      </trkpt>
      <trkpt lat="45.07032" lon="2.67795">
        <ele>1151.32</ele>
        <time>2019-06-02T07:30:30Z</time>
      </trkpt>
      <trkpt lat="45.0702" lon="2.6783">
        <ele>1159.49</ele>
        <time>2019-06-02T07:31:12Z</time>
      </trkpt>
      <trkpt lat="45.07007" lon="2.67859">
        <ele>1162.85</ele>
        <time>2019-06-02T07:31:39Z</time>
      </trkpt>
      <trkpt lat="45.07003" lon="2.67903">
        <ele>1169.1</ele>
        <time>2019-06-02T07:32:21Z</time>
      </trkpt>
      <trkpt lat="45.06987" lon="2.67933">
        <ele>1172.47</ele>
        <time>2019-06-02T07:32:49Z</time>
      </trkpt>
      <trkpt lat="45.06959" lon="2.67947">
        <ele>1176.79</ele>
        <time>2019-06-02T07:33:25Z</time>
      </trkpt>
      <trkpt lat="45.06944" lon="2.67986">
        <ele>1183.52</ele>
        <time>2019-06-02T07:34:21Z</time>
      </trkpt>
      <trkpt lat="45.06925" lon="2.68007">
        <ele>1186.88</ele>
        <time>2019-06-02T07:34:52Z</time>
      </trkpt>
      <trkpt lat="45.06907" lon="2.68044">
        <ele>1192.65</ele>
        <time>2019-06-02T07:35:39Z</time>
      </trkpt>
      <trkpt lat="45.06896" lon="2.68084">
        <ele>1197.94</ele>
        <time>2019-06-02T07:36:21Z</time>
      </trkpt>
      <trkpt lat="45.0687" lon="2.68121">
        <ele>1203.71</ele>
        <time>2019-06-02T07:37:03Z</time>
      </trkpt>
      <trkpt lat="45.06839" lon="2.68125">
        <ele>1209</ele>
        <time>2019-06-02T07:37:38Z</time>
      </trkpt>
      <trkpt lat="45.06824" lon="2.68094">
        <ele>1211.4</ele>
        <time>2019-06-02T07:38:09Z</time>
      </trkpt>
      <trkpt lat="45.06797" lon="2.68074">
        <ele>1214.28</ele>
        <time>2019-06-02T07:38:49Z</time>
      </trkpt>
      <trkpt lat="45.06781" lon="2.68047">
        <ele>1219.09</ele>
        <time>2019-06-02T07:40:26Z</time>
      </trkpt>
      <trkpt lat="45.06766" lon="2.68013">
        <ele>1224.86</ele>
        <time>2019-06-02T07:41:12Z</time>
      </trkpt>
      <trkpt lat="45.06761" lon="2.67964">
        <ele>1226.3</ele>
        <time>2019-06-02T07:41:55Z</time>
      </trkpt>
      <trkpt lat="45.06753" lon="2.67931">
        <ele>1229.18</ele>
        <time>2019-06-02T07:42:21Z</time>
      </trkpt>
      <trkpt lat="45.06731" lon="2.67939">
        <ele>1232.07</ele>
        <time>2019-06-02T07:42:57Z</time>
      </trkpt>
      <trkpt lat="45.06716" lon="2.6798">
        <ele>1236.87</ele>
        <time>2019-06-02T07:43:44Z</time>
      </trkpt>
      <trkpt lat="45.06698" lon="2.68007">
        <ele>1239.76</ele>
        <time>2019-06-02T07:44:12Z</time>
      </trkpt>
      <trkpt lat="45.06679" lon="2.68023">
        <ele>1242.64</ele>
        <time>2019-06-02T07:44:39Z</time>
      </trkpt>
      <trkpt lat="45.06653" lon="2.68037">
        <ele>1246.01</ele>
        <time>2019-06-02T07:45:13Z</time>
      </trkpt>
      <trkpt lat="45.06647" lon="2.68024">
        <ele>1251.29</ele>
        <time>2019-06-02T07:46:05Z</time>
      </trkpt>
      <trkpt lat="45.06647" lon="2.67992">
        <ele>1253.22</ele>
        <time>2019-06-02T07:46:31Z</time>
      </trkpt>
      <trkpt lat="45.06642" lon="2.67953">
        <ele>1255.14</ele>
        <time>2019-06-02T07:46:59Z</time>
      </trkpt>
      <trkpt lat="45.06637" lon="2.67918">
        <ele>1258.02</ele>
        <time>2019-06-02T07:47:26Z</time>
      </trkpt>
      <trkpt lat="45.06633" lon="2.6788">
        <ele>1260.43</ele>
        <time>2019-06-02T07:47:55Z</time>
      </trkpt>
      <trkpt lat="45.06615" lon="2.67847">
        <ele>1263.31</ele>
        <time>2019-06-02T07:48:35Z</time>
      </trkpt>
      <trkpt lat="45.06603" lon="2.67884">
        <ele>1265.71</ele>
        <time>2019-06-02T07:49:50Z</time>
      </trkpt>
      <trkpt lat="45.06591" lon="2.67929">
        <ele>1268.12</ele>
        <time>2019-06-02T07:50:27Z</time>
      </trkpt>
      <trkpt lat="45.06573" lon="2.67969">
        <ele>1271.96</ele>
        <time>2019-06-02T07:51:02Z</time>
      </trkpt>
      <trkpt lat="45.06557" lon="2.68">
        <ele>1273.4</ele>
        <time>2019-06-02T07:51:33Z</time>
      </trkpt>
      <trkpt lat="45.0656" lon="2.68049">
        <ele>1275.81</ele>
        <time>2019-06-02T07:52:11Z</time>
      </trkpt>
      <trkpt lat="45.06546" lon="2.68098">
        <ele>1278.69</ele>
        <time>2019-06-02T07:52:51Z</time>
      </trkpt>
      <trkpt lat="45.06545" lon="2.6813">
        <ele>1279.65</ele>
        <time>2019-06-02T07:53:19Z</time>
      </trkpt>
      <trkpt lat="45.06541" lon="2.68163">
        <ele>1281.57</ele>
        <time>2019-06-02T07:53:43Z</time>
      </trkpt>
      <trkpt lat="45.0654" lon="2.68199">
        <ele>1283.5</ele>
        <time>2019-06-02T07:54:11Z</time>
      </trkpt>
      <trkpt lat="45.06535" lon="2.68236">
        <ele>1284.94</ele>
        <time>2019-06-02T07:54:39Z</time>
      </trkpt>
      <trkpt lat="45.0653" lon="2.68276">
        <ele>1287.34</ele>
        <time>2019-06-02T07:55:09Z</time>
      </trkpt>
      <trkpt lat="45.06533" lon="2.68309">
        <ele>1288.78</ele>
        <time>2019-06-02T07:55:36Z</time>
      </trkpt>
      <trkpt lat="45.06535" lon="2.68353">
        <ele>1290.23</ele>
        <time>2019-06-02T07:56:08Z</time>
      </trkpt>
      <trkpt lat="45.06546" lon="2.68388">
        <ele>1292.63</ele>
        <time>2019-06-02T07:56:38Z</time>
      </trkpt>
      <trkpt lat="45.06556" lon="2.68424">
        <ele>1294.07</ele>
        <time>2019-06-02T07:57:07Z</time>
      </trkpt>
      <trkpt lat="45.06569" lon="2.68468">
        <ele>1296.96</ele>
        <time>2019-06-02T07:57:42Z</time>
      </trkpt>
      <trkpt lat="45.06577" lon="2.68504">
        <ele>1298.4</ele>
        <time>2019-06-02T07:58:09Z</time>
      </trkpt>
      <trkpt lat="45.06582" lon="2.68546">
        <ele>1300.8</ele>
        <time>2019-06-02T07:58:37Z</time>
      </trkpt>
      <trkpt lat="45.06585" lon="2.68585">
        <ele>1302.24</ele>
        <time>2019-06-02T07:59:02Z</time>
      </trkpt>
      <trkpt lat="45.06575" lon="2.68621">
        <ele>1304.17</ele>
        <time>2019-06-02T07:59:29Z</time>
      </trkpt>
      <trkpt lat="45.06553" lon="2.6865">
        <ele>1306.57</ele>
        <time>2019-06-02T07:59:58Z</time>
      </trkpt>
      <trkpt lat="45.06543" lon="2.6868">
        <ele>1307.53</ele>
        <time>2019-06-02T08:00:26Z</time>
      </trkpt>
      <trkpt lat="45.06531" lon="2.68719">
        <ele>1310.41</ele>
        <time>2019-06-02T08:00:59Z</time>
      </trkpt>
      <trkpt lat="45.06529" lon="2.68757">
        <ele>1312.82</ele>
        <time>2019-06-02T08:01:30Z</time>
      </trkpt>
      <trkpt lat="45.06521" lon="2.68806">
        <ele>1314.74</ele>
        <time>2019-06-02T08:02:04Z</time>
      </trkpt>
      <trkpt lat="45.06517" lon="2.68839">
        <ele>1316.18</ele>
        <time>2019-06-02T08:02:29Z</time>
      </trkpt>
      <trkpt lat="45.06516" lon="2.68876">
        <ele>1317.62</ele>
        <time>2019-06-02T08:02:57Z</time>
      </trkpt>
      <trkpt lat="45.06546" lon="2.68882">
        <ele>1320.03</ele>
        <time>2019-06-02T08:03:34Z</time>
      </trkpt>
      <trkpt lat="45.06568" lon="2.68893">
        <ele>1320.99</ele>
        <time>2019-06-02T08:03:59Z</time>
      </trkpt>
      <trkpt lat="45.06593" lon="2.68906">
        <ele>1322.91</ele>
        <time>2019-06-02T08:04:29Z</time>
      </trkpt>
      <trkpt lat="45.06612" lon="2.68942">
        <ele>1325.31</ele>
        <time>2019-06-02T08:04:57Z</time>
      </trkpt>
      <trkpt lat="45.06626" lon="2.68978">
        <ele>1326.76</ele>
        <time>2019-06-02T08:05:26Z</time>
      </trkpt>
      <trkpt lat="45.06631" lon="2.69021">
        <ele>1328.2</ele>
        <time>2019-06-02T08:05:57Z</time>
      </trkpt>
      <trkpt lat="45.06632" lon="2.69058">
        <ele>1329.64</ele>
        <time>2019-06-02T08:06:28Z</time>
      </trkpt>
      <trkpt lat="45.06629" lon="2.69099">
        <ele>1327.24</ele>
        <time>2019-06-02T08:07:01Z</time>
      </trkpt>
      <trkpt lat="45.06621" lon="2.6913">
        <ele>1323.87</ele>
        <time>2019-06-02T08:07:31Z</time>
      </trkpt>
      <trkpt lat="45.06624" lon="2.69164">
        <ele>1322.43</ele>
        <time>2019-06-02T08:08:12Z</time>
      </trkpt>
      <trkpt lat="45.06643" lon="2.6918">
        <ele>1321.95</ele>
        <time>2019-06-02T08:08:38Z</time>
      </trkpt>
      <trkpt lat="45.0667" lon="2.69199">
        <ele>1327.72</ele>
        <time>2019-06-02T08:09:23Z</time>
      </trkpt>
      <trkpt lat="45.06696" lon="2.69225">
        <ele>1331.56</ele>
        <time>2019-06-02T08:10:04Z</time>
      </trkpt>
      <trkpt lat="45.06716" lon="2.69252">
        <ele>1333.97</ele>
        <time>2019-06-02T08:10:36Z</time>
      </trkpt>
      <trkpt lat="45.06734" lon="2.69284">
        <ele>1336.85</ele>
        <time>2019-06-02T08:11:08Z</time>
      </trkpt>
      <trkpt lat="45.06745" lon="2.69319">
        <ele>1339.25</ele>
        <time>2019-06-02T08:11:38Z</time>
      </trkpt>
      <trkpt lat="45.06753" lon="2.69354">
        <ele>1342.62</ele>
        <time>2019-06-02T08:12:11Z</time>
      </trkpt>
      <trkpt lat="45.06763" lon="2.69388">
        <ele>1345.98</ele>
        <time>2019-06-02T08:12:42Z</time>
      </trkpt>
      <trkpt lat="45.06772" lon="2.69416">
        <ele>1348.87</ele>
        <time>2019-06-02T08:13:15Z</time>
      </trkpt>
      <trkpt lat="45.06791" lon="2.69433">
        <ele>1352.71</ele>
        <time>2019-06-02T08:13:46Z</time>
      </trkpt>
      <trkpt lat="45.06803" lon="2.69466">
        <ele>1357.04</ele>
        <time>2019-06-02T08:14:19Z</time>
      </trkpt>
      <trkpt lat="45.06812" lon="2.69503">
        <ele>1358.96</ele>
        <time>2019-06-02T08:14:51Z</time>
      </trkpt>
      <trkpt lat="45.06827" lon="2.69541">
        <ele>1360.4</ele>
        <time>2019-06-02T08:15:27Z</time>
      </trkpt>
      <trkpt lat="45.06837" lon="2.69575">
        <ele>1362.33</ele>
        <time>2019-06-02T08:15:56Z</time>
      </trkpt>
      <trkpt lat="45.06844" lon="2.69613">
        <ele>1363.77</ele>
        <time>2019-06-02T08:16:25Z</time>
      </trkpt>
      <trkpt lat="45.06847" lon="2.69653">
        <ele>1365.69</ele>
        <time>2019-06-02T08:16:56Z</time>
      </trkpt>
      <trkpt lat="45.06862" lon="2.69682">
        <ele>1367.13</ele>
        <time>2019-06-02T08:17:28Z</time>
      </trkpt>
      <trkpt lat="45.06876" lon="2.69704">
        <ele>1368.09</ele>
        <time>2019-06-02T08:18:07Z</time>
      </trkpt>
      <trkpt lat="45.06867" lon="2.6972">
        <ele>1366.17</ele>
        <time>2019-06-02T08:19:32Z</time>
      </trkpt>
      <trkpt lat="45.06878" lon="2.69727">
        <ele>1364.73</ele>
        <time>2019-06-02T08:22:03Z</time>
      </trkpt>
      <trkpt lat="45.06901" lon="2.69747">
        <ele>1363.29</ele>
        <time>2019-06-02T08:22:36Z</time>
      </trkpt>
      <trkpt lat="45.06926" lon="2.69737">
        <ele>1361.84</ele>
        <time>2019-06-02T08:23:03Z</time>
      </trkpt>
      <trkpt lat="45.06957" lon="2.69755">
        <ele>1358.48</ele>
        <time>2019-06-02T08:23:39Z</time>
      </trkpt>
      <trkpt lat="45.06988" lon="2.69767">
        <ele>1356.56</ele>
        <time>2019-06-02T08:24:10Z</time>
      </trkpt>
      <trkpt lat="45.07013" lon="2.6979">
        <ele>1354.15</ele>
        <time>2019-06-02T08:24:44Z</time>
      </trkpt>
      <trkpt lat="45.07025" lon="2.69824">
        <ele>1354.15</ele>
        <time>2019-06-02T08:25:14Z</time>
      </trkpt>
      <trkpt lat="45.07033" lon="2.69855">
        <ele>1356.56</ele>
        <time>2019-06-02T08:25:34Z</time>
      </trkpt>
      <trkpt lat="45.0705" lon="2.69879">
        <ele>1358.96</ele>
        <time>2019-06-02T08:26:01Z</time>
      </trkpt>
      <trkpt lat="45.07069" lon="2.69904">
        <ele>1362.33</ele>
        <time>2019-06-02T08:26:29Z</time>
      </trkpt>
      <trkpt lat="45.07105" lon="2.69914">
        <ele>1361.36</ele>
        <time>2019-06-02T08:27:13Z</time>
      </trkpt>
      <trkpt lat="45.0713" lon="2.69928">
        <ele>1363.29</ele>
        <time>2019-06-02T08:27:43Z</time>
      </trkpt>
      <trkpt lat="45.07144" lon="2.69957">
        <ele>1366.65</ele>
        <time>2019-06-02T08:28:15Z</time>
      </trkpt>
      <trkpt lat="45.07168" lon="2.69989">
        <ele>1372.42</ele>
        <time>2019-06-02T08:29:01Z</time>
      </trkpt>
      <trkpt lat="45.07194" lon="2.69978">
        <ele>1372.42</ele>
        <time>2019-06-02T08:29:32Z</time>
      </trkpt>
      <trkpt lat="45.07221" lon="2.69965">
        <ele>1368.09</ele>
        <time>2019-06-02T08:30:05Z</time>
      </trkpt>
      <trkpt lat="45.07246" lon="2.69976">
        <ele>1362.33</ele>
        <time>2019-06-02T08:30:42Z</time>
      </trkpt>
      <trkpt lat="45.07274" lon="2.69995">
        <ele>1355.6</ele>
        <time>2019-06-02T08:31:23Z</time>
      </trkpt>
      <trkpt lat="45.07296" lon="2.70003">
        <ele>1357.04</ele>
        <time>2019-06-02T08:31:44Z</time>
      </trkpt>
      <trkpt lat="45.07319" lon="2.70017">
        <ele>1352.71</ele>
        <time>2019-06-02T08:32:28Z</time>
      </trkpt>
      <trkpt lat="45.07344" lon="2.70023">
        <ele>1358.48</ele>
        <time>2019-06-02T08:33:10Z</time>
      </trkpt>
      <trkpt lat="45.07368" lon="2.70018">
        <ele>1365.69</ele>
        <time>2019-06-02T08:34:14Z</time>
      </trkpt>
      <trkpt lat="45.07391" lon="2.70026">
        <ele>1370.5</ele>
        <time>2019-06-02T08:34:59Z</time>
      </trkpt>
      <trkpt lat="45.07416" lon="2.70038">
        <ele>1373.86</ele>
        <time>2019-06-02T08:35:31Z</time>
      </trkpt>
      <trkpt lat="45.07439" lon="2.70052">
        <ele>1378.67</ele>
        <time>2019-06-02T08:36:11Z</time>
      </trkpt>
      <trkpt lat="45.07446" lon="2.70032">
        <ele>1385.88</ele>
        <time>2019-06-02T08:37:23Z</time>
      </trkpt>
      <trkpt lat="45.07446" lon="2.6999">
        <ele>1390.68</ele>
        <time>2019-06-02T08:38:07Z</time>
      </trkpt>
      <trkpt lat="45.07466" lon="2.69963">
        <ele>1393.57</ele>
        <time>2019-06-02T08:38:38Z</time>
      </trkpt>
      <trkpt lat="45.07495" lon="2.69973">
        <ele>1395.97</ele>
        <time>2019-06-02T08:39:17Z</time>
      </trkpt>
      <trkpt lat="45.07506" lon="2.70001">
        <ele>1402.22</ele>
        <time>2019-06-02T08:40:02Z</time>
      </trkpt>
      <trkpt lat="45.07516" lon="2.70038">
        <ele>1407.99</ele>
        <time>2019-06-02T08:40:50Z</time>
      </trkpt>
      <trkpt lat="45.07542" lon="2.7006">
        <ele>1410.87</ele>
        <time>2019-06-02T08:41:30Z</time>
      </trkpt>
      <trkpt lat="45.07564" lon="2.70076">
        <ele>1416.64</ele>
        <time>2019-06-02T08:42:12Z</time>
      </trkpt>
      <trkpt lat="45.0758" lon="2.70104">
        <ele>1419.04</ele>
        <time>2019-06-02T08:42:45Z</time>
      </trkpt>
      <trkpt lat="45.07589" lon="2.70148">
        <ele>1422.89</ele>
        <time>2019-06-02T08:43:27Z</time>
      </trkpt>
      <trkpt lat="45.07602" lon="2.70183">
        <ele>1424.33</ele>
        <time>2019-06-02T08:43:59Z</time>
      </trkpt>
      <trkpt lat="45.07608" lon="2.70214">
        <ele>1425.77</ele>
        <time>2019-06-02T08:44:36Z</time>
      </trkpt>
      <trkpt lat="45.07638" lon="2.70225">
        <ele>1431.06</ele>
        <time>2019-06-02T08:45:31Z</time>
      </trkpt>
      <trkpt lat="45.07659" lon="2.70232">
        <ele>1432.5</ele>
        <time>2019-06-02T08:46:22Z</time>
      </trkpt>
      <trkpt lat="45.07684" lon="2.70244">
        <ele>1429.62</ele>
        <time>2019-06-02T08:46:56Z</time>
      </trkpt>
      <trkpt lat="45.07712" lon="2.70249">
        <ele>1432.5</ele>
        <time>2019-06-02T08:47:24Z</time>
      </trkpt>
      <trkpt lat="45.07738" lon="2.7025">
        <ele>1434.42</ele>
        <time>2019-06-02T08:47:50Z</time>
      </trkpt>
      <trkpt lat="45.07761" lon="2.70242">
        <ele>1435.39</ele>
        <time>2019-06-02T08:48:12Z</time>
      </trkpt>
      <trkpt lat="45.07791" lon="2.70233">
        <ele>1435.87</ele>
        <time>2019-06-02T08:48:41Z</time>
      </trkpt>
      <trkpt lat="45.07816" lon="2.70225">
        <ele>1434.91</ele>
        <time>2019-06-02T08:49:06Z</time>
      </trkpt>
      <trkpt lat="45.07844" lon="2.70208">
        <ele>1430.1</ele>
        <time>2019-06-02T08:49:36Z</time>
      </trkpt>
      <trkpt lat="45.0787" lon="2.70201">
        <ele>1429.14</ele>
        <time>2019-06-02T08:49:58Z</time>
      </trkpt>
      <trkpt lat="45.07903" lon="2.70196">
        <ele>1430.58</ele>
        <time>2019-06-02T08:50:26Z</time>
      </trkpt>
      <trkpt lat="45.07929" lon="2.70193">
        <ele>1429.14</ele>
        <time>2019-06-02T08:50:49Z</time>
      </trkpt>
      <trkpt lat="45.07952" lon="2.70187">
        <ele>1430.58</ele>
        <time>2019-06-02T08:51:10Z</time>
      </trkpt>
      <trkpt lat="45.07987" lon="2.70182">
        <ele>1432.98</ele>
        <time>2019-06-02T08:51:35Z</time>
      </trkpt>
      <trkpt lat="45.08015" lon="2.70186">
        <ele>1433.46</ele>
        <time>2019-06-02T08:51:57Z</time>
      </trkpt>
      <trkpt lat="45.08044" lon="2.70184">
        <ele>1433.46</ele>
        <time>2019-06-02T08:52:24Z</time>
      </trkpt>
      <trkpt lat="45.08067" lon="2.70191">
        <ele>1434.91</ele>
        <time>2019-06-02T08:52:50Z</time>
      </trkpt>
      <trkpt lat="45.08095" lon="2.7021">
        <ele>1436.83</ele>
        <time>2019-06-02T08:53:16Z</time>
      </trkpt>
      <trkpt lat="45.08122" lon="2.70214">
        <ele>1435.39</ele>
        <time>2019-06-02T08:53:41Z</time>
      </trkpt>
      <trkpt lat="45.08145" lon="2.70214">
        <ele>1437.31</ele>
        <time>2019-06-02T08:54:05Z</time>
      </trkpt>
      <trkpt lat="45.08174" lon="2.70223">
        <ele>1439.71</ele>
        <time>2019-06-02T08:54:35Z</time>
      </trkpt>
      <trkpt lat="45.08194" lon="2.70238">
        <ele>1444.52</ele>
        <time>2019-06-02T08:55:13Z</time>
      </trkpt>
      <trkpt lat="45.08215" lon="2.70264">
        <ele>1452.21</ele>
        <time>2019-06-02T08:55:56Z</time>
      </trkpt>
      <trkpt lat="45.08236" lon="2.70288">
        <ele>1458.94</ele>
        <time>2019-06-02T08:56:34Z</time>
      </trkpt>
      <trkpt lat="45.08253" lon="2.7032">
        <ele>1466.15</ele>
        <time>2019-06-02T08:57:19Z</time>
      </trkpt>
      <trkpt lat="45.08262" lon="2.7036">
        <ele>1472.88</ele>
        <time>2019-06-02T08:58:04Z</time>
      </trkpt>
      <trkpt lat="45.08269" lon="2.70393">
        <ele>1478.65</ele>
        <time>2019-06-02T08:58:42Z</time>
      </trkpt>
      <trkpt lat="45.08282" lon="2.70434">
        <ele>1484.89</ele>
        <time>2019-06-02T08:59:24Z</time>
      </trkpt>
      <trkpt lat="45.08295" lon="2.70465">
        <ele>1489.7</ele>
        <time>2019-06-02T08:59:56Z</time>
      </trkpt>
      <trkpt lat="45.08301" lon="2.70497">
        <ele>1493.55</ele>
        <time>2019-06-02T09:00:23Z</time>
      </trkpt>
      <trkpt lat="45.08299" lon="2.70538">
        <ele>1501.72</ele>
        <time>2019-06-02T09:01:14Z</time>
      </trkpt>
      <trkpt lat="45.08297" lon="2.70572">
        <ele>1507.48</ele>
        <time>2019-06-02T09:01:54Z</time>
      </trkpt>
      <trkpt lat="45.08297" lon="2.70618">
        <ele>1513.25</ele>
        <time>2019-06-02T09:02:37Z</time>
      </trkpt>
      <trkpt lat="45.08285" lon="2.70655">
        <ele>1519.98</ele>
        <time>2019-06-02T09:03:23Z</time>
      </trkpt>
      <trkpt lat="45.08292" lon="2.70698">
        <ele>1529.59</ele>
        <time>2019-06-02T09:04:17Z</time>
      </trkpt>
      <trkpt lat="45.08287" lon="2.70734">
        <ele>1532.48</ele>
        <time>2019-06-02T09:04:48Z</time>
      </trkpt>
      <trkpt lat="45.08275" lon="2.70761">
        <ele>1537.29</ele>
        <time>2019-06-02T09:05:24Z</time>
      </trkpt>
      <trkpt lat="45.08264" lon="2.70796">
        <ele>1544.01</ele>
        <time>2019-06-02T09:06:02Z</time>
      </trkpt>
      <trkpt lat="45.08258" lon="2.70831">
        <ele>1549.78</ele>
        <time>2019-06-02T09:06:40Z</time>
      </trkpt>
      <trkpt lat="45.0825" lon="2.70865">
        <ele>1555.55</ele>
        <time>2019-06-02T09:07:16Z</time>
      </trkpt>
      <trkpt lat="45.08255" lon="2.70902">
        <ele>1557.95</ele>
        <time>2019-06-02T09:07:46Z</time>
      </trkpt>
      <trkpt lat="45.08264" lon="2.70945">
        <ele>1559.88</ele>
        <time>2019-06-02T09:08:21Z</time>
      </trkpt>
      <trkpt lat="45.08241" lon="2.70923">
        <ele>1563.72</ele>
        <time>2019-06-02T09:08:59Z</time>
      </trkpt>
      <trkpt lat="45.08224" lon="2.70891">
        <ele>1567.09</ele>
        <time>2019-06-02T09:09:31Z</time>
      </trkpt>
      <trkpt lat="45.08197" lon="2.70867">
        <ele>1573.33</ele>
        <time>2019-06-02T09:10:10Z</time>
      </trkpt>
      <trkpt lat="45.08175" lon="2.70848">
        <ele>1578.14</ele>
        <time>2019-06-02T09:10:51Z</time>
      </trkpt>
      <trkpt lat="45.0815" lon="2.70823">
        <ele>1586.31</ele>
        <time>2019-06-02T09:11:36Z</time>
      </trkpt>
      <trkpt lat="45.08138" lon="2.70794">
        <ele>1597.37</ele>
        <time>2019-06-02T09:12:26Z</time>
      </trkpt>
      <trkpt lat="45.08125" lon="2.70769">
        <ele>1612.75</ele>
        <time>2019-06-02T09:13:34Z</time>
      </trkpt>
      <trkpt lat="45.08114" lon="2.70761">
        <ele>1621.4</ele>
        <time>2019-06-02T09:14:18Z</time>
      </trkpt>
      <trkpt lat="45.08099" lon="2.70746">
        <ele>1633.9</ele>
        <time>2019-06-02T09:15:17Z</time>
      </trkpt>
      <trkpt lat="45.08095" lon="2.70711">
        <ele>1643.99</ele>
        <time>2019-06-02T09:16:01Z</time>
      </trkpt>
      <trkpt lat="45.08076" lon="2.707">
        <ele>1656.01</ele>
        <time>2019-06-02T09:16:50Z</time>
      </trkpt>
      <trkpt lat="45.08073" lon="2.70664">
        <ele>1664.66</ele>
        <time>2019-06-02T09:17:40Z</time>
      </trkpt>
      <trkpt lat="45.08055" lon="2.70652">
        <ele>1679.08</ele>
        <time>2019-06-02T09:18:31Z</time>
      </trkpt>
      <trkpt lat="45.0804" lon="2.7065">
        <ele>1684.37</ele>
        <time>2019-06-02T09:19:39Z</time>
      </trkpt>
      <trkpt lat="45.08044" lon="2.70653">
        <ele>1684.85</ele>
        <time>2019-06-02T09:26:47Z</time>
      </trkpt>
      <trkpt lat="45.08046" lon="2.70652">
        <ele>1689.65</ele>
        <time>2019-06-02T09:43:09Z</time>
      </trkpt>
      <trkpt lat="45.08068" lon="2.70653">
        <ele>1676.68</ele>
        <time>2019-06-02T09:44:54Z</time>
      </trkpt>
      <trkpt lat="45.08078" lon="2.70688">
        <ele>1665.14</ele>
        <time>2019-06-02T09:46:00Z</time>
      </trkpt>
      <trkpt lat="45.08101" lon="2.70679">
        <ele>1651.68</ele>
        <time>2019-06-02T09:47:04Z</time>
      </trkpt>
      <trkpt lat="45.08116" lon="2.70707">
        <ele>1637.26</ele>
        <time>2019-06-02T09:48:08Z</time>
      </trkpt>
      <trkpt lat="45.08128" lon="2.70737">
        <ele>1623.8</ele>
        <time>2019-06-02T09:49:03Z</time>
      </trkpt>
      <trkpt lat="45.08141" lon="2.70764">
        <ele>1610.83</ele>
        <time>2019-06-02T09:50:09Z</time>
      </trkpt>
      <trkpt lat="45.08148" lon="2.70801">
        <ele>1599.77</ele>
        <time>2019-06-02T09:51:01Z</time>
      </trkpt>
      <trkpt lat="45.08153" lon="2.70832">
        <ele>1591.6</ele>
        <time>2019-06-02T09:51:57Z</time>
      </trkpt>
      <trkpt lat="45.08165" lon="2.70853">
        <ele>1589.2</ele>
        <time>2019-06-02T09:53:58Z</time>
      </trkpt>
      <trkpt lat="45.08171" lon="2.70849">
        <ele>1587.75</ele>
        <time>2019-06-02T09:58:51Z</time>
      </trkpt>
      <trkpt lat="45.08197" lon="2.70867">
        <ele>1580.06</ele>
        <time>2019-06-02T10:00:18Z</time>
      </trkpt>
      <trkpt lat="45.08216" lon="2.70885">
        <ele>1574.78</ele>
        <time>2019-06-02T10:01:13Z</time>
      </trkpt>
      <trkpt lat="45.08233" lon="2.70908">
        <ele>1571.89</ele>
        <time>2019-06-02T10:01:42Z</time>
      </trkpt>
      <trkpt lat="45.08255" lon="2.70939">
        <ele>1567.09</ele>
        <time>2019-06-02T10:02:21Z</time>
      </trkpt>
      <trkpt lat="45.08287" lon="2.70973">
        <ele>1564.68</ele>
        <time>2019-06-02T10:03:18Z</time>
      </trkpt>
      <trkpt lat="45.08312" lon="2.70987">
        <ele>1565.64</ele>
        <time>2019-06-02T10:04:32Z</time>
      </trkpt>
      <trkpt lat="45.08337" lon="2.71001">
        <ele>1564.2</ele>
        <time>2019-06-02T10:04:57Z</time>
      </trkpt>
      <trkpt lat="45.08356" lon="2.71026">
        <ele>1561.32</ele>
        <time>2019-06-02T10:05:21Z</time>
      </trkpt>
      <trkpt lat="45.08373" lon="2.71053">
        <ele>1559.88</ele>
        <time>2019-06-02T10:05:44Z</time>
      </trkpt>
      <trkpt lat="45.08406" lon="2.71074">
        <ele>1558.92</ele>
        <time>2019-06-02T10:06:15Z</time>
      </trkpt>
      <trkpt lat="45.08427" lon="2.71086">
        <ele>1561.8</ele>
        <time>2019-06-02T10:06:36Z</time>
      </trkpt>
      <trkpt lat="45.08466" lon="2.71112">
        <ele>1561.8</ele>
        <time>2019-06-02T10:07:14Z</time>
      </trkpt>
      <trkpt lat="45.08488" lon="2.71148">
        <ele>1559.88</ele>
        <time>2019-06-02T10:07:48Z</time>
      </trkpt>
      <trkpt lat="45.08505" lon="2.71174">
        <ele>1558.92</ele>
        <time>2019-06-02T10:08:15Z</time>
      </trkpt>
      <trkpt lat="45.08518" lon="2.712">
        <ele>1558.43</ele>
        <time>2019-06-02T10:08:39Z</time>
      </trkpt>
      <trkpt lat="45.0854" lon="2.71202">
        <ele>1557.95</ele>
        <time>2019-06-02T10:09:07Z</time>
      </trkpt>
      <trkpt lat="45.08567" lon="2.71207">
        <ele>1560.84</ele>
        <time>2019-06-02T10:09:43Z</time>
      </trkpt>
      <trkpt lat="45.08594" lon="2.71205">
        <ele>1561.8</ele>
        <time>2019-06-02T10:10:15Z</time>
      </trkpt>
      <trkpt lat="45.08624" lon="2.71236">
        <ele>1557.47</ele>
        <time>2019-06-02T10:10:55Z</time>
      </trkpt>
      <trkpt lat="45.08646" lon="2.71255">
        <ele>1556.51</ele>
        <time>2019-06-02T10:11:25Z</time>
      </trkpt>
      <trkpt lat="45.08667" lon="2.71272">
        <ele>1556.03</ele>
        <time>2019-06-02T10:11:51Z</time>
      </trkpt>
      <trkpt lat="45.08692" lon="2.71269">
        <ele>1554.59</ele>
        <time>2019-06-02T10:12:44Z</time>
      </trkpt>
      <trkpt lat="45.08714" lon="2.71244">
        <ele>1554.59</ele>
        <time>2019-06-02T10:13:18Z</time>
      </trkpt>
      <trkpt lat="45.08739" lon="2.71215">
        <ele>1557.95</ele>
        <time>2019-06-02T10:14:00Z</time>
      </trkpt>
      <trkpt lat="45.08765" lon="2.71247">
        <ele>1553.63</ele>
        <time>2019-06-02T10:14:40Z</time>
      </trkpt>
      <trkpt lat="45.08785" lon="2.71285">
        <ele>1549.3</ele>
        <time>2019-06-02T10:15:20Z</time>
      </trkpt>
      <trkpt lat="45.08803" lon="2.71306">
        <ele>1546.42</ele>
        <time>2019-06-02T10:15:50Z</time>
      </trkpt>
      <trkpt lat="45.08821" lon="2.71335">
        <ele>1544.5</ele>
        <time>2019-06-02T10:16:23Z</time>
      </trkpt>
      <trkpt lat="45.08834" lon="2.71369">
        <ele>1541.13</ele>
        <time>2019-06-02T10:16:58Z</time>
      </trkpt>
      <trkpt lat="45.08846" lon="2.7141">
        <ele>1537.77</ele>
        <time>2019-06-02T10:17:41Z</time>
      </trkpt>
      <trkpt lat="45.08867" lon="2.71443">
        <ele>1537.77</ele>
        <time>2019-06-02T10:18:17Z</time>
      </trkpt>
      <trkpt lat="45.08888" lon="2.71467">
        <ele>1535.36</ele>
        <time>2019-06-02T10:18:48Z</time>
      </trkpt>
      <trkpt lat="45.08906" lon="2.7149">
        <ele>1532.96</ele>
        <time>2019-06-02T10:19:19Z</time>
      </trkpt>
      <trkpt lat="45.08928" lon="2.7152">
        <ele>1531.04</ele>
        <time>2019-06-02T10:19:53Z</time>
      </trkpt>
      <trkpt lat="45.08947" lon="2.71543">
        <ele>1530.08</ele>
        <time>2019-06-02T10:20:19Z</time>
      </trkpt>
      <trkpt lat="45.08973" lon="2.71573">
        <ele>1531.04</ele>
        <time>2019-06-02T10:20:54Z</time>
      </trkpt>
      <trkpt lat="45.08998" lon="2.71606">
        <ele>1529.11</ele>
        <time>2019-06-02T10:21:31Z</time>
      </trkpt>
      <trkpt lat="45.09019" lon="2.71637">
        <ele>1527.67</ele>
        <time>2019-06-02T10:22:03Z</time>
      </trkpt>
      <trkpt lat="45.09034" lon="2.71661">
        <ele>1528.63</ele>
        <time>2019-06-02T10:22:28Z</time>
      </trkpt>
      <trkpt lat="45.09056" lon="2.71675">
        <ele>1530.56</ele>
        <time>2019-06-02T10:22:59Z</time>
      </trkpt>
      <trkpt lat="45.09056" lon="2.71703">
        <ele>1532</ele>
        <time>2019-06-02T10:23:39Z</time>
      </trkpt>
      <trkpt lat="45.09056" lon="2.71708">
        <ele>1530.08</ele>
        <time>2019-06-02T10:30:15Z</time>
      </trkpt>
      <trkpt lat="45.09058" lon="2.71706">
        <ele>1527.19</ele>
        <time>2019-06-02T10:42:05Z</time>
      </trkpt>
      <trkpt lat="45.09057" lon="2.71707">
        <ele>1531.52</ele>
        <time>2019-06-02T10:48:16Z</time>
      </trkpt>
      <trkpt lat="45.09058" lon="2.71708">
        <ele>1526.71</ele>
        <time>2019-06-02T11:00:23Z</time>
      </trkpt>
      <trkpt lat="45.09057" lon="2.71708">
        <ele>1526.71</ele>
        <time>2019-06-02T11:09:12Z</time>
      </trkpt>
      <trkpt lat="45.09066" lon="2.71691">
        <ele>1525.27</ele>
        <time>2019-06-02T11:11:48Z</time>
      </trkpt>
      <trkpt lat="45.09074" lon="2.71721">
        <ele>1518.54</ele>
        <time>2019-06-02T11:12:38Z</time>
      </trkpt>
      <trkpt lat="45.09088" lon="2.71726">
        <ele>1518.06</ele>
        <time>2019-06-02T11:13:58Z</time>
      </trkpt>
      <trkpt lat="45.09067" lon="2.71748">
        <ele>1513.73</ele>
        <time>2019-06-02T11:15:02Z</time>
      </trkpt>
      <trkpt lat="45.0905" lon="2.71777">
        <ele>1508.93</ele>
        <time>2019-06-02T11:15:44Z</time>
      </trkpt>
      <trkpt lat="45.09034" lon="2.71811">
        <ele>1505.56</ele>
        <time>2019-06-02T11:16:18Z</time>
      </trkpt>
      <trkpt lat="45.09025" lon="2.71848">
        <ele>1503.64</ele>
        <time>2019-06-02T11:16:48Z</time>
      </trkpt>
      <trkpt lat="45.09025" lon="2.71879">
        <ele>1500.27</ele>
        <time>2019-06-02T11:17:28Z</time>
      </trkpt>
      <trkpt lat="45.09023" lon="2.71916">
        <ele>1494.99</ele>
        <time>2019-06-02T11:18:01Z</time>
      </trkpt>
      <trkpt lat="45.09009" lon="2.71948">
        <ele>1490.18</ele>
        <time>2019-06-02T11:18:35Z</time>
      </trkpt>
      <trkpt lat="45.08993" lon="2.7198">
        <ele>1487.3</ele>
        <time>2019-06-02T11:19:07Z</time>
      </trkpt>
      <trkpt lat="45.08976" lon="2.72008">
        <ele>1482.01</ele>
        <time>2019-06-02T11:19:41Z</time>
      </trkpt>
      <trkpt lat="45.08959" lon="2.72038">
        <ele>1478.65</ele>
        <time>2019-06-02T11:20:12Z</time>
      </trkpt>
      <trkpt lat="45.08945" lon="2.72085">
        <ele>1473.36</ele>
        <time>2019-06-02T11:20:53Z</time>
      </trkpt>
      <trkpt lat="45.08941" lon="2.72122">
        <ele>1468.55</ele>
        <time>2019-06-02T11:21:22Z</time>
      </trkpt>
      <trkpt lat="45.08942" lon="2.72164">
        <ele>1464.23</ele>
        <time>2019-06-02T11:21:52Z</time>
      </trkpt>
      <trkpt lat="45.08938" lon="2.72204">
        <ele>1460.86</ele>
        <time>2019-06-02T11:22:24Z</time>
      </trkpt>
      <trkpt lat="45.08937" lon="2.72239">
        <ele>1457.02</ele>
        <time>2019-06-02T11:22:54Z</time>
      </trkpt>
      <trkpt lat="45.08906" lon="2.72267">
        <ele>1453.17</ele>
        <time>2019-06-02T11:23:36Z</time>
      </trkpt>
      <trkpt lat="45.08887" lon="2.72285">
        <ele>1448.84</ele>
        <time>2019-06-02T11:24:04Z</time>
      </trkpt>
      <trkpt lat="45.08867" lon="2.72302">
        <ele>1444.52</ele>
        <time>2019-06-02T11:24:34Z</time>
      </trkpt>
      <trkpt lat="45.08843" lon="2.72338">
        <ele>1437.79</ele>
        <time>2019-06-02T11:25:15Z</time>
      </trkpt>
      <trkpt lat="45.08816" lon="2.7237">
        <ele>1432.5</ele>
        <time>2019-06-02T11:25:50Z</time>
      </trkpt>
      <trkpt lat="45.08799" lon="2.72404">
        <ele>1428.18</ele>
        <time>2019-06-02T11:26:23Z</time>
      </trkpt>
      <trkpt lat="45.08776" lon="2.72442">
        <ele>1423.85</ele>
        <time>2019-06-02T11:27:04Z</time>
      </trkpt>
      <trkpt lat="45.08761" lon="2.72465">
        <ele>1421.93</ele>
        <time>2019-06-02T11:27:36Z</time>
      </trkpt>
      <trkpt lat="45.08758" lon="2.72515">
        <ele>1418.56</ele>
        <time>2019-06-02T11:29:08Z</time>
      </trkpt>
      <trkpt lat="45.08753" lon="2.7256">
        <ele>1414.24</ele>
        <time>2019-06-02T11:29:40Z</time>
      </trkpt>
      <trkpt lat="45.08722" lon="2.72583">
        <ele>1406.55</ele>
        <time>2019-06-02T11:30:20Z</time>
      </trkpt>
      <trkpt lat="45.08702" lon="2.72609">
        <ele>1401.26</ele>
        <time>2019-06-02T11:30:52Z</time>
      </trkpt>
      <trkpt lat="45.08693" lon="2.72642">
        <ele>1395.01</ele>
        <time>2019-06-02T11:31:24Z</time>
      </trkpt>
      <trkpt lat="45.08681" lon="2.72679">
        <ele>1390.68</ele>
        <time>2019-06-02T11:31:55Z</time>
      </trkpt>
      <trkpt lat="45.08679" lon="2.72725">
        <ele>1387.8</ele>
        <time>2019-06-02T11:32:26Z</time>
      </trkpt>
      <trkpt lat="45.0868" lon="2.7276">
        <ele>1382.51</ele>
        <time>2019-06-02T11:32:53Z</time>
      </trkpt>
      <trkpt lat="45.08686" lon="2.72812">
        <ele>1377.71</ele>
        <time>2019-06-02T11:33:31Z</time>
      </trkpt>
      <trkpt lat="45.08695" lon="2.72853">
        <ele>1373.38</ele>
        <time>2019-06-02T11:34:09Z</time>
      </trkpt>
      <trkpt lat="45.08697" lon="2.72896">
        <ele>1370.02</ele>
        <time>2019-06-02T11:34:41Z</time>
      </trkpt>
      <trkpt lat="45.08695" lon="2.72939">
        <ele>1369.05</ele>
        <time>2019-06-02T11:35:07Z</time>
      </trkpt>
      <trkpt lat="45.08698" lon="2.72995">
        <ele>1368.57</ele>
        <time>2019-06-02T11:35:42Z</time>
      </trkpt>
      <trkpt lat="45.08687" lon="2.73041">
        <ele>1366.17</ele>
        <time>2019-06-02T11:36:12Z</time>
      </trkpt>
      <trkpt lat="45.08679" lon="2.73071">
        <ele>1364.73</ele>
        <time>2019-06-02T11:36:35Z</time>
      </trkpt>
      <trkpt lat="45.08661" lon="2.73101">
        <ele>1359.92</ele>
        <time>2019-06-02T11:37:04Z</time>
      </trkpt>
      <trkpt lat="45.08649" lon="2.73137">
        <ele>1351.27</ele>
        <time>2019-06-02T11:37:46Z</time>
      </trkpt>
      <trkpt lat="45.08633" lon="2.73161">
        <ele>1344.54</ele>
        <time>2019-06-02T11:38:26Z</time>
      </trkpt>
      <trkpt lat="45.08618" lon="2.73184">
        <ele>1336.85</ele>
        <time>2019-06-02T11:39:06Z</time>
      </trkpt>
      <trkpt lat="45.086" lon="2.73208">
        <ele>1330.6</ele>
        <time>2019-06-02T11:39:50Z</time>
      </trkpt>
      <trkpt lat="45.08596" lon="2.7324">
        <ele>1327.24</ele>
        <time>2019-06-02T11:40:15Z</time>
      </trkpt>
      <trkpt lat="45.08594" lon="2.73285">
        <ele>1321.47</ele>
        <time>2019-06-02T11:40:54Z</time>
      </trkpt>
      <trkpt lat="45.08584" lon="2.73328">
        <ele>1313.78</ele>
        <time>2019-06-02T11:41:37Z</time>
      </trkpt>
      <trkpt lat="45.08566" lon="2.7336">
        <ele>1309.45</ele>
        <time>2019-06-02T11:42:09Z</time>
      </trkpt>
      <trkpt lat="45.08555" lon="2.73389">
        <ele>1306.09</ele>
        <time>2019-06-02T11:42:38Z</time>
      </trkpt>
      <trkpt lat="45.0856" lon="2.73402">
        <ele>1305.13</ele>
        <time>2019-06-02T11:45:40Z</time>
      </trkpt>
      <trkpt lat="45.08547" lon="2.73434">
        <ele>1302.72</ele>
        <time>2019-06-02T11:47:58Z</time>
      </trkpt>
      <trkpt lat="45.08561" lon="2.73482">
        <ele>1297.92</ele>
        <time>2019-06-02T11:48:41Z</time>
      </trkpt>
      <trkpt lat="45.08578" lon="2.73514">
        <ele>1295.03</ele>
        <time>2019-06-02T11:49:13Z</time>
      </trkpt>
      <trkpt lat="45.08596" lon="2.73554">
        <ele>1289.27</ele>
        <time>2019-06-02T11:49:56Z</time>
      </trkpt>
      <trkpt lat="45.08601" lon="2.73605">
        <ele>1283.98</ele>
        <time>2019-06-02T11:50:37Z</time>
      </trkpt>
      <trkpt lat="45.0862" lon="2.7364">
        <ele>1279.65</ele>
        <time>2019-06-02T11:51:11Z</time>
      </trkpt>
      <trkpt lat="45.08648" lon="2.73661">
        <ele>1277.25</ele>
        <time>2019-06-02T11:51:43Z</time>
      </trkpt>
      <trkpt lat="45.08675" lon="2.73678">
        <ele>1274.85</ele>
        <time>2019-06-02T11:52:17Z</time>
      </trkpt>
      <trkpt lat="45.08707" lon="2.73664">
        <ele>1271</ele>
        <time>2019-06-02T11:53:32Z</time>
      </trkpt>
      <trkpt lat="45.08732" lon="2.73641">
        <ele>1265.71</ele>
        <time>2019-06-02T11:54:08Z</time>
      </trkpt>
      <trkpt lat="45.08754" lon="2.73605">
        <ele>1261.87</ele>
        <time>2019-06-02T11:54:40Z</time>
      </trkpt>
      <trkpt lat="45.08777" lon="2.73572">
        <ele>1257.54</ele>
        <time>2019-06-02T11:55:13Z</time>
      </trkpt>
      <trkpt lat="45.08797" lon="2.73539">
        <ele>1255.14</ele>
        <time>2019-06-02T11:55:44Z</time>
      </trkpt>
      <trkpt lat="45.0882" lon="2.73508">
        <ele>1252.25</ele>
        <time>2019-06-02T11:56:17Z</time>
      </trkpt>
      <trkpt lat="45.08819" lon="2.73511">
        <ele>1247.93</ele>
        <time>2019-06-02T11:56:52Z</time>
      </trkpt>
      <trkpt lat="45.08805" lon="2.73548">
        <ele>1245.04</ele>
        <time>2019-06-02T11:57:19Z</time>
      </trkpt>
      <trkpt lat="45.08796" lon="2.73594">
        <ele>1243.6</ele>
        <time>2019-06-02T11:57:59Z</time>
      </trkpt>
      <trkpt lat="45.08778" lon="2.73625">
        <ele>1240.72</ele>
        <time>2019-06-02T11:58:26Z</time>
      </trkpt>
      <trkpt lat="45.08763" lon="2.73664">
        <ele>1238.32</ele>
        <time>2019-06-02T11:58:55Z</time>
      </trkpt>
      <trkpt lat="45.08754" lon="2.73699">
        <ele>1235.91</ele>
        <time>2019-06-02T11:59:24Z</time>
      </trkpt>
      <trkpt lat="45.08746" lon="2.73737">
        <ele>1232.07</ele>
        <time>2019-06-02T11:59:54Z</time>
      </trkpt>
      <trkpt lat="45.08737" lon="2.73781">
        <ele>1230.14</ele>
        <time>2019-06-02T12:00:28Z</time>
      </trkpt>
      <trkpt lat="45.08732" lon="2.73812">
        <ele>1227.74</ele>
        <time>2019-06-02T12:00:55Z</time>
      </trkpt>
      <trkpt lat="45.08726" lon="2.73847">
        <ele>1223.9</ele>
        <time>2019-06-02T12:01:22Z</time>
      </trkpt>
      <trkpt lat="45.08735" lon="2.73897">
        <ele>1220.53</ele>
        <time>2019-06-02T12:01:51Z</time>
      </trkpt>
      <trkpt lat="45.08743" lon="2.73936">
        <ele>1217.17</ele>
        <time>2019-06-02T12:02:25Z</time>
      </trkpt>
      <trkpt lat="45.08749" lon="2.73973">
        <ele>1214.76</ele>
        <time>2019-06-02T12:02:50Z</time>
      </trkpt>
      <trkpt lat="45.08775" lon="2.73964">
        <ele>1212.36</ele>
        <time>2019-06-02T12:03:21Z</time>
      </trkpt>
      <trkpt lat="45.0881" lon="2.73938">
        <ele>1209.96</ele>
        <time>2019-06-02T12:04:01Z</time>
      </trkpt>
      <trkpt lat="45.08825" lon="2.73907">
        <ele>1210.44</ele>
        <time>2019-06-02T12:04:26Z</time>
      </trkpt>
      <trkpt lat="45.08824" lon="2.73879">
        <ele>1210.44</ele>
        <time>2019-06-02T12:05:40Z</time>
      </trkpt>
      <trkpt lat="45.08826" lon="2.73879">
        <ele>1209.48</ele>
        <time>2019-06-02T12:05:57Z</time>
      </trkpt>
    </trkseg>
  </trk>
</gpx>